[[{"header":{"parameterUnit":"m.s-1","parameterCategory":1,"la1":30.6,"la2":28.766,"lo1":-90.7593,"lo2":-88.6598,"dx":0.0162,"dy":0.0183,"nx":116,"ny":114,"refTime":"2022-12-15T06:00:00:Z","depth":0,"parameterNumber":2,"parameterNumberName":"U-component_of_WINDS"},"data":[0.0,0.0,0.0,0.0,0.0,0.0,0.0,0.0,0.0,0.0,0.0,0.0,0.0,0.0,0.0,0.0,0.0,0.0,0.0,0.0,0.0,0.0,0.0,0.0,0.0,0.0,0.0,0.0,0.0,0.0,0.0,0.0,0.0,0.0,0.0,0.0,0.0,0.0,0.0,0.0,0.0,0.0,0.0,0.0,0.0,0.0,0.0,0.0,0.0,0.0,0.0,0.0,0.0,0.0,0.0,0.0,0.0,0.0,0.0,0.0,0.0,0.0,0.0,0.0,0.0,0.0,0.0,0.0,0.0,0.0,0.0,0.0,0.0,0.0,0.0,0.0,0.0,0.0,0.0,0.0,0.0,0.0,0.0,0.0,0.0,0.0,0.0,0.0,0.0,0.0,0.0,0.0,0.0,0.0,0.0,0.0,0.0,0.0,0.0,0.0,0.0,0.0,0.0,0.0,0.0,0.0,0.0,0.0,0.0,0.0,0.0,0.0,0.0,0.0,0.0,0.0,0.0,0.0,0.0,0.0,0.0,0.0,0.0,0.0,0.0,0.0,0.0,0.0,0.0,0.0,0.0,0.0,0.0,0.0,0.0,0.0,0.0,0.0,0.0,0.0,0.0,0.0,0.0,0.0,0.0,0.0,0.0,0.0,0.0,0.0,0.0,0.0,0.0,0.0,0.0,0.0,0.0,0.0,0.0,0.0,0.0,0.0,0.0,0.0,0.0,0.0,0.0,0.0,0.0,0.0,0.0,0.0,0.0,0.0,0.0,0.0,0.0,0.0,0.0,0.0,0.0,0.0,0.0,0.0,0.0,0.0,0.0,0.0,0.0,0.0,0.0,0.0,0.0,0.0,0.0,0.0,0.0,0.0,0.0,0.0,0.0,0.0,0.0,0.0,0.0,0.0,0.0,0.0,0.0,0.0,0.0,0.0,0.0,0.0,0.0,0.0,0.0,0.0,0.0,0.0,0.0,0.0,0.0,0.0,0.0,0.0,0.0,0.0,0.0,0.0,0.0,0.0,0.0,0.0,0.0,0.0,0.0,0.0,0.0,0.0,0.0,0.0,0.0,0.0,0.0,0.0,0.0,0.0,0.0,0.0,0.0,0.0,0.0,0.0,0.0,0.0,0.0,0.0,0.0,0.0,0.0,0.0,0.0,0.0,0.0,0.0,0.0,0.0,0.0,0.0,0.0,0.0,0.0,0.0,0.0,0.0,0.0,0.0,0.0,0.0,0.0,0.0,0.0,0.0,0.0,0.0,0.0,0.0,0.0,0.0,0.0,0.0,0.0,0.0,0.0,0.0,0.0,0.0,0.0,0.0,0.0,0.0,0.0,0.0,0.0,0.0,0.0,0.0,0.0,0.0,0.0,0.0,0.0,0.0,0.0,0.0,0.0,0.0,0.0,0.0,0.0,0.0,0.0,0.0,0.0,0.0,0.0,0.0,0.0,0.0,0.0,0.0,0.0,0.0,0.0,0.0,0.0,0.0,0.0,0.0,0.0,0.0,0.0,0.0,0.0,0.0,0.0,0.0,0.0,0.0,0.0,0.0,0.0,0.0,0.0,0.0,0.0,0.0,0.0,0.0,0.0,0.0,0.0,0.0,0.0,0.0,0.0,0.0,0.0,0.0,0.0,0.0,0.0,0.0,0.0,0.0,0.0,0.0,0.0,0.0,0.0,0.0,0.0,0.0,0.0,0.0,0.0,0.0,0.0,0.0,0.0,0.0,0.0,0.0,0.0,0.0,0.0,0.0,0.0,0.0,0.0,0.0,0.0,0.0,0.0,0.0,0.0,0.0,0.0,0.0,0.0,0.0,0.0,0.0,0.0,0.0,0.0,0.0,0.0,0.0,0.0,0.0,0.0,0.0,0.0,0.0,0.0,0.0,0.0,0.0,0.0,0.0,0.0,0.0,0.0,0.0,0.0,0.0,0.0,0.0,0.0,0.0,0.0,0.0,0.0,0.0,0.0,0.0,0.0,0.0,0.0,0.0,0.0,0.0,0.0,0.0,0.0,0.0,0.0,0.0,0.0,0.0,0.0,0.0,0.0,0.0,0.0,0.0,0.0,0.0,0.0,0.0,0.0,0.0,0.0,0.0,0.0,0.0,0.0,0.0,0.0,0.0,0.0,0.0,0.0,0.0,0.0,0.0,0.0,0.0,0.0,0.0,0.0,0.0,0.0,0.0,0.0,0.0,0.0,0.0,0.0,0.0,0.0,0.0,0.0,0.0,0.0,0.0,0.0,0.0,0.0,0.0,0.0,0.0,0.0,0.0,0.0,0.0,0.0,0.0,0.0,0.0,0.0,0.0,0.0,0.0,0.0,0.0,0.0,0.0,0.0,0.0,0.0,0.0,0.0,0.0,0.0,0.0,0.0,0.0,0.0,0.0,0.0,0.0,0.0,0.0,0.0,0.0,0.0,0.0,0.0,0.0,0.0,0.0,0.0,0.0,0.0,0.0,0.0,0.0,0.0,0.0,0.0,0.0,0.0,0.0,0.0,0.0,0.0,0.0,0.0,0.0,0.0,0.0,0.0,0.0,0.0,0.0,0.0,0.0,0.0,0.0,0.0,0.0,0.0,0.0,0.0,0.0,0.0,0.0,0.0,0.0,0.0,0.0,0.0,0.0,0.0,0.0,0.0,0.0,0.0,0.0,0.0,0.0,0.0,0.0,0.0,0.0,0.0,0.0,0.0,0.0,0.0,0.0,0.0,0.0,0.0,0.0,0.0,0.0,0.0,0.0,0.0,0.0,0.0,0.0,0.0,0.0,0.0,0.0,0.0,0.0,0.0,0.0,0.0,0.0,0.0,0.0,0.0,0.0,0.0,0.0,0.0,0.0,0.0,0.0,0.0,0.0,0.0,0.0,0.0,0.0,0.0,0.0,0.0,0.0,0.0,0.0,0.0,0.0,0.0,0.0,0.0,0.0,0.0,0.0,0.0,0.0,0.0,0.0,0.0,0.0,0.0,0.0,0.0,0.0,0.0,0.0,0.0,0.0,0.0,0.0,0.0,0.0,0.0,0.0,0.0,0.0,0.0,0.0,0.0,0.0,0.0,0.0,0.0,0.0,0.0,0.0,0.0,0.0,0.0,0.0,0.0,0.0,0.0,0.0,0.0,0.0,0.0,0.0,0.0,0.0,0.0,0.0,0.0,0.0,0.0,0.0,0.0,0.0,0.0,0.0,0.0,0.0,0.0,0.0,0.0,0.0,0.0,0.0,0.0,0.0,0.0,0.0,0.0,0.0,0.0,0.0,0.0,0.0,0.0,0.0,0.0,0.0,0.0,0.0,0.0,0.0,0.0,0.0,0.0,0.0,0.0,0.0,0.0,0.0,0.0,0.0,0.0,0.0,0.0,0.0,0.0,0.0,0.0,0.0,0.0,0.0,0.0,0.0,0.0,0.0,0.0,0.0,0.0,0.0,0.0,0.0,0.0,0.0,0.0,0.0,0.0,0.0,0.0,0.0,0.0,0.0,0.0,0.0,0.0,0.0,0.0,0.0,0.0,0.0,0.0,0.0,0.0,0.0,0.0,0.0,0.0,0.0,0.0,0.0,0.0,0.0,0.0,0.0,0.0,0.0,0.0,0.0,0.0,0.0,0.0,0.0,0.0,0.0,0.0,0.0,0.0,0.0,0.0,0.0,0.0,0.0,0.0,0.0,0.0,0.0,0.0,0.0,0.0,0.0,0.0,0.0,0.0,0.0,0.0,0.0,0.0,0.0,0.0,0.0,0.0,0.0,0.0,0.0,0.0,0.0,0.0,0.0,0.0,0.0,0.0,0.0,0.0,0.0,0.0,0.0,0.0,0.0,0.0,0.0,0.0,0.0,0.0,0.0,0.0,0.0,0.0,0.0,0.0,0.0,0.0,0.0,0.0,0.0,0.0,0.0,0.0,0.0,0.0,0.0,0.0,0.0,0.0,0.0,0.0,0.0,0.0,0.0,0.0,0.0,0.0,0.0,0.0,0.0,0.0,0.0,0.0,0.0,0.0,0.0,0.0,0.0,0.0,0.0,0.0,0.0,0.0,0.0,0.0,0.0,0.0,0.0,0.0,0.0,0.0,0.0,0.0,0.0,0.0,0.0,0.0,0.0,0.0,0.0,0.0,0.0,0.0,0.0,0.0,0.0,0.0,0.0,0.0,0.0,0.0,0.0,0.0,0.0,0.0,0.0,0.0,0.0,0.0,0.0,0.0,0.0,0.0,0.0,0.0,0.0,0.0,0.0,0.0,0.0,0.0,0.0,0.0,0.0,0.0,0.0,0.0,0.0,0.0,0.0,0.0,0.0,0.0,0.0,0.0,0.0,0.0,0.0,0.0,0.0,0.0,0.0,0.0,0.0,0.0,0.0,0.0,0.0,0.0,0.0,0.0,0.0,0.0,0.0,0.0,0.0,0.0,0.0,0.0,0.0,0.0,0.0,0.0,0.0,0.0,0.0,0.0,0.0,0.0,0.0,0.0,0.0,0.0,0.0,0.0,0.0,0.0,0.0,0.0,0.0,0.0,0.0,0.0,0.0,0.0,0.0,0.0,0.0,0.0,0.0,0.0,0.0,0.0,0.0,0.0,0.0,0.0,0.0,0.0,0.0,0.0,0.0,0.0,0.0,0.0,0.0,0.0,0.0,0.0,0.0,0.0,0.0,0.0,0.0,0.0,0.0,0.0,0.0,0.0,0.0,0.0,0.0,0.0,0.0,0.0,0.0,0.0,0.0,0.0,0.0,0.0,0.0,0.0,0.0,0.0,0.0,0.0,0.0,0.0,0.0,0.0,0.0,0.0,0.0,0.0,0.0,0.0,0.0,0.0,0.0,0.0,0.0,0.0,0.0,0.0,0.0,0.0,0.0,0.0,0.0,0.0,0.0,0.0,0.0,0.0,0.0,0.0,0.0,0.0,0.0,0.0,0.0,0.0,0.0,0.0,0.0,0.0,0.0,0.0,0.0,0.0,0.0,0.0,0.0,0.0,0.0,0.0,0.0,0.0,0.0,0.0,0.0,0.0,0.0,0.0,0.0,0.0,0.0,0.0,0.0,0.0,0.0,0.0,0.0,0.0,0.0,0.0,0.0,0.0,0.0,0.0,0.0,0.0,0.0,0.0,0.0,0.0,0.0,0.0,0.0,0.0,0.0,0.0,0.0,0.0,0.0,0.0,0.0,0.0,0.0,0.0,0.0,0.0,0.0,0.0,0.0,0.0,0.0,0.0,0.0,0.0,0.0,0.0,0.0,0.0,0.0,0.0,0.0,0.0,0.0,0.0,0.0,0.0,0.0,0.0,0.0,0.0,0.0,0.0,0.0,0.0,0.0,0.0,0.0,0.0,0.0,0.0,0.0,0.0,0.0,0.0,0.0,0.0,0.0,0.0,0.0,0.0,0.0,0.0,0.0,0.0,0.0,0.0,0.0,0.0,0.0,0.0,0.0,0.0,0.0,0.0,0.0,0.0,0.0,0.0,0.0,0.0,0.0,0.0,0.0,0.0,0.0,0.0,0.0,0.0,0.0,0.0,0.0,0.0,0.0,0.0,0.0,0.0,0.0,0.0,0.0,0.0,0.0,0.0,0.0,0.0,0.0,0.0,0.0,0.0,0.0,0.0,0.0,0.0,0.0,0.0,0.0,0.0,0.0,0.0,0.0,0.0,0.0,0.0,0.0,0.0,0.0,0.0,0.0,0.0,0.0,0.0,0.0,0.0,0.0,0.0,0.0,0.0,0.0,0.0,0.0,0.0,0.0,0.0,0.0,0.0,0.0,0.0,0.0,0.0,0.0,0.0,0.0,0.0,0.0,0.0,0.0,0.0,0.0,0.0,0.0,0.0,0.0,0.0,0.0,0.0,0.0,0.0,0.0,0.0,0.0,0.0,0.0,0.0,0.0,0.0,0.0,0.0,0.0,0.0,0.0,0.0,0.0,0.0,0.0,0.0,0.0,0.0,0.0,0.0,0.0,0.0,0.0,0.0,0.0,0.0,0.0,0.0,0.0,0.0,0.0,0.0,0.0,0.0,0.0,0.0,0.0,0.0,0.0,0.0,0.0,0.0,0.0,0.0,0.0,0.0,0.0,0.0,0.0,0.0,0.0,0.0,0.0,0.0,0.0,3.9318,3.7169,0.0,0.0,0.0,0.0,0.0,0.0,0.0,0.0,0.0,0.0,0.0,0.0,0.0,0.0,0.0,0.0,0.0,0.0,0.0,0.0,0.0,0.0,0.0,1.4118,1.4438,1.4729,1.5052,0.0,0.0,0.0,0.0,0.0,0.0,0.0,0.0,0.0,1.9175,1.9143,2.1624,2.367,2.5288,2.4261,2.4018,2.4334,0.0,0.0,0.0,0.0,0.0,0.0,0.0,0.0,0.0,0.0,0.0,0.0,0.0,0.0,0.0,0.0,0.0,0.0,0.0,0.0,0.0,0.0,0.0,0.0,0.0,0.0,0.0,0.0,0.0,0.0,0.0,0.0,0.0,0.0,0.0,0.0,0.0,0.0,0.0,0.0,0.0,0.0,0.0,0.0,0.0,0.0,0.0,0.0,0.0,0.0,0.0,0.0,0.0,0.0,0.0,0.0,0.0,0.0,0.0,0.0,0.0,0.0,0.0,0.0,0.0,0.0,0.0,0.0,0.0,0.0,4.2615,4.0912,0.0,0.0,0.0,0.0,0.0,0.0,0.0,0.0,0.0,0.0,0.0,0.0,0.0,0.0,0.0,0.0,0.0,0.0,0.0,0.0,0.0,1.3948,1.4565,1.5274,1.5912,1.6411,1.699,1.744,1.7674,1.6887,0.0,0.0,0.0,0.0,1.8216,2.0285,2.1647,2.2252,2.4569,2.7062,2.9663,2.9074,2.8606,2.8057,2.5134,0.0,0.0,0.0,0.0,0.0,0.0,0.0,0.0,0.0,0.0,0.0,0.0,0.0,0.0,0.0,0.0,0.0,0.0,0.0,0.0,0.0,0.0,0.0,0.0,0.0,0.0,0.0,0.0,0.0,0.0,0.0,0.0,0.0,0.0,0.0,0.0,0.0,0.0,0.0,0.0,0.0,0.0,0.0,0.0,0.0,0.0,0.0,0.0,0.0,0.0,0.0,0.0,0.0,0.0,0.0,0.0,0.0,0.0,0.0,0.0,0.0,0.0,0.0,4.672,4.7187,4.7187,4.7187,4.7548,4.8016,4.5558,4.4854,4.529,4.3608,0.0,0.0,0.0,0.0,0.0,0.0,0.0,0.0,0.0,0.0,0.0,0.0,0.0,0.0,0.0,0.0,0.0,0.0,0.0,1.5291,1.5867,1.6764,1.7344,1.7399,1.7755,1.7995,1.8031,1.8328,0.0,0.0,0.0,2.0596,2.0411,2.2433,2.353,2.3629,2.6941,2.97,3.188,3.1785,3.2,3.2323,2.8922,2.7404,2.7252,0.0,0.0,0.0,0.0,0.0,0.0,0.0,0.0,0.0,0.0,0.0,0.0,0.0,0.0,0.0,0.0,0.0,0.0,0.0,0.0,0.0,0.0,0.0,0.0,0.0,0.0,0.0,0.0,0.0,0.0,0.0,0.0,0.0,0.0,0.0,0.0,0.0,0.0,0.0,0.0,0.0,3.5095,3.5165,0.0,0.0,0.0,0.0,0.0,0.0,0.0,0.0,0.0,0.0,0.0,0.0,0.0,4.4863,4.5582,4.6509,4.7026,4.7137,4.7971,4.8365,4.8281,4.8281,4.8352,4.8464,4.8758,0.0,4.7328,4.6169,0.0,0.0,0.0,0.0,0.0,0.0,0.0,0.0,0.0,0.0,0.0,0.0,0.0,0.0,0.0,0.0,0.0,0.0,0.0,0.0,0.0,1.8967,1.9759,2.0816,2.1641,2.1978,2.1726,2.1935,0.0,0.0,2.2541,2.2693,2.2555,2.5356,2.7793,2.9732,3.128,3.2923,3.4604,3.4604,3.4755,3.497,3.3056,3.1109,2.918,2.7515,0.0,0.0,0.0,0.0,0.0,0.0,0.0,0.0,0.0,0.0,0.0,0.0,0.0,0.0,0.0,0.0,0.0,0.0,0.0,0.0,0.0,0.0,0.0,0.0,0.0,0.0,0.0,0.0,0.0,0.0,0.0,0.0,0.0,0.0,0.0,0.0,0.0,0.0,0.0,3.4959,3.6288,3.7622,3.7762,3.7943,0.0,0.0,0.0,0.0,0.0,0.0,0.0,0.0,0.0,4.6344,4.6379,4.7187,4.883,4.9194,4.9798,5.0641,5.0557,5.0733,5.1119,5.0684,5.0719,5.1161,5.1519,5.1341,5.0695,4.8882,4.7597,4.6676,0.0,0.0,0.0,0.0,4.4788,4.5111,0.0,0.0,0.0,0.0,0.0,0.0,0.0,0.0,0.0,0.0,0.0,0.0,2.004,2.1019,2.2124,2.3626,2.4616,2.5004,2.464,2.4699,2.4827,2.4981,2.4796,2.4704,2.4725,2.7946,3.1179,3.4295,3.4485,3.5387,3.6953,3.6953,3.7016,3.7142,3.6493,3.4453,3.1463,3.0364,2.9827,2.9554,0.0,0.0,0.0,0.0,0.0,0.0,0.0,0.0,0.0,0.0,0.0,0.0,0.0,0.0,0.0,0.0,0.0,0.0,0.0,0.0,0.0,0.0,0.0,0.0,0.0,0.0,0.0,0.0,0.0,0.0,0.0,0.0,0.0,0.0,0.0,0.0,0.0,3.7241,3.861,4.054,4.0956,4.1388,0.0,0.0,0.0,0.0,0.0,0.0,4.6999,4.7104,4.756,4.8562,4.8773,4.9728,5.1484,5.1484,5.2151,5.3485,5.2867,5.3008,5.3759,5.3183,5.3218,5.3794,5.3794,5.3794,5.3619,5.1484,5.0275,4.969,4.8886,4.8093,4.7413,4.7618,4.7739,4.8009,0.0,0.0,0.0,0.0,0.0,0.0,0.0,0.0,0.0,0.0,0.0,2.0104,2.0605,2.2556,2.3997,2.4421,2.4776,2.4992,2.4976,2.528,2.5316,2.5012,2.6195,2.6864,2.6941,2.9663,3.2165,3.4295,3.4991,3.6406,3.8381,3.8381,3.8737,3.9305,3.8634,3.7157,3.4997,3.2987,3.2854,3.3695,3.0358,0.0,0.0,0.0,0.0,0.0,0.0,0.0,0.0,0.0,0.0,0.0,0.0,0.0,0.0,0.0,0.0,0.0,0.0,0.0,0.0,0.0,0.0,0.0,0.0,0.0,0.0,0.0,0.0,0.0,0.0,0.0,0.0,0.0,0.0,0.0,0.0,0.0,0.0,4.4688,4.5413,0.0,0.0,0.0,0.0,4.7158,4.6507,4.7104,4.9412,4.9517,5.0213,5.1737,5.2495,5.2959,5.3071,5.3071,5.3478,5.4236,5.4201,5.4622,5.5387,5.5352,5.536,5.5387,5.5387,5.5387,5.5254,5.3696,5.2572,5.1828,5.1779,5.1323,5.0739,5.1456,5.1873,5.2214,0.0,0.0,0.0,1.466,1.4634,1.4834,1.5436,1.5726,1.6422,1.7877,1.9495,2.1174,2.2937,2.5085,2.6767,2.7692,2.8957,2.9508,2.9011,2.9631,2.9706,2.9025,2.9149,3.0024,3.1691,3.3151,3.5142,3.7638,3.8404,3.9123,3.9874,4.0767,4.1083,4.0838,4.0609,3.985,3.8594,3.6019,3.4952,3.4832,3.267,3.1539,0.0,0.0,0.0,0.0,0.0,0.0,0.0,0.0,0.0,0.0,0.0,0.0,0.0,0.0,0.0,0.0,0.0,0.0,0.0,0.0,0.0,0.0,0.0,0.0,0.0,0.0,0.0,0.0,0.0,0.0,0.0,0.0,0.0,0.0,0.0,0.0,0.0,4.6484,4.7244,0.0,4.8093,4.7835,4.8227,4.9545,4.9405,5.003,5.1835,5.239,5.2909,5.3464,5.4279,5.4911,5.5374,5.5374,5.5788,5.6561,5.6034,5.621,5.6974,5.6448,5.649,5.6974,5.6974,5.6974,5.6939,5.6385,5.5402,5.4264,5.4264,5.4089,5.3885,5.4166,5.4294,5.4457,0.0,0.0,0.0,1.5287,1.5287,1.549,1.6103,1.6592,1.75,1.9217,2.0808,2.269,2.5115,2.703,2.8699,3.0122,3.1507,3.1937,3.1024,3.1944,3.2109,3.1249,3.1556,3.2716,3.4764,3.5661,3.7463,4.0198,4.0712,4.1178,4.1675,4.2591,4.2789,4.2315,4.2315,4.2054,4.1485,3.914,3.7631,3.6634,3.4762,3.3884,3.3417,0.0,0.0,0.0,0.0,0.0,0.0,0.0,0.0,0.0,0.0,0.0,0.0,0.0,0.0,0.0,0.0,0.0,0.0,0.0,0.0,0.0,0.0,0.0,0.0,0.0,0.0,0.0,0.0,0.0,0.0,0.0,0.0,0.0,0.0,4.563,4.6893,4.772,4.8696,4.9427,4.9666,4.9912,5.0627,5.1961,5.2039,5.26,5.39,5.4665,5.5086,5.5086,5.5851,5.6518,5.7017,5.7263,5.779,5.8562,5.8316,5.8605,5.9334,5.8808,5.8851,5.9334,5.9334,5.9334,5.9334,5.9334,5.8737,5.7719,5.6694,5.6272,5.6307,5.6588,5.6518,5.6307,0.0,0.0,1.5287,1.5287,1.5287,1.5523,1.6161,1.7384,1.869,2.0001,2.2385,2.4764,2.6896,2.8276,2.9763,3.1405,3.2064,3.1859,3.071,3.1877,3.2258,3.142,3.3334,3.4879,3.5857,3.7018,3.8949,4.166,4.17,4.241,4.3775,4.3783,4.3783,4.3775,4.3775,4.3743,4.3657,4.2252,4.087,3.9376,3.6603,3.59,3.6163,0.0,0.0,0.0,0.0,0.0,0.0,0.0,0.0,0.0,0.0,0.0,0.0,0.0,0.0,0.0,0.0,0.0,0.0,0.0,0.0,0.0,0.0,0.0,0.0,0.0,0.0,0.0,0.0,0.0,0.0,0.0,0.0,0.0,4.5466,4.6561,4.7825,4.8626,5.0037,5.1266,5.2018,5.2776,5.3556,5.4306,5.4377,5.4728,5.5535,5.628,5.6701,5.6701,5.7509,5.7922,5.7922,5.873,5.9475,6.0185,6.0949,6.1722,6.2405,6.2405,6.2405,6.2405,6.2405,6.2405,6.2405,6.2405,6.2405,6.2081,5.9124,5.7922,5.8028,5.8835,5.8624,5.807,1.5219,1.5287,1.5287,1.5287,1.5287,1.5838,1.7409,1.796,1.915,2.1774,2.3668,2.5514,2.7515,2.9571,3.1341,3.2693,3.3529,3.3744,3.3305,3.4674,3.5444,3.5196,3.6556,3.7484,3.7757,3.955,4.1336,4.312,4.3602,4.4329,4.5236,4.5719,4.5688,4.5205,4.5205,4.4929,4.4383,4.3499,4.2899,4.2267,3.8958,3.775,3.7686,0.0,0.0,0.0,0.0,0.0,0.0,0.0,0.0,0.0,0.0,0.0,0.0,0.0,0.0,0.0,0.0,0.0,0.0,0.0,0.0,0.0,0.0,0.0,0.0,0.0,0.0,0.0,0.0,0.0,0.0,0.0,4.7485,4.892,4.8499,4.9306,5.0213,5.0972,5.1961,5.2846,5.3604,5.3857,5.4559,5.5859,5.5964,5.6315,5.7115,5.8421,5.9132,5.9132,6.0431,6.1133,6.1133,6.1344,6.1554,6.1765,6.1976,6.2186,6.2405,6.2405,6.2405,6.2405,6.2405,6.2405,6.2405,6.2405,6.2405,6.2335,6.1449,6.1133,6.1168,6.1379,6.1344,6.1168,1.52,1.5287,1.5287,1.5287,1.5519,1.6161,1.7558,1.8458,1.9928,2.2546,2.4137,2.5978,2.8562,3.0341,3.2005,3.3709,3.4591,3.4997,3.4895,3.6503,3.7623,3.7987,3.9463,4.0253,4.0253,4.1999,4.3444,4.4573,4.5245,4.595,4.6708,4.7087,4.7056,4.6667,4.6667,4.6256,4.553,4.4857,4.4415,4.391,4.1604,4.0316,3.959,3.7796,3.6761,3.6128,3.5008,3.4673,3.4761,3.4581,0.0,0.0,0.0,0.0,0.0,0.0,0.0,0.0,0.0,0.0,0.0,0.0,0.0,0.0,0.0,0.0,0.0,0.0,0.0,0.0,0.0,0.0,0.0,0.0,4.9235,5.0662,5.0662,5.1084,5.1751,5.2825,5.3682,5.4454,5.5191,5.5578,5.6272,5.7501,5.7895,5.8421,5.9229,6.0396,6.1063,6.1063,6.1941,6.2405,6.2405,6.2713,6.2889,6.2897,6.324,6.3372,6.3372,6.3372,6.3372,6.3372,6.3372,6.3372,6.3372,6.3372,6.3372,6.3302,0.0,0.0,0.0,0.0,6.2818,6.3302,1.5117,1.523,1.5249,1.5276,1.5813,1.6451,1.7206,1.8898,2.0804,2.276,2.4211,2.6286,2.9544,3.0677,3.21,3.4359,3.5251,3.5816,3.6125,3.7783,3.9149,4.009,4.1845,4.2861,4.2924,4.418,4.5214,4.6035,4.6708,4.7403,4.813,4.813,4.8098,4.8004,4.8004,4.7624,4.6898,4.6288,4.5656,4.4993,4.432,4.316,4.1692,4.0364,3.9131,3.8001,3.7244,3.6953,3.6748,3.6013,0.0,0.0,0.0,0.0,0.0,0.0,0.0,0.0,0.0,0.0,0.0,0.0,0.0,0.0,0.0,0.0,0.0,0.0,0.0,0.0,0.0,0.0,0.0,0.0,5.0928,5.2193,5.2369,5.2404,5.2895,5.4271,5.5219,5.6062,5.6806,5.7579,5.8379,5.9186,5.9931,6.0677,6.1406,6.2116,0.0,0.0,0.0,6.2643,6.2643,6.338,6.3723,6.3731,6.4381,6.4689,6.4689,6.4689,6.4689,6.4689,6.4689,6.4689,6.4689,6.4689,6.4689,6.4548,6.3196,6.2643,6.2643,6.2643,6.3547,6.4619,1.4824,1.4902,1.4979,1.5238,1.5813,1.6596,1.7815,1.9188,2.0959,2.3397,2.5116,2.6904,2.8961,3.0721,3.2458,3.4223,3.5168,3.6557,3.8614,3.9669,4.0789,4.2063,4.3008,4.3746,4.4297,4.5151,4.6193,4.7498,4.8171,4.8825,4.9501,4.9501,4.9226,4.8709,4.8709,4.8329,4.7688,4.7561,4.7403,4.7214,4.6478,4.5033,4.3217,4.2395,4.1921,4.1597,4.087,4.0261,3.9803,3.985,3.9389,3.8807,3.9086,3.8414,0.0,0.0,0.0,0.0,0.0,0.0,0.0,0.0,0.0,0.0,0.0,0.0,0.0,0.0,0.0,0.0,0.0,0.0,0.0,5.0675,5.2066,5.3408,5.4658,5.4826,5.4931,5.5212,5.6518,5.7677,5.8449,5.9194,6.0001,6.0801,6.1554,6.2011,6.2186,6.2924,6.338,6.338,6.3925,6.4276,6.4276,6.4408,6.4487,6.4487,6.4619,0.0,6.4689,6.4689,6.4689,6.4689,6.4689,6.4689,6.4689,6.4689,6.4689,6.4654,6.4373,6.4276,6.4276,6.4276,6.4443,6.4689,1.4453,1.4824,1.5098,1.5257,1.6078,1.692,1.7616,1.9333,2.1244,2.3154,2.4691,2.6253,2.7997,2.9676,3.1193,3.2574,3.5178,3.7429,3.903,4.1038,4.2473,4.3186,4.4189,4.5065,4.5728,4.6478,4.7372,4.8392,4.9078,4.9574,4.9912,4.9912,4.9722,4.9394,4.9394,4.9015,4.8392,4.8392,4.8203,4.7877,4.7498,4.6749,4.5643,4.4252,4.3493,4.3154,4.2789,4.2433,4.2127,4.2075,4.1587,4.1068,4.14,4.0729,3.9805,0.0,0.0,0.0,0.0,0.0,0.0,0.0,0.0,0.0,0.0,0.0,0.0,0.0,0.0,4.712,4.7808,0.0,5.0994,5.2203,5.3483,5.4647,5.5524,5.6562,5.7255,5.7255,5.8246,5.9264,6.0064,6.0817,6.1414,6.1835,6.2573,6.2994,6.2994,6.3723,6.4136,6.4136,6.4513,6.4689,6.4689,6.4689,6.4689,6.4689,6.4689,6.4689,6.4689,6.4689,6.4689,6.4689,6.4689,6.4689,6.4689,6.4689,6.4943,6.5303,6.5303,6.5048,6.4689,6.4689,6.4689,6.4689,1.4058,1.4742,1.5212,1.5276,1.6364,1.7206,1.7206,1.9271,2.1273,2.2557,2.3833,2.5228,2.6852,2.8327,2.9729,3.1006,3.5087,3.7849,3.8407,4.1513,4.3372,4.3502,4.4746,4.5862,4.6771,4.753,4.8288,4.9078,4.9637,4.9912,4.9912,4.9912,4.9912,4.9912,4.9912,4.9606,4.9078,4.9078,4.8794,4.8288,4.8162,4.8098,4.7877,4.6044,4.4916,4.4292,4.4139,4.4036,4.385,4.3521,4.3136,4.2892,4.3289,4.2592,4.1626,4.1792,4.1726,0.0,0.0,0.0,0.0,0.0,0.0,0.0,0.0,4.5557,4.5787,4.6611,4.7776,4.8786,4.9305,5.089,5.2487,5.3537,5.4969,5.6014,5.6216,5.7848,5.9137,5.9416,5.9966,6.0633,6.1441,6.2186,6.2643,6.2643,6.338,6.3793,6.3793,6.4381,6.4689,6.4689,6.4689,6.4689,6.4689,6.4689,6.4689,6.4689,6.4689,6.4759,6.4943,6.4943,6.5013,6.5145,6.5145,6.5145,6.5145,6.5145,6.5549,6.6119,6.6119,6.5724,6.5145,6.5145,6.5145,6.5145,1.3753,1.4353,1.4952,1.5238,1.6364,1.7206,1.7206,1.8898,2.0669,2.1946,2.32,2.4405,2.5521,2.7361,2.9212,3.0945,3.4722,3.7032,3.7117,4.019,4.2238,4.2781,4.3649,4.4944,4.6762,4.753,4.8509,4.9785,4.9848,4.9912,4.9912,4.9912,4.9912,4.9912,4.9912,4.9848,4.9785,4.9785,4.9754,4.9627,4.9025,4.8772,4.8709,4.7846,4.7087,4.6392,4.5782,4.5142,4.4582,4.4531,4.4107,4.3711,4.4375,4.3566,4.252,4.3175,4.2877,4.2348,4.2189,4.3223,4.4497,4.5259,4.5483,4.6087,0.0,4.8622,4.8953,5.0098,5.0643,5.1162,5.1871,5.2932,5.3901,5.4397,5.6183,5.7604,5.7809,5.8626,5.964,6.0892,6.1125,6.1441,6.2186,6.2994,6.3451,6.3451,6.4171,6.4592,6.4592,6.4654,6.4689,6.4689,6.4689,6.4689,6.4689,6.4689,6.4689,6.4689,6.4689,6.5084,6.5777,6.5777,6.611,6.6733,6.6733,6.6733,6.6733,6.6733,6.6804,6.6883,6.6883,6.6804,6.6733,6.6733,6.6733,6.6733,1.3665,1.396,1.4459,1.5382,1.6445,1.7206,1.7206,1.8835,2.0412,2.1313,2.2521,2.3472,2.3907,2.5715,2.7687,2.9716,3.3178,3.5485,3.6002,3.9572,4.1813,4.2062,4.3151,4.4557,4.6193,4.6898,4.794,4.9331,4.969,4.9912,4.9912,4.9912,4.9912,4.9912,4.9912,4.9912,4.9912,4.9912,4.9912,4.9848,4.9173,4.9141,4.9353,4.8288,4.7719,4.734,4.6645,4.594,0.0,4.5331,4.488,4.4487,4.5391,4.5106,4.4502,4.5004,4.5131,4.5144,4.5575,4.5847,4.6253,4.7438,4.7736,4.8067,4.9417,4.9739,4.9874,5.0384,5.1271,5.2039,5.2328,5.3678,5.4966,5.5587,5.7063,5.8178,5.8436,5.934,6.0272,6.0973,6.1683,6.2377,6.3031,6.3793,6.4241,6.4241,6.4522,6.4689,6.4689,6.4689,6.4689,6.4689,6.4689,6.4689,6.4689,6.5162,6.5408,6.5408,6.5821,6.6207,6.6532,6.6532,6.6707,6.7014,6.7014,6.726,6.7716,6.7716,6.7971,6.8402,6.8402,6.8673,6.8875,6.7506,6.7014,6.7014,1.3732,1.3878,1.4346,1.5576,1.6617,1.7337,1.745,1.8806,2.0059,2.0669,2.1553,2.2314,2.283,2.4169,2.5778,2.7689,3.1011,3.3431,3.445,3.8097,4.0558,4.1304,4.2347,4.3724,4.5457,4.6162,4.7214,4.8614,4.929,4.9637,4.9637,4.9817,4.9912,4.9912,4.9912,4.9785,4.9637,4.9817,4.969,4.9343,4.9236,4.9268,4.9258,4.8478,4.794,4.7498,4.6771,4.6067,4.5498,4.5498,4.4979,4.4605,4.5891,4.5868,4.5494,4.6094,4.6576,4.7106,4.8067,4.7901,4.7802,4.9086,4.9417,4.9549,5.0079,5.051,5.0808,5.0808,5.1976,5.3024,5.3185,5.4535,5.582,5.6385,5.7681,5.864,5.8697,5.9814,6.0829,6.1349,6.204,6.2828,6.3572,6.4157,6.4524,6.468,6.455,6.4533,6.468,6.455,6.4638,6.5013,6.4866,6.4962,6.5321,6.5741,6.603,6.6224,6.6573,6.6958,6.7365,6.7787,6.7962,6.7997,6.8208,6.8489,6.884,6.9085,6.9516,7.0017,7.0017,7.0359,7.063,6.891,6.8313,6.8313,1.3964,1.4353,1.4862,1.5834,1.6812,1.764,1.8105,1.8724,1.9362,2.0025,2.017,2.0891,2.2691,2.2946,2.3519,2.4826,2.8158,3.0822,3.222,3.5082,3.7896,4.0521,4.0807,4.2102,4.469,4.5457,4.6509,4.794,4.8614,4.893,4.893,4.9606,4.9912,4.9912,4.9912,4.9542,4.8961,4.9637,4.9163,4.8067,4.9343,4.91,4.8035,4.8645,4.8013,4.674,4.6067,4.5372,4.474,4.474,4.4083,4.3615,4.5638,4.5352,4.4537,4.5889,4.656,4.7206,4.8655,4.9052,4.9218,4.9971,5.017,5.017,5.0203,5.1322,5.2325,5.2325,5.3458,5.4608,5.512,5.5887,5.6461,5.6416,5.8113,5.927,5.8764,5.9905,6.1259,6.2508,6.2282,6.2479,6.3672,6.3825,6.4084,6.4646,6.4164,6.4093,6.4663,6.4146,6.4468,6.5829,6.5304,6.5625,6.6909,6.6364,6.6398,6.697,6.6389,6.6835,6.8199,6.9717,7.0384,7.0419,7.1227,7.1121,7.049,7.1262,7.1613,7.1613,7.1613,7.1648,7.1648,7.1578,7.1578,7.1578,1.4521,1.4711,1.5107,1.6103,1.6781,1.7463,1.8281,1.8792,1.9188,1.942,1.9827,0.0,0.0,0.0,0.0,0.0,2.6876,2.8856,3.0007,3.3122,3.5883,3.7974,3.905,4.0403,4.2093,4.3702,4.4991,4.5916,4.7486,4.8225,4.8225,4.8478,4.8563,4.8563,4.8563,4.8446,4.8234,4.7972,4.7583,4.7182,4.7173,4.7173,4.7245,4.7972,4.7634,4.6771,0.0,4.5688,4.4708,4.4708,4.4646,4.4827,4.6198,4.6834,4.7192,4.7951,4.8597,4.9185,4.9715,5.0187,5.0726,5.1488,5.2,5.2199,5.1753,5.2373,5.2937,5.2491,5.3533,5.4564,5.4724,5.5788,5.6797,5.7244,5.8317,5.9211,5.9505,6.0397,6.1149,6.1591,6.1862,6.2175,6.2562,6.3339,6.3707,6.354,6.3679,6.3707,6.3531,6.4207,6.4597,6.4659,6.5805,6.6462,6.6473,6.7236,6.797,6.8667,6.9453,7.0046,7.056,7.1051,7.1297,7.1297,7.1578,7.1824,7.2044,7.2325,7.243,7.243,7.243,7.243,7.243,7.243,7.2781,7.3087,1.5085,1.5185,1.5505,1.651,1.7008,0.0,0.0,0.0,0.0,0.0,0.0,0.0,0.0,0.0,0.0,0.0,0.0,2.6932,2.8077,3.0951,3.348,3.5404,3.7043,3.8538,3.9812,4.137,4.2613,4.3507,4.5528,4.6605,4.6837,4.7571,4.7909,4.7909,4.7909,4.7751,4.7466,4.6992,4.6803,4.674,4.6067,4.6067,4.6455,4.6392,4.5792,0.0,4.5223,4.4591,4.3666,4.4162,4.4518,4.4901,4.594,4.7109,4.8226,4.891,4.9615,5.0311,5.0841,5.1512,5.2217,5.2979,5.3458,5.3689,5.3235,5.3689,5.4054,5.3632,5.4252,5.4972,5.5246,5.5852,5.6647,5.765,5.8413,5.9164,5.9893,6.0612,6.1169,6.1406,6.1567,6.1746,6.1987,6.2706,6.3087,6.2897,6.3289,6.3479,6.3288,6.4213,6.4737,6.4771,6.618,6.6967,6.7004,6.7973,6.8816,6.955,7.0998,7.1708,7.174,7.1963,7.1944,7.1785,7.2289,7.2771,7.3238,7.3528,7.3799,7.4045,7.4045,7.4045,7.4045,7.4045,7.4361,7.4607,1.5653,1.5748,1.6033,0.0,0.0,0.0,0.0,0.0,0.0,0.0,0.0,0.0,0.0,0.0,0.0,0.0,0.0,0.0,2.6476,2.8614,3.0759,3.2815,3.4759,3.6378,3.7715,3.8534,3.9543,4.0772,4.2812,4.4107,4.4713,4.662,4.7536,4.7555,4.7587,4.7208,4.6545,4.6513,4.6513,4.645,4.5746,4.5512,4.5403,4.4134,4.2815,4.17,4.2482,4.2292,4.185,4.3183,4.3729,4.4046,4.5217,4.6536,4.7832,4.8952,4.9781,5.0675,5.2117,5.3003,5.368,5.4376,5.4574,5.4541,5.4508,5.5071,5.5591,5.5558,5.5625,5.5899,5.659,5.6173,5.623,5.765,5.8479,5.9198,5.9893,6.0612,6.1314,6.1877,6.1435,6.1334,6.1964,6.2024,6.2263,6.2915,6.3047,6.3339,6.3918,6.4191,6.4893,6.6119,6.6432,6.721,6.8512,6.8642,6.9035,6.9688,7.1037,7.1776,7.1941,7.2564,7.2559,7.2116,7.3497,7.4115,7.4185,7.4862,7.56,7.6302,7.6302,7.6302,7.6302,7.6302,7.6302,7.6081,0.0,0.0,0.0,0.0,0.0,0.0,0.0,0.0,0.0,0.0,0.0,0.0,0.0,0.0,0.0,0.0,0.0,0.0,2.5881,2.7026,2.8429,3.0262,3.1834,3.2781,3.3029,3.566,3.716,3.749,3.9921,4.1172,4.1347,4.1836,4.2288,4.2703,4.3212,4.3288,4.3065,4.2592,4.2396,4.2259,4.1608,4.1587,4.1999,4.2703,4.2395,4.1755,4.3002,4.3011,4.2482,4.2821,4.419,4.6118,4.8553,4.9957,5.0803,5.1382,5.2042,5.2795,5.3723,5.4475,5.5071,5.526,5.5336,5.517,5.4641,5.5071,5.5426,5.4906,5.6074,5.7111,5.6756,5.7442,5.8171,5.8568,5.9231,5.9794,5.996,6.0612,6.1171,6.1314,6.1179,6.1391,6.2077,6.2164,6.2649,6.3853,6.3407,6.3223,6.3471,6.4982,6.5765,6.561,6.7701,6.8797,6.8638,6.9726,7.0322,7.0489,7.1422,7.2429,7.3511,7.3687,7.4282,7.5182,7.5554,7.5695,7.573,7.5916,7.6116,7.6302,7.6302,7.6302,7.6302,7.6302,7.6302,7.6232,0.0,0.0,0.0,0.0,0.0,0.0,0.0,0.0,0.0,0.0,0.0,0.0,0.0,0.0,0.0,0.0,0.0,0.0,0.0,2.5436,2.6377,2.7345,2.9237,3.0352,3.0557,3.2952,3.4619,3.5465,3.716,3.8435,3.9254,3.9556,3.9977,4.0583,4.093,4.1076,4.1019,4.038,4.0562,0.0,0.0,4.0022,4.1028,4.0893,4.0609,4.0356,4.113,4.177,4.2446,4.4039,4.527,4.6573,4.8975,5.037,5.1205,5.1766,5.2837,5.4045,5.4773,5.5502,5.6074,5.6074,5.6074,5.5909,5.5137,5.5293,5.5558,5.5478,5.5951,5.6614,5.7508,5.7816,5.8147,5.88,5.9529,6.0125,6.0446,6.0844,6.1208,6.156,6.1593,6.1858,6.2598,6.2973,6.3747,6.5149,6.4537,6.4291,6.4686,6.6135,6.6757,6.6386,6.8256,6.9245,6.9181,7.0259,7.095,7.1286,7.2042,7.2968,7.4102,7.4437,7.5029,7.5857,7.618,7.6468,7.6784,7.6784,7.6994,7.732,7.732,7.732,7.732,7.732,7.732,7.732,0.0,0.0,0.0,0.0,0.0,0.0,0.0,0.0,0.0,2.064,2.0378,2.0436,2.108,2.1656,0.0,0.0,0.0,0.0,0.0,0.0,2.4733,2.4673,2.6939,2.839,2.8834,3.0175,3.1742,3.3512,3.4297,3.5596,3.7316,3.794,3.8584,3.9199,3.9291,3.9321,3.9282,3.8709,3.9409,4.0729,3.8889,3.9175,4.0505,0.0,3.8223,3.8255,3.8539,3.9914,4.214,4.5768,4.6523,4.6289,4.8238,4.9632,5.0651,5.1355,5.3036,5.4806,5.5535,5.6216,5.669,5.669,5.6623,5.6382,5.5767,5.5591,5.5767,5.6282,5.5554,5.5535,5.8005,5.7584,5.7253,5.8545,5.9463,6.0258,6.1009,6.1175,6.1527,6.2277,6.2343,6.2675,6.3493,6.4155,6.5172,6.6673,6.6209,6.6077,6.6628,6.7357,6.7787,6.7887,6.8506,6.9214,6.9943,7.0511,7.117,7.1931,7.2576,7.3311,7.4139,7.4786,7.5159,7.5379,7.6126,7.6826,7.7411,7.7504,7.7977,7.8585,7.8585,7.8585,7.8585,7.8585,7.8585,7.8585,0.0,0.0,0.0,0.0,0.0,0.0,0.0,0.0,0.0,0.0,2.183,2.1104,0.0,0.0,0.0,0.0,0.0,0.0,0.0,0.0,0.0,2.4065,2.4982,2.5295,2.4913,2.6684,2.8006,2.8855,3.0571,3.1849,3.2672,3.3339,3.3951,3.4486,3.507,3.5286,3.5215,3.5158,3.5274,3.5475,3.4948,3.5207,3.5962,3.6544,0.0,0.0,3.8705,4.0293,4.214,4.5768,4.6888,4.7192,4.9944,5.1378,5.215,5.2837,5.4144,5.5568,5.6316,5.659,5.669,5.669,5.6249,5.5767,5.5625,5.5591,5.5459,5.4972,5.5653,5.6282,5.6197,5.6978,5.7684,5.7949,5.9131,6.0258,6.1009,6.1626,6.2266,6.3029,6.3095,6.3614,6.4929,6.5149,6.6088,6.8142,6.822,6.791,6.7423,6.8109,6.8783,6.9401,6.9545,6.9976,7.0693,7.0825,7.125,7.1981,7.2114,7.289,7.418,7.4309,7.5056,7.6234,7.6984,7.7359,7.7541,7.8143,7.8479,7.8585,7.8585,7.8585,7.8585,7.8585,7.8585,7.8585,0.0,0.0,0.0,0.0,0.0,0.0,0.0,2.2035,2.3206,2.5151,2.428,2.3496,2.3525,2.3206,2.2956,0.0,0.0,0.0,0.0,0.0,0.0,2.3386,2.3995,2.4349,2.4419,2.5645,2.6917,2.8209,0.0,2.9755,3.104,3.0988,3.1315,3.1903,3.255,3.2828,3.2826,3.3202,3.3516,3.3716,3.3643,3.4044,3.4758,3.5303,0.0,0.0,3.8737,4.0166,4.1592,4.4983,4.6457,4.7339,4.9906,5.1753,5.2904,5.287,5.4427,5.6249,5.659,5.6988,5.7187,5.6799,5.7011,5.6935,5.5369,5.5336,5.5393,5.4641,5.4494,5.4801,5.5951,5.6107,5.6339,5.7087,5.8479,5.9694,6.0413,6.1494,6.2476,6.3194,6.3625,6.4443,6.5845,6.633,6.7302,6.9147,6.928,6.9103,6.876,6.9069,6.9611,7.0361,7.0361,7.0726,7.1455,7.1455,7.1852,7.2581,7.2581,7.3331,7.4765,7.4765,7.5363,7.6439,7.6782,7.694,7.6963,7.7309,7.7661,7.8031,7.8031,7.8244,7.8585,7.8585,7.8585,7.8585,0.0,0.0,0.0,0.0,0.0,0.0,0.0,2.3777,2.5006,2.6952,2.6517,2.5878,2.5552,2.4681,2.3891,0.0,0.0,0.0,0.0,0.0,0.0,0.0,0.0,0.0,2.4465,0.0,0.0,2.7846,2.7622,0.0,0.0,0.0,0.0,0.0,3.0684,3.0959,3.1125,3.1655,3.2203,0.0,0.0,3.3314,3.4035,0.0,0.0,0.0,0.0,3.9748,4.0831,4.3834,4.5615,4.6935,4.8962,5.1252,5.3093,5.2714,5.4437,5.6524,5.6855,5.7253,5.7485,5.7253,5.7674,5.7598,5.527,5.5062,5.5071,5.4021,5.3169,5.3211,5.5166,5.509,5.5071,5.6051,5.774,5.9164,5.9893,6.1272,6.2542,6.3426,6.4188,6.516,6.6595,6.7258,6.823,6.9678,6.981,6.981,6.981,6.9931,7.0295,7.0891,7.1057,7.1488,7.2237,7.225,7.2614,7.3343,7.3343,7.3944,7.5061,7.5061,7.5366,7.5949,7.6114,7.6172,7.6184,7.6346,7.6748,7.7265,7.7265,7.7693,7.8374,7.8374,7.8459,7.8585,0.0,0.0,0.0,0.0,0.0,0.0,0.0,2.5562,2.6313,2.8259,2.7453,2.6887,2.7376,2.5859,2.4762,0.0,0.0,0.0,0.0,0.0,0.0,0.0,0.0,0.0,0.0,0.0,0.0,2.5172,2.6329,0.0,0.0,0.0,0.0,0.0,0.0,2.9261,2.9791,2.9842,0.0,0.0,0.0,0.0,0.0,0.0,0.0,0.0,0.0,3.9021,4.0016,4.2621,4.4354,4.5711,4.7254,4.9939,5.2581,5.3169,5.4442,5.5998,5.7342,5.7253,5.712,5.8369,5.73,5.5823,5.5568,5.5029,5.4021,5.2018,5.2515,5.2994,5.1994,5.3831,5.5336,5.4806,5.7068,5.9164,5.9893,6.1272,6.2708,6.4122,6.4895,6.5878,6.7357,6.7556,6.823,6.9678,6.981,6.981,6.981,7.044,7.0825,7.0891,7.1554,7.225,7.2999,7.2999,7.3376,7.4097,7.4097,7.4168,7.431,7.431,7.4347,7.4427,7.5122,7.539,7.5438,7.6137,7.645,7.6508,7.6508,7.6963,7.7584,7.7584,7.802,7.8585,0.0,0.0,0.0,0.0,0.0,0.0,2.546,2.5151,2.5616,2.8353,2.7591,2.7185,2.8187,2.6946,2.5552,2.4349,0.0,0.0,0.0,0.0,0.0,0.0,0.0,0.0,0.0,0.0,2.439,2.5394,2.5929,0.0,0.0,0.0,0.0,0.0,0.0,2.9392,2.9617,3.0016,0.0,0.0,0.0,0.0,0.0,0.0,0.0,0.0,0.0,0.0,3.9811,4.1869,4.3527,4.5113,4.7382,4.9025,5.0482,5.2263,5.4427,5.6481,5.7518,5.8237,5.8601,5.8303,5.7906,5.7134,5.5336,5.4707,5.4021,5.2325,5.206,5.2084,5.1994,5.2557,5.3202,5.3746,5.5951,5.7982,5.9164,6.1361,6.3227,6.4288,6.5392,6.6463,6.7489,6.7998,6.8705,6.9711,7.0196,7.0461,7.0461,7.0726,7.1322,7.2216,7.2515,7.3011,7.3753,7.3753,7.3931,7.4196,7.4196,7.4196,7.4196,7.4196,7.4196,7.4221,7.4502,7.4651,7.4664,7.4951,7.5352,7.5737,7.5737,7.6207,7.6895,7.7331,7.7984,7.8672,0.0,0.0,0.0,0.0,0.0,2.3281,2.5714,2.5326,2.5645,2.8078,2.7613,2.7468,2.8579,2.7569,2.6174,2.46,2.42,0.0,0.0,0.0,0.0,0.0,0.0,0.0,0.0,0.0,2.5006,2.611,2.6278,2.672,0.0,0.0,2.7999,2.8028,0.0,0.0,0.0,0.0,0.0,0.0,0.0,0.0,0.0,0.0,0.0,0.0,0.0,0.0,0.0,0.0,0.0,4.4116,4.6864,4.8107,4.9098,5.1887,5.3973,5.5672,5.6846,5.773,5.8326,5.8171,5.7551,5.6656,5.5412,5.4484,5.3533,5.2325,5.1994,5.1961,5.2069,5.2159,5.2515,5.3283,5.5454,5.7452,5.8734,6.1428,6.3658,6.4575,6.6154,6.7335,6.7854,6.8606,6.9247,6.9765,7.0461,7.0991,7.1223,7.1421,7.2051,7.3065,7.331,7.3687,7.4196,7.4196,7.4196,7.4196,7.4196,7.4196,7.4196,7.4196,7.4196,7.4196,7.4196,7.4196,7.4196,7.4196,7.4502,7.4975,7.4975,7.5414,7.6149,7.6896,7.7821,7.8718,0.0,0.0,0.0,0.0,0.0,0.0,2.6409,2.6778,2.7004,2.7637,2.7695,2.7941,2.8644,2.7569,2.6517,2.5849,2.494,0.0,0.0,0.0,0.0,0.0,0.0,0.0,0.0,0.0,2.611,2.6778,2.739,2.8028,2.8673,2.8702,2.8702,2.8702,0.0,0.0,0.0,0.0,0.0,0.0,0.0,0.0,0.0,0.0,0.0,0.0,0.0,0.0,0.0,0.0,0.0,0.0,0.0,4.7127,4.9153,5.2422,5.2937,5.2922,5.5038,5.5104,5.5237,5.8171,5.5663,5.322,5.6027,5.4479,5.2192,5.1463,5.2407,5.2961,5.1563,5.3036,5.4243,5.3524,5.5885,5.8048,5.881,6.1428,6.3813,6.5216,6.7347,6.8684,6.8684,6.9346,6.9777,6.981,7.0461,7.1223,7.1951,7.2668,7.3065,7.3098,7.3819,7.4196,7.4196,7.4196,7.4196,7.4196,7.4196,7.4196,7.4196,7.4196,7.4196,7.4196,7.4196,7.4196,7.4196,7.4196,7.4209,7.4209,7.4209,7.4664,7.5395,7.6124,7.7379,7.8779,0.0,0.0,0.0,0.0,0.0,0.0,0.0,2.4988,2.4511,2.5572,2.5765,2.6191,2.7272,2.6633,2.6023,2.5819,2.5115,0.0,0.0,0.0,0.0,0.0,0.0,0.0,0.0,0.0,2.68,2.7419,2.8071,2.8491,2.8702,2.9116,2.9312,2.9341,2.9798,3.0089,0.0,0.0,0.0,0.0,0.0,0.0,3.195,0.0,0.0,0.0,0.0,0.0,0.0,0.0,0.0,0.0,0.0,0.0,0.0,5.0994,5.2515,5.3325,5.4541,5.4674,5.4839,5.6296,5.4849,5.3261,5.3893,5.3185,5.2254,5.1753,5.2203,5.2581,5.2126,5.2623,5.3301,5.4045,5.5518,5.7482,6.0041,6.1814,6.3298,6.4564,6.6187,6.7811,6.9313,6.9678,6.981,6.981,7.0958,7.1753,7.1985,7.319,7.3852,7.3852,7.4064,7.4196,7.4196,7.4196,7.4196,7.4196,7.4196,7.4196,7.4196,7.4196,7.4196,7.4196,7.4196,7.4196,7.4196,7.4196,7.4196,7.4196,7.4196,7.436,7.4714,7.5949,7.7386,7.8809,0.0,0.0,0.0,0.0,0.0,0.0,0.0,2.4099,2.3833,2.4395,2.4913,2.5645,2.6691,2.6197,2.5847,2.5979,2.5183,0.0,0.0,0.0,0.0,0.0,0.0,0.0,2.6365,2.7025,2.771,2.842,2.9312,2.9762,2.9762,3.0407,3.0436,3.0009,3.0408,3.059,0.0,0.0,0.0,0.0,0.0,0.0,3.147,0.0,0.0,0.0,0.0,0.0,0.0,0.0,0.0,0.0,0.0,0.0,0.0,0.0,5.1276,5.2191,5.3214,5.3579,5.3881,5.457,5.3676,5.266,5.2936,5.2456,5.1909,5.1595,5.198,5.2347,5.2203,5.2482,5.3235,5.4674,5.59,5.7818,6.1055,6.2539,6.4056,6.6198,6.6706,6.7799,6.9997,6.9976,6.9909,7.0196,7.1322,7.2105,7.2415,7.3554,7.4196,7.4196,7.4196,7.4196,7.4196,7.4196,7.4196,7.4196,7.4196,7.4196,7.4196,7.4196,7.4196,7.4196,7.4196,7.4196,0.0,7.4196,7.4196,7.4196,7.4196,7.4362,7.4757,7.5936,7.7549,7.9199,0.0,0.0,0.0,0.0,0.0,0.0,0.0,2.3949,2.447,2.3891,2.489,2.5907,2.6523,2.6048,2.5844,2.6136,0.0,0.0,0.0,0.0,0.0,0.0,0.0,0.0,2.6557,2.7756,2.8812,2.9675,3.0959,3.1597,3.1663,3.2322,3.199,3.0881,3.0772,3.0677,0.0,0.0,0.0,0.0,0.0,0.0,0.0,0.0,0.0,0.0,0.0,0.0,0.0,0.0,0.0,0.0,0.0,0.0,0.0,0.0,0.0,0.0,0.0,5.1945,5.2374,5.3037,5.2257,5.1624,5.2859,5.2215,0.0,5.1132,5.1807,5.2275,5.1886,5.2706,5.3945,5.5435,5.6887,5.8872,6.1869,6.3493,6.5702,6.9247,6.8395,6.8384,7.0593,7.0196,7.0108,7.0825,7.1587,7.2316,7.3065,7.3786,7.4196,7.4196,7.4196,7.4196,7.4196,7.4196,7.4196,7.4196,7.4196,7.4196,7.4196,7.4196,7.4196,7.4196,7.4196,7.4196,7.4196,7.4196,7.4196,7.4209,7.4262,7.4693,7.5389,7.6125,7.7833,7.9891,0.0,0.0,0.0,0.0,0.0,0.0,0.0,0.0,0.0,0.0,2.3827,2.4396,2.4565,2.4664,2.4763,0.0,0.0,0.0,0.0,0.0,0.0,0.0,0.0,0.0,2.8281,2.8797,2.9489,3.0379,3.1634,3.2534,3.3022,3.3665,3.3773,3.3462,3.2476,3.1504,0.0,0.0,0.0,0.0,0.0,0.0,0.0,0.0,0.0,0.0,3.7102,3.8316,0.0,0.0,0.0,0.0,0.0,0.0,0.0,0.0,4.939,4.9805,5.0722,0.0,5.0549,5.1842,5.1702,5.136,0.0,5.1887,5.1936,5.1252,5.1807,5.2275,5.1886,5.3144,5.4707,5.6183,5.7513,5.9454,6.2601,6.3824,6.5337,6.7832,6.7324,6.7633,6.9831,6.9909,7.0108,7.0825,7.1587,7.2316,7.3065,7.3786,7.4196,7.4196,7.4196,7.4196,7.4196,7.4196,7.4196,7.4196,7.4196,7.4196,7.4196,7.4196,7.4196,7.4196,7.4196,7.4196,7.4196,7.4196,7.4196,7.4262,7.4826,7.5157,7.5455,7.6689,7.8257,7.9891,0.0,0.0,0.0,0.0,0.0,0.0,0.0,0.0,0.0,0.0,0.0,2.3961,0.0,0.0,0.0,0.0,0.0,0.0,0.0,0.0,0.0,0.0,0.0,2.8107,2.8886,2.9953,3.0656,3.1011,3.2898,3.3856,3.3914,3.4553,3.4553,3.3943,3.2613,3.1496,0.0,0.0,0.0,0.0,3.059,0.0,0.0,0.0,0.0,0.0,3.7473,3.8831,0.0,4.095,4.1901,4.2863,0.0,0.0,0.0,0.0,4.8806,4.9153,5.0563,5.0412,5.0102,5.1201,5.1503,5.1421,5.0934,5.1651,5.2035,5.0813,5.162,5.2569,5.2492,5.4061,5.5896,5.7449,5.8879,6.0881,6.3836,6.4608,6.5657,6.7844,6.7456,6.7733,6.9611,7.0108,7.0593,7.1355,7.2084,7.2846,7.3587,7.3997,7.4196,7.4196,7.4196,7.4196,7.4196,7.4196,7.4196,7.4196,7.4196,7.4196,7.4196,7.4196,7.4196,7.4196,7.4196,7.4196,7.4196,7.4196,7.4395,7.4726,7.5157,7.5675,7.637,7.7106,7.8404,7.9843,0.0,0.0,0.0,0.0,0.0,0.0,0.0,0.0,0.0,0.0,0.0,0.0,0.0,0.0,0.0,0.0,0.0,0.0,0.0,0.0,0.0,0.0,0.0,2.8892,2.9182,3.0911,3.1879,3.2098,3.4416,3.5404,3.5146,3.5607,3.5101,3.3736,3.2513,3.1547,3.0852,0.0,0.0,3.0735,3.0735,0.0,0.0,0.0,0.0,0.0,0.0,0.0,0.0,4.1373,4.2262,4.3211,4.4023,0.0,0.0,0.0,0.0,0.0,5.0449,5.0648,5.0404,5.1048,5.1578,5.1717,5.0893,5.1559,5.1986,5.0689,5.1762,5.315,5.3684,5.5436,5.7314,5.8977,6.0608,6.2508,6.4827,6.5281,6.612,6.8016,6.7951,6.8263,6.9512,7.0394,7.1223,7.1951,7.2668,7.3409,7.4163,7.4196,7.4196,7.4196,7.4196,7.4196,7.4196,7.4196,7.4196,7.4196,7.4196,7.4196,7.4196,7.4196,7.4196,7.4196,7.4196,7.4196,7.4196,7.4329,7.4726,7.5323,7.5542,7.6357,7.7404,7.7537,7.8461,7.9815,0.0,0.0,0.0,0.0,0.0,0.0,0.0,0.0,0.0,0.0,0.0,0.0,0.0,0.0,0.0,0.0,0.0,0.0,0.0,0.0,0.0,2.9223,2.9317,2.9727,3.0492,3.1039,3.2474,3.4802,3.5714,3.6954,3.8463,3.7999,3.6827,3.5072,3.4312,3.3309,3.2127,3.0953,3.0807,3.1365,3.1365,0.0,0.0,0.0,0.0,0.0,0.0,0.0,0.0,4.1141,4.1972,4.2652,4.3906,0.0,0.0,0.0,0.0,0.0,4.9431,5.044,5.1145,5.1573,5.2165,5.245,5.1778,5.1936,5.2312,5.2633,5.3269,5.4215,5.5718,5.7388,5.9003,6.0525,6.2027,6.3276,6.4038,6.4863,6.5588,6.6199,6.76,6.8617,6.8849,7.0108,7.1223,7.1951,7.2668,7.3409,7.4163,7.4196,7.4196,7.4196,7.4196,7.4196,7.4196,7.4196,7.4196,7.4196,7.4196,7.4196,7.4196,7.4196,7.4196,7.4196,7.4196,7.4196,7.4229,7.4859,7.519,7.5422,7.6622,7.7205,7.747,7.8086,7.8894,7.9892,0.0,0.0,0.0,0.0,0.0,0.0,0.0,0.0,0.0,0.0,0.0,0.0,0.0,0.0,0.0,0.0,0.0,0.0,0.0,0.0,0.0,2.9979,2.9825,3.023,3.138,3.1989,3.3445,3.5776,3.6487,3.7641,3.9189,3.8522,3.7012,3.4843,3.4536,3.3686,3.2468,3.1874,3.1584,3.1568,0.0,0.0,0.0,0.0,0.0,0.0,0.0,0.0,0.0,0.0,4.1267,4.1869,4.3474,0.0,0.0,0.0,0.0,0.0,4.8733,4.9595,5.0655,5.2181,5.3588,5.4598,5.4716,5.4988,5.5107,5.4741,5.528,5.6016,5.6625,5.8044,5.9812,6.1895,6.2922,6.3831,6.4928,6.5405,6.5967,6.6995,6.8035,6.8909,6.9415,7.0701,7.1786,7.2548,7.3276,7.3819,7.4163,7.4196,7.4196,7.4196,7.4196,7.4196,7.4196,7.4196,7.4196,7.4196,7.4196,7.4196,7.4196,7.4196,7.4196,7.4196,7.4196,7.4428,7.4826,7.5157,7.5741,7.649,7.7139,7.7636,7.8033,7.8398,7.8994,7.9824,0.0,0.0,0.0,0.0,0.0,0.0,0.0,0.0,0.0,0.0,0.0,0.0,0.0,0.0,0.0,0.0,0.0,0.0,0.0,0.0,2.8387,3.0405,3.0184,3.0772,3.2372,3.3049,3.4699,3.7278,3.7614,3.8164,3.8957,3.8754,3.7302,3.4847,3.4847,3.4217,3.3172,3.2853,3.2446,3.2048,0.0,0.0,0.0,0.0,0.0,0.0,0.0,0.0,0.0,0.0,0.0,0.0,0.0,0.0,0.0,4.5679,4.6942,4.8091,4.8345,4.9252,5.0729,5.3237,5.4729,5.5779,5.6698,5.7175,5.719,5.6422,5.7216,5.8033,5.8052,5.9532,6.13,6.3076,6.3506,6.4026,6.5267,6.5387,6.5822,6.7106,6.8007,6.8882,6.9764,7.1148,7.2316,7.3032,7.3786,7.4196,7.4196,7.4196,7.4196,7.4196,7.4196,7.4196,7.4196,7.4196,7.4196,7.4196,7.4196,7.4196,7.4196,7.4196,7.4196,7.4196,7.4395,7.4793,7.5323,7.5641,7.6424,7.7437,7.7603,7.8,7.8484,7.8484,7.8994,7.9709,0.0,0.0,0.0,0.0,0.0,0.0,0.0,0.0,0.0,0.0,0.0,0.0,0.0,0.0,0.0,0.0,0.0,0.0,0.0,0.0,2.9408,3.0456,3.0486,3.1524,3.3789,3.3974,3.6259,4.0826,3.9651,3.8783,3.8289,3.9421,3.8609,3.6161,3.6161,3.5802,3.5101,3.3939,3.3408,3.335,3.3466,0.0,0.0,0.0,0.0,0.0,0.0,0.0,0.0,0.0,0.0,0.0,0.0,0.0,4.4546,4.4773,4.6556,4.8448,4.8418,5.0165,5.2637,5.5234,5.4857,5.4258,5.5759,5.6207,5.6524,5.7248,5.8529,5.9933,6.1293,6.3402,6.4733,6.3985,6.3714,6.3553,6.3445,6.3763,6.414,6.4446,6.6607,6.8333,6.9006,7.0852,7.2316,7.3032,7.3786,7.4196,7.4196,7.4196,7.4196,7.4196,7.4196,7.4196,7.4196,7.4196,7.4196,7.4196,7.4196,7.4196,7.4196,7.4196,7.4196,7.4229,7.4925,7.5257,7.5389,7.6722,7.7305,7.747,7.8153,7.8451,7.8484,7.8484,7.8994,7.9709,0.0,0.0,0.0,0.0,0.0,0.0,0.0,0.0,0.0,0.0,0.0,0.0,0.0,0.0,0.0,0.0,0.0,0.0,0.0,2.8618,2.9181,3.1023,3.0748,3.1999,3.5062,3.4803,3.6527,4.0378,4.0383,3.9857,3.8841,3.9305,3.8609,3.6916,3.6916,3.6548,3.5918,3.5453,3.5026,3.4695,3.4695,3.4862,0.0,0.0,0.0,0.0,0.0,0.0,0.0,0.0,3.9932,3.984,4.119,4.2376,4.3363,4.3867,4.6433,4.9171,4.9414,5.1789,5.464,5.6212,5.6498,5.6927,5.8955,6.0021,6.0543,6.028,6.1002,6.1812,6.2165,6.3476,6.4486,6.4287,6.3746,6.35,6.3952,6.3704,6.3849,6.4932,6.6804,6.8356,6.9239,7.1019,7.2431,7.3167,7.3476,7.3795,7.4184,7.4196,7.4196,7.4196,7.4196,7.4196,7.4196,7.4196,7.4196,7.4196,7.4196,7.4196,7.4196,7.4196,7.4461,7.4892,7.519,7.5807,7.6655,7.7172,7.7669,7.81,7.8384,7.8484,7.8484,7.8484,7.8697,7.8929,0.0,0.0,0.0,0.0,0.0,0.0,0.0,0.0,0.0,0.0,0.0,0.0,0.0,0.0,0.0,0.0,0.0,0.0,2.9048,2.8577,2.9225,3.1311,3.1015,3.2183,3.5136,3.5407,3.6965,3.9944,4.0753,4.0461,3.9189,3.8976,3.8434,3.7583,3.738,3.7032,3.6635,3.6635,3.6257,3.5674,3.5479,3.5453,0.0,0.0,0.0,0.0,0.0,0.0,0.0,0.0,3.9248,3.9348,4.0658,4.1574,4.2407,4.3415,4.6481,4.964,5.0205,5.2773,5.5623,5.7034,5.7645,5.8484,6.0855,6.188,6.2293,6.2021,6.2669,6.3303,6.3311,6.4051,6.453,6.4222,6.3811,6.365,6.4043,6.3627,6.3912,6.5618,6.6998,6.8343,6.9721,7.1109,7.2306,7.3239,7.3129,7.3383,7.4158,7.4032,7.3986,7.4196,7.4196,7.4196,7.4196,7.4196,7.4196,7.4196,7.4196,7.4196,7.4196,7.4428,7.4826,7.5323,7.5774,7.6523,7.7437,7.7669,7.802,7.8484,7.8484,7.8484,7.8484,7.8484,7.8484,7.8484,0.0,0.0,0.0,0.0,0.0,0.0,0.0,0.0,0.0,0.0,0.0,0.0,0.0,0.0,0.0,0.0,0.0,0.0,2.9108,2.9108,2.9708,3.1141,3.1211,3.2031,3.3834,3.5669,3.7705,4.0008,4.0798,4.0504,3.9189,3.8522,3.8202,3.8173,3.7554,3.7322,3.7322,3.7322,3.6925,3.6248,3.5645,3.5421,3.536,0.0,0.0,0.0,0.0,0.0,0.0,0.0,3.887,3.8813,4.061,4.1374,4.19,4.3518,4.6651,4.9782,5.0703,5.2839,5.543,5.7904,5.8065,5.8249,6.058,6.0697,6.0686,6.1902,6.3268,6.4432,6.5175,6.5692,6.5439,6.3804,6.3894,6.3972,6.3304,6.3394,6.4197,6.6071,6.6946,6.8252,7.0409,7.1096,7.1909,7.3201,7.2794,7.2979,7.4133,7.3628,7.3589,7.4184,7.4196,7.4196,7.4196,7.4196,7.4196,7.4196,7.4209,7.4196,7.4229,7.4958,7.5323,7.5389,7.6775,7.7404,7.747,7.8186,7.8484,7.8484,7.8484,7.8484,7.8484,7.8484,7.8484,7.8484,0.0,0.0,0.0,0.0,0.0,0.0,0.0,0.0,0.0,0.0,0.0,0.0,0.0,0.0,0.0,0.0,0.0,0.0,2.9048,2.8838,2.9227,3.0433,3.0964,3.1763,3.2943,3.4705,3.7044,3.9989,4.0291,3.975,3.8492,3.8783,3.8434,3.7583,3.7816,3.7941,3.7941,3.7941,3.7825,3.7535,3.646,3.6113,3.612,0.0,0.0,0.0,0.0,0.0,0.0,0.0,0.0,0.0,3.9379,4.0315,4.1445,4.3648,4.6842,5.0246,5.2919,5.6103,5.869,5.8815,5.9817,6.0729,6.0578,6.1623,6.3054,6.4609,6.5239,6.5534,6.5517,6.5502,6.5385,6.502,6.4273,6.3644,6.3422,6.3874,6.4595,6.5681,6.7615,6.9162,6.9904,7.0936,7.1695,7.2095,7.1947,7.235,7.3512,7.3409,7.3589,7.4184,7.4196,7.4196,7.4196,7.4196,7.4196,7.4209,7.4726,7.4958,7.4991,7.519,7.584,7.6788,7.7205,7.7702,7.8199,7.8431,7.8484,7.8484,7.8484,7.8484,7.8484,7.8484,7.8484,7.8484,0.0,0.0,0.0,0.0,0.0,0.0,0.0,0.0,2.3967,2.4792,2.5408,2.6207,0.0,0.0,0.0,2.882,2.8559,2.8577,2.9079,2.8873,2.9175,3.016,3.0597,3.1399,3.2644,3.4065,3.6018,3.8535,3.8847,3.8841,3.8609,3.8725,3.8551,3.8048,3.8173,3.8202,3.8202,3.8202,3.8202,3.8115,3.709,3.6655,3.6512,0.0,0.0,0.0,0.0,0.0,0.0,0.0,0.0,0.0,3.8952,4.0077,4.1643,4.4717,4.7794,5.1047,5.4609,5.7839,6.0137,5.9877,6.0796,6.1737,6.1878,6.294,6.4247,6.5263,6.5906,6.6057,6.5293,6.5529,6.5676,6.5228,6.445,6.407,6.4539,6.4799,6.5462,6.6938,6.8558,6.9745,7.0117,7.082,7.1378,7.158,7.1593,7.2095,7.3233,7.3285,7.3589,7.4184,7.4196,7.4196,7.4196,7.4196,7.4329,7.4627,7.5091,7.5575,7.6125,7.6125,7.6589,7.7437,7.7702,7.81,7.8484,7.8484,7.8484,7.8484,7.8484,7.8484,7.8484,7.8484,7.8484,7.8484,0.0,0.0,0.0,0.0,0.0,0.0,0.0,2.4513,2.5316,2.6237,2.6436,2.6841,0.0,0.0,0.0,2.8541,2.8885,2.9108,2.9108,2.9108,2.941,3.0066,3.0125,3.0896,3.2544,3.3581,3.4737,3.6029,3.6988,3.7987,3.9015,3.8522,3.8551,3.9015,3.8463,3.8202,3.8202,3.8202,3.8202,3.8144,3.7467,3.6966,3.655,3.5982,0.0,0.0,0.0,0.0,0.0,0.0,0.0,0.0,3.8929,4.0218,4.2074,4.6109,4.9034,5.1825,5.5714,5.8346,6.0145,6.077,6.1034,6.1653,6.3748,6.4424,6.4658,6.4836,6.5727,6.6175,6.4993,6.5783,6.613,6.474,6.455,6.497,6.5995,6.593,6.6688,6.9063,6.9604,7.0044,7.074,7.0803,7.0995,7.147,7.1511,7.2001,7.3077,7.3142,7.346,7.4108,7.412,7.4179,7.4296,7.4296,7.466,7.5389,7.5443,7.6171,7.7404,7.7404,7.7437,7.7537,7.8199,7.8484,7.8484,7.8484,7.8484,7.8484,7.8484,7.8484,7.8484,7.8484,7.8484,7.8484,0.0,0.0,0.0,0.0,0.0,0.0,2.399,2.4861,2.5677,2.591,2.667,2.7366,2.7855,2.8271,0.0,2.8937,2.9062,2.9108,2.9108,2.9108,2.9171,2.9341,2.9529,3.0098,3.1039,3.2548,3.3499,3.3878,3.7072,3.8328,3.7738,3.857,3.8522,3.7728,3.8048,3.8202,3.8202,3.8202,3.8202,3.8115,3.6974,3.6539,3.6465,3.5192,3.4769,0.0,0.0,0.0,0.0,0.0,0.0,0.0,3.7713,3.9086,4.1195,4.5273,4.8172,5.1003,5.5199,5.8119,5.9945,5.9753,6.0527,6.1763,6.3297,6.4539,6.578,6.7257,6.6628,6.603,6.6807,6.6744,6.613,6.474,6.4974,6.5247,6.4925,6.6209,6.7587,6.8708,6.986,7.0627,7.0771,7.0803,7.0859,7.0953,7.0967,7.1254,7.1933,7.1974,7.2443,7.3473,7.3499,7.4014,7.5058,7.5058,7.5409,7.6092,7.6689,7.7106,7.7404,7.7404,7.7735,7.8252,7.8418,7.8484,7.8484,7.8484,7.8484,7.8484,7.8484,7.8484,7.8484,7.8484,7.8484,7.8484,0.0,0.0,0.0,0.0,0.0,0.0,0.0,0.0,2.6052,2.6736,2.7283,2.7836,2.8409,2.8648,0.0,0.0,2.9108,2.9108,2.9108,2.9108,2.9108,2.9108,2.937,2.9576,2.9775,3.1601,3.2638,3.2856,3.6039,3.7496,3.7322,3.8289,3.8376,3.7757,3.8405,3.8492,3.8202,3.8202,3.8202,3.8154,3.7568,3.7222,3.6953,3.6289,3.5963,3.5836,3.561,0.0,0.0,0.0,0.0,0.0,0.0,0.0,4.0917,4.4268,4.7007,5.004,5.4811,5.7612,5.9442,6.0534,6.1833,6.2983,6.3406,6.4589,6.6058,6.7665,6.7525,6.7199,6.7547,6.7597,6.7155,6.5719,6.6093,6.6409,6.6048,6.7218,6.8513,6.957,7.036,7.0803,7.0803,7.0803,7.0803,7.0803,7.1037,7.131,7.158,7.2122,7.2682,7.3272,7.3918,7.4597,7.529,7.5608,7.6125,7.6841,7.7205,7.757,7.7934,7.7934,7.8133,7.8484,7.8484,7.8484,7.8484,7.8484,7.8484,7.8484,7.8484,7.8484,7.8484,7.8484,7.8484,7.8484,0.0,0.0,0.0,0.0,0.0,0.0,0.0,0.0,0.0,2.7652,2.7911,2.8271,2.8914,2.9074,2.9108,0.0,0.0,0.0,2.9108,2.9108,2.9108,2.9108,2.9251,2.9137,2.8753,3.072,3.1901,3.2177,3.4726,3.6367,3.7148,3.7845,3.8202,3.8231,3.8783,3.8725,3.8202,3.8202,3.8202,3.8212,3.8283,3.795,3.7483,3.7518,3.7237,3.6805,3.672,3.6318,3.588,3.638,0.0,0.0,0.0,0.0,4.0686,4.327,4.5809,4.8872,5.3965,5.6866,5.9108,6.1726,6.3369,6.4152,6.347,6.4684,6.6233,6.7231,6.8116,6.8559,6.8039,6.8464,6.8355,6.687,6.7281,6.7755,6.761,6.8337,6.9349,7.0645,7.0803,7.0803,7.0803,7.0803,7.0803,7.0803,7.1199,7.1443,7.1443,7.235,7.3011,7.3338,7.4431,7.5229,7.5641,7.6225,7.6874,7.7603,7.7603,7.7901,7.8484,7.8484,7.8484,7.8484,7.8484,7.8484,7.8484,7.8484,7.8484,7.8484,7.8484,7.8484,7.8484,7.8484,7.8484,7.8484,0.0,0.0,0.0,0.0,0.0,0.0,0.0,0.0,0.0,0.0,2.8009,2.8457,2.8559,2.8891,2.9108,2.9108,2.9108,2.9108,2.9108,0.0,0.0,2.9108,2.8814,2.8436,2.805,3.0193,3.1154,3.0844,3.3977,3.5822,3.6452,3.7651,3.8202,3.8202,3.8289,3.828,3.8202,3.8202,3.8202,3.8173,3.7649,3.7417,3.7272,3.6718,3.6445,3.6387,3.6378,3.6302,3.6235,3.6322,3.672,0.0,0.0,0.0,3.9866,4.2555,4.4785,4.7295,5.1461,5.5817,5.9685,6.1852,6.3034,6.3426,6.2718,6.5037,6.7231,6.6807,6.7787,6.8843,6.9317,6.9507,6.8906,6.6933,6.7692,6.8337,6.7692,6.8748,6.9855,7.0708,7.0803,7.0803,7.0803,7.0803,7.0803,7.0803,7.0887,7.0897,7.0897,7.105,7.189,7.3509,7.3714,7.4888,7.7106,7.7205,7.7636,7.8351,7.8351,7.8384,7.8484,7.8484,7.8484,7.8484,7.8484,7.8484,7.8484,7.8484,7.8484,7.8484,7.8484,7.8484,7.8484,7.8484,7.8484,7.8484,0.0,0.0,0.0,0.0,0.0,0.0,0.0,0.0,0.0,0.0,0.0,2.8045,2.8451,2.8673,2.885,2.9091,2.9108,2.9108,2.9108,2.9108,2.9108,2.9108,2.8726,2.8319,2.7904,2.9374,3.0094,3.0045,3.2914,3.4997,3.6344,3.7612,3.8202,3.8202,3.8202,3.8405,3.8754,3.8754,3.916,3.9818,3.9789,4.0548,4.1588,4.0372,4.0517,4.1242,4.0003,3.9373,3.9042,3.8201,3.8115,3.8231,3.7535,0.0,0.0,0.0,4.2593,4.5249,5.1549,5.6228,5.9902,6.2378,6.3268,6.3406,6.3078,6.4829,6.6504,6.6586,6.8008,6.9475,7.0185,7.0329,6.976,6.8039,6.897,6.9475,6.8355,6.9746,7.0852,7.0803,7.1136,7.12,7.0834,7.0803,7.0803,7.0803,7.0803,7.0803,7.0803,7.1427,7.2348,7.3517,7.4648,7.5933,7.7391,7.7802,7.8186,7.8484,7.8484,7.8484,7.8484,7.8484,7.8484,7.8484,7.8484,7.8484,7.8484,7.8484,7.8484,7.8484,7.8484,7.8484,7.8484,7.8484,7.8484,7.8484,0.0,0.0,0.0,0.0,0.0,0.0,0.0,0.0,0.0,0.0,0.0,2.7891,2.8433,0.0,0.0,0.0,2.9108,2.9108,2.9108,2.9108,2.9036,2.8943,2.8648,2.8277,2.7786,2.8939,2.9622,2.9856,3.247,3.4698,3.6568,3.767,3.8289,3.8463,3.8463,3.8725,3.9218,3.9354,4.0089,4.1175,4.2044,4.3398,4.4787,4.3947,4.4397,4.5298,4.348,4.2476,4.185,4.0429,3.9712,3.9247,3.8144,3.7961,0.0,0.0,0.0,4.4358,5.1255,5.5503,5.869,6.1664,6.2827,6.3204,6.3204,6.4576,6.5935,6.6283,6.799,6.9665,7.0392,7.0676,7.0392,6.9159,7.0139,7.0582,6.9159,7.0599,7.1533,7.0866,7.1231,7.1358,7.0834,7.0803,7.0803,7.0803,7.0803,7.0866,7.1056,7.1893,7.2893,7.4003,7.5492,7.6749,7.7656,7.8219,7.8484,7.8484,7.8484,7.8484,7.8484,7.8484,7.8484,7.8484,7.8484,7.8484,7.8484,7.8484,7.8484,7.8484,7.8484,7.8484,7.8484,7.8285,7.8232,7.8186,0.0,0.0,0.0,0.0,0.0,0.0,0.0,0.0,0.0,0.0,0.0,2.8451,2.8493,2.8844,2.9091,2.9108,2.9108,2.9108,2.9108,2.9108,2.8926,2.8541,2.8505,0.0,2.7431,2.9208,3.0277,3.0561,3.3093,3.5349,3.7264,3.7912,3.8551,3.916,3.916,3.916,3.9247,3.9799,4.0476,4.1281,4.3405,4.4192,4.4192,4.5581,4.6023,4.5781,4.5028,4.4367,4.3681,4.2382,4.1105,3.9944,3.9305,3.8696,3.8347,0.0,0.0,0.0,4.9276,5.2238,5.5185,5.8575,6.0963,6.2453,6.2453,6.4582,6.6365,6.579,6.7294,6.897,6.9633,7.0329,7.055,6.976,7.082,7.1249,6.9855,7.0884,7.1533,7.0866,7.0834,7.0834,7.0803,7.0803,7.0803,7.0803,7.0803,7.1087,7.1723,7.1814,7.2998,7.5506,7.5673,7.6629,7.8451,7.8484,7.8484,7.8484,7.8484,7.8484,7.8484,7.8484,7.8484,7.8484,7.8484,7.8484,7.8484,7.8484,7.8484,7.8484,7.8484,7.8484,7.8418,7.7735,7.747,7.7371,0.0,0.0,0.0,0.0,0.0,0.0,0.0,0.0,0.0,0.0,0.0,0.0,0.0,2.81,2.8433,2.8703,2.8943,2.9108,2.9108,2.9108,2.8914,2.8511,2.8493,2.8137,2.7406,2.8845,2.974,2.9951,3.2119,3.4196,3.6101,3.7137,3.7961,3.858,3.9015,3.9421,3.9799,4.0002,4.1202,4.3111,4.4872,4.6707,4.8442,4.8647,4.941,5.0111,4.8546,4.7561,4.6812,4.5564,4.4258,4.3003,4.1957,4.0612,3.9392,3.9247,4.1102,4.3988,4.7751,5.011,5.2597,5.7321,5.9421,6.0715,6.2033,6.3525,6.4924,6.603,6.6839,6.7692,6.8843,7.0013,7.0708,7.0469,7.0834,7.0992,7.0487,7.12,7.1533,7.0866,7.1182,7.1263,7.0834,7.0803,7.0803,7.0803,7.12,7.1533,7.1786,7.2639,7.3926,7.5636,7.6131,7.7045,7.8484,7.8484,7.8484,7.8484,7.8484,7.8484,7.8484,7.8484,7.8484,7.8484,7.8484,7.8484,7.8484,7.8484,7.8484,7.8451,7.8,7.7802,7.7702,7.6974,7.6675,7.6675,0.0,0.0,0.0,2.6807,0.0,2.6807,2.6807,2.6807,2.6865,2.7084,0.0,0.0,0.0,0.0,2.8631,2.881,2.9012,2.9056,2.8908,2.8897,2.8679,2.8162,2.824,2.7941,2.7201,2.8369,2.9276,2.9951,3.1423,3.3383,3.5732,3.6809,3.7612,3.8231,3.8899,3.9538,4.0118,4.0583,4.2015,4.4186,4.6351,4.8282,4.9917,5.05,5.1442,5.222,5.0837,5.0191,4.9773,4.8263,4.7201,4.6167,4.4262,4.2335,4.0728,4.0525,4.1395,4.3187,4.6698,4.8472,5.037,5.4889,5.7099,5.8671,6.0804,6.2214,6.3639,6.5509,6.6257,6.6902,6.7818,6.9159,7.0171,7.0392,7.0834,7.1056,7.0834,7.1389,7.1533,7.0866,7.12,7.1294,7.0834,7.0803,7.0803,7.0803,7.1421,7.1912,7.2133,7.3254,7.4563,7.5978,7.6655,7.7499,7.8484,7.8296,7.8296,7.8484,7.8484,7.8484,7.8484,7.8484,7.8484,7.8484,7.8484,7.8484,7.8484,7.8219,7.8119,7.8067,7.7338,7.704,7.694,7.6225,7.596,7.5927,2.6807,2.6807,2.6807,2.6807,2.6807,2.6836,2.6836,2.6836,2.7062,2.7637,0.0,0.0,0.0,0.0,0.0,2.9521,2.9278,2.8953,2.853,2.8506,2.8174,2.7418,2.7711,2.7555,2.6827,2.7794,2.9084,3.059,3.1228,3.3135,3.6248,3.6945,3.7583,3.8164,3.886,3.9509,4.0176,4.1512,4.2828,4.4302,4.7776,4.8635,4.8148,5.0982,5.1887,5.1688,5.1717,5.2107,5.2365,5.0477,4.978,4.917,4.5935,4.367,4.2295,4.2828,4.2963,4.3525,0.0,0.0,0.0,5.1197,5.3916,5.6524,5.8696,6.0768,6.2657,6.4169,6.5567,6.6546,6.6573,6.7692,6.8843,6.9507,7.082,7.1502,7.0866,7.1358,7.1547,7.0866,7.0803,7.0803,7.0803,7.0803,7.0803,7.0834,7.1452,7.2133,7.2811,7.3553,7.4771,7.6619,7.7232,7.7823,7.8424,7.785,7.7831,7.8418,7.8418,7.8418,7.8418,7.8418,7.8418,7.8418,7.8418,7.8418,7.8398,7.7702,7.7404,7.7305,7.6543,7.6278,7.6192,7.5509,7.5257,7.5157,2.6691,2.6807,2.6807,2.6807,2.7171,2.7441,2.7441,2.7868,2.823,0.0,0.0,0.0,2.8841,2.9237,2.9549,2.9766,2.9719,2.9422,2.882,2.8783,2.838,2.7442,2.7711,2.7555,2.6827,2.8259,2.9548,3.059,3.17,3.3135,3.4942,3.6045,3.6655,3.6858,3.799,3.9073,4.0157,4.1018,4.2382,4.4262,4.7044,4.8574,4.9461,5.208,5.335,5.3749,5.4184,5.4184,5.3907,5.3342,5.1946,4.9867,4.6644,4.4919,4.3903,4.2712,4.2364,4.2789,4.489,0.0,0.0,0.0,0.0,0.0,5.6417,5.8754,6.1151,6.3204,6.4288,6.5058,6.5767,6.6586,6.7249,6.7439,6.9064,7.0234,7.0013,7.0613,7.1024,7.0803,7.0803,7.0803,7.0803,7.0803,7.0992,7.1484,7.2133,7.2843,7.357,7.4658,7.551,7.6034,7.6176,7.6481,7.7054,7.6413,7.6365,7.6907,7.6907,7.6907,7.6907,7.6907,7.6907,7.6907,7.6907,7.6907,7.694,7.7272,7.7106,7.6543,7.584,7.5575,7.5476,7.476,7.4494,7.4494,2.672,2.7004,2.7164,2.7164,2.7687,2.8122,2.8122,2.8652,2.9181,0.0,0.0,0.0,3.0248,3.0382,3.0549,3.0812,3.0503,3.0038,2.9469,2.9222,2.872,2.7974,2.8119,2.8027,2.7605,2.8559,2.9687,3.0982,3.1721,3.2874,3.442,3.5697,3.6306,3.6364,3.7912,3.9334,4.0583,4.1802,4.2974,4.428,4.7346,4.8856,4.9582,5.2414,5.3749,5.4155,5.4793,5.5142,5.5258,5.4967,5.3181,5.0755,4.8856,4.7085,4.5488,4.4374,4.3689,4.3631,4.5256,4.5779,4.6487,4.888,0.0,0.0,5.5738,5.7536,5.959,6.2955,6.3973,6.4266,6.4417,6.5637,6.6454,6.6063,6.7589,6.9033,6.9602,7.0076,7.0455,7.074,7.0803,7.0803,7.0803,7.0803,7.0961,7.1358,7.2007,7.2671,7.3412,7.4371,7.4939,7.4939,7.4877,7.5238,7.6056,7.5448,7.5501,7.6311,7.6311,7.6311,7.6311,7.6311,7.6311,7.6311,7.6311,7.6159,7.5927,7.6357,7.6258,7.5794,7.5124,7.4826,7.4793,7.4362,7.4196,7.4229,0.0,2.7281,2.7695,2.7695,2.8419,2.8985,2.8934,2.9602,3.0328,0.0,3.1438,3.2061,3.2642,3.25,3.2371,3.2371,3.1594,3.0932,3.0576,3.0,2.9425,2.8919,2.8905,2.8847,2.8702,2.8753,2.9704,3.151,3.156,3.2584,3.442,3.5697,3.6306,3.6393,3.8347,3.9915,4.1221,4.309,4.4048,4.4618,4.8263,4.9383,4.9267,5.2414,5.3691,5.3923,5.4561,5.5548,5.639,5.5649,5.3952,5.2094,5.1804,4.9744,4.7381,4.7091,4.6145,4.5442,4.6511,4.6348,4.6208,4.7474,4.8706,0.0,5.5324,5.6359,5.7642,6.2292,6.3427,6.3349,6.2632,6.4278,6.5566,6.4915,6.6049,6.7566,6.9114,6.9475,6.9791,7.0374,7.0518,7.0582,7.0676,7.0676,7.0708,7.0803,7.1421,7.2102,7.2748,7.3295,7.3593,7.3593,7.3529,7.407,7.5256,7.4659,7.4937,7.6059,7.6059,7.6059,7.6059,7.6059,7.6059,7.6059,7.6059,7.5728,7.519,7.519,7.519,7.5124,7.4461,7.4196,7.4196,7.4296,7.4329,7.4428,2.6807,2.7281,2.7695,2.7695,2.9501,3.08,3.03,3.2077,3.3354,3.2972,3.347,3.3889,3.4005,3.3993,3.3947,3.3947,3.3362,3.2956,3.2876,3.2232,3.1378,3.0278,3.0241,2.9748,2.8731,2.9174,3.0117,3.151,3.2024,3.3019,3.442,3.5697,3.6306,3.6393,3.8347,3.9915,4.1192,4.2596,4.4385,4.6453,4.8781,4.9942,5.061,5.3297,5.4938,5.5896,5.6535,5.6912,5.6955,5.578,5.5432,5.5126,5.3049,5.1975,5.1046,4.896,4.7811,4.7184,4.6888,4.6348,4.6208,4.7474,4.8333,0.0,5.082,5.2322,5.4172,5.6885,5.825,5.9315,6.0354,6.0508,6.0937,6.232,6.2999,6.4254,6.6854,6.8166,6.8748,6.8274,6.8748,6.9317,6.9855,6.9918,7.0171,7.074,7.1421,7.2102,7.2748,7.2927,7.2984,7.2984,7.2446,7.2738,7.3888,7.3242,7.3482,7.4627,7.4627,7.4627,7.4627,7.4627,7.4627,7.4627,7.4627,7.4528,7.4395,7.4395,7.4395,7.4395,7.4262,7.4196,7.4262,7.4859,7.5091,7.519,2.7194,2.7774,2.85,2.9443,3.0922,3.2119,3.2433,3.3856,3.4794,3.4491,3.527,3.5958,3.6248,3.6306,3.6306,3.6306,3.6034,3.5723,3.5395,3.5096,3.4188,3.2579,3.2491,3.1911,3.0626,3.0553,3.1191,3.2491,3.2505,3.3317,3.493,3.5851,3.7322,3.9218,3.9857,4.157,4.3997,4.4966,4.6301,4.7932,4.986,5.1236,5.2368,5.4923,5.6273,5.6897,5.7187,5.7303,5.7216,5.6578,5.5968,5.5345,5.4691,5.3384,5.1904,5.0917,4.9756,4.8537,4.7567,4.6812,4.6592,4.7561,4.7782,0.0,0.0,5.1499,5.2371,5.4836,5.6359,5.7345,5.7632,5.8448,5.9331,6.0172,6.1733,6.2962,6.3282,6.6094,6.8134,6.8134,6.8482,6.8843,6.9159,6.9191,6.9475,7.0202,7.0582,7.1042,7.1768,7.1452,7.1421,7.1783,7.1484,7.1698,7.2529,7.2523,7.2913,7.3756,7.407,7.4196,7.4196,7.4196,7.4196,7.4196,7.4196,7.4196,7.4229,7.4594,7.476,7.476,7.476,7.476,7.4826,7.5542,7.5807,7.5894,2.7644,2.8318,2.9385,3.1024,3.209,3.3085,3.4217,3.5288,3.6022,3.6255,3.7311,3.8231,3.8696,3.887,3.9015,3.9102,3.9015,3.8783,3.8434,3.828,3.7467,3.5755,3.5465,3.4681,3.3251,3.2592,3.2716,3.3669,3.3267,3.3914,3.5587,3.6315,3.8347,4.1366,4.1686,4.3417,4.6162,4.7561,4.8508,4.925,5.1182,5.282,5.43,5.6477,5.7536,5.7855,5.7739,5.7681,5.7681,5.7681,5.668,5.5577,5.6477,5.5055,5.3052,5.2991,5.1846,5.0266,4.8595,4.7683,4.7265,4.7677,4.7375,4.7911,0.0,0.0,0.0,5.3372,5.4607,5.5089,5.4605,5.6126,5.745,5.7333,5.9838,6.1116,5.9275,6.3026,6.6385,6.7526,6.8148,6.8482,6.8482,6.8988,6.9367,6.9507,6.9981,7.0455,7.0771,7.0234,7.0171,7.0771,7.0803,7.1064,7.1593,7.2195,7.2768,7.3298,7.3897,7.4196,7.4196,7.4196,7.4196,7.4196,7.4196,7.4262,7.4461,7.5058,7.5389,7.5476,7.5476,7.5476,7.5575,7.6258,7.651,7.6609,2.7782,2.866,2.974,3.0554,3.2188,3.3611,3.4304,3.6364,3.8289,3.9431,4.0205,4.0699,4.0757,4.1308,4.186,4.2422,4.1976,4.186,4.2335,4.186,4.1192,4.0379,3.9247,3.7787,3.59,3.5259,3.4736,3.4304,3.4823,3.5462,3.6228,3.7418,3.8231,3.8812,4.2741,4.4077,4.3689,4.7764,4.9867,5.0639,5.2543,5.4387,5.6171,5.6984,5.8377,5.98,5.9277,5.9074,5.9074,5.9074,5.8929,5.8668,5.8232,5.8232,5.787,5.5084,5.4126,5.3313,5.0283,4.8977,4.8368,4.791,4.7735,4.7962,4.8947,0.0,4.8526,4.9973,0.0,4.9965,5.1042,0.0,0.0,5.2331,5.4357,5.5769,5.5504,5.8118,6.101,6.3525,6.613,6.7723,6.7723,6.9985,7.0726,6.897,7.1073,7.1958,7.0866,7.0708,7.0708,7.0803,7.0803,7.1064,7.1593,7.2195,7.2768,7.3298,7.3897,7.4196,7.4196,7.4196,7.4196,7.4196,7.4196,7.4561,7.519,7.5257,7.5641,7.6192,7.6192,7.6192,7.6278,7.7007,7.7272,7.7371,2.8921,2.9544,3.0604,3.205,3.3561,3.5064,3.6402,3.8144,3.9625,4.0564,4.125,4.1802,4.216,4.2799,4.3438,4.4048,4.4222,4.4251,4.4106,4.4222,4.3351,4.1192,4.0583,3.9392,3.7447,3.6818,3.6344,3.6074,3.5967,3.644,3.7409,3.7932,3.9799,4.2741,4.4222,4.6051,4.8147,5.0419,5.2597,5.4604,5.5387,5.7303,5.9568,5.8348,5.8639,5.9655,5.9393,5.9306,5.9364,5.9713,5.9335,5.8871,5.9713,5.9393,5.8523,5.7565,5.6738,5.5519,5.2675,5.1704,5.1166,4.9838,4.949,4.9461,4.9291,4.8798,4.8263,4.806,0.0,0.0,0.0,0.0,0.0,0.0,5.2383,5.3647,5.3086,5.6573,5.9752,6.123,6.2805,6.4275,6.5571,6.865,6.9872,6.8197,7.0283,7.1214,7.0202,7.0171,7.036,7.0771,7.0803,7.0897,7.1148,7.2033,7.2596,7.2847,7.3743,7.4196,7.4196,7.4196,7.4428,7.4826,7.4826,7.5211,7.5894,7.6324,7.6675,7.6974,7.7404,7.7338,7.704,7.7768,7.802,7.81,3.0553,3.0655,3.1338,3.2935,3.4279,3.5868,3.8115,3.9576,4.067,4.1512,4.2509,4.3322,4.3757,4.4676,4.5558,4.6167,4.6661,4.6795,4.6527,4.6777,4.5964,4.3816,4.2886,4.1744,4.035,3.9363,3.8609,3.8077,3.7757,3.799,3.8725,3.9102,4.1279,4.489,4.5616,4.7666,5.0672,5.2584,5.4575,5.6593,5.7289,5.9074,6.1135,5.9451,5.89,5.9074,5.9422,5.9451,5.9422,6.0206,5.9742,5.9103,6.07,6.0119,5.8871,5.9219,5.8493,5.7086,5.488,5.4039,5.3487,5.2294,5.161,5.1145,5.0813,5.0092,4.9093,4.7602,4.7903,0.0,0.0,0.0,4.8496,4.8641,0.0,5.18,5.0697,5.4246,5.7488,5.9026,6.0242,6.1732,6.3561,6.748,6.9209,6.7457,7.0013,7.1087,6.976,6.9886,7.0234,7.0771,7.0992,7.0992,7.0803,7.193,7.2508,7.2522,7.3674,7.4296,7.4494,7.4494,7.4892,7.5575,7.5575,7.596,7.6642,7.7172,7.7537,7.7755,7.8285,7.8166,7.7768,7.8298,7.8484,7.8484,3.2634,3.1916,3.1684,3.2409,3.3599,3.5494,3.8686,4.0263,4.1522,4.276,4.46,4.579,4.579,4.7451,4.8815,4.949,4.9582,4.9831,5.0477,4.9925,4.9809,5.0361,4.7428,4.5732,4.5645,4.3787,4.1899,4.0002,4.0641,4.0641,4.006,4.1366,4.2063,4.2411,4.6696,4.8321,4.8258,5.321,5.5026,5.4793,5.7274,5.8726,5.9451,5.9945,5.9393,5.8493,5.9742,5.98,5.948,6.0758,6.07,6.0264,6.099,6.07,6.0032,5.948,5.8813,5.7971,5.6651,5.5403,5.459,5.5113,5.3891,5.2685,5.3255,5.2414,5.095,4.9035,4.8217,4.7445,4.6197,4.698,4.7428,4.6226,4.8148,0.0,0.0,4.9684,5.2448,5.6439,5.9321,6.1364,6.2273,6.7276,6.9421,6.6849,7.1073,7.259,6.9855,7.0374,7.0785,7.0803,7.1421,7.1452,7.0803,7.193,7.2508,7.2522,7.3674,7.4561,7.5257,7.5257,7.5641,7.6278,7.6278,7.6675,7.7371,7.7404,7.7835,7.8451,7.8497,7.8497,7.8451,7.8497,7.8484,7.8484,3.2853,3.299,3.3483,3.3715,3.5175,3.7264,4.0031,4.1551,4.2799,4.4077,4.5576,4.6812,4.7654,4.8711,4.9623,5.0303,5.0349,5.0465,5.0681,5.0871,5.0469,4.9424,4.7968,4.6748,4.5906,4.4425,4.3119,4.2015,4.1841,4.1841,4.2015,4.2063,4.277,4.4077,4.6864,4.8914,5.0511,5.3516,5.639,5.9045,6.0322,6.07,6.0584,6.0787,6.0584,6.038,6.1658,6.1992,6.189,6.2296,6.2296,6.2064,6.1861,6.1629,6.1338,6.0729,6.0409,5.9945,5.8668,5.829,5.8,5.6926,5.6839,5.6752,5.5664,5.4445,5.2965,5.1008,4.9424,4.8147,4.73,4.7515,4.766,4.7224,4.7892,4.8432,0.0,4.9739,5.12,5.2607,5.5996,5.8916,6.067,6.5039,6.7457,6.6646,6.9872,7.1024,6.9128,6.9697,7.0518,7.1421,7.1231,7.1231,7.1452,7.1739,7.21,7.2522,7.3744,7.4665,7.5323,7.5774,7.6357,7.704,7.704,7.7437,7.8133,7.8133,7.8252,7.8484,7.8484,7.8484,7.8484,7.8484,7.8484,7.8484,3.4275,3.4702,3.5349,3.5116,3.7061,3.9305,4.1163,4.2712,4.4135,4.5401,4.7114,4.8496,4.932,5.0204,5.0913,5.1349,5.1378,5.1668,5.2323,5.2107,5.1804,5.1443,4.9959,4.8868,4.8299,4.6795,4.5488,4.4356,4.3757,4.3409,4.3351,4.3177,4.3757,4.4977,4.6934,4.9361,5.2078,5.3778,5.6825,6.0584,6.1425,6.1396,6.0932,6.1846,6.2064,6.1948,6.2544,6.2732,6.2776,6.3022,6.308,6.3022,6.2602,6.2312,6.2079,6.1919,6.1542,6.1077,6.0467,6.009,5.9684,5.89,5.8813,5.8668,5.7681,5.6593,5.5287,5.3342,5.1775,5.0643,5.0249,4.9623,4.9245,4.9461,4.9141,4.8868,0.0,4.9797,5.0332,5.0332,5.3475,5.6789,5.9792,6.3415,6.5957,6.6885,6.9096,6.9791,6.8387,6.9191,7.0234,7.1421,7.1484,7.161,7.1817,7.1915,7.2027,7.2181,7.347,7.453,7.5377,7.6057,7.6875,7.7802,7.7802,7.8067,7.8484,7.8484,7.8484,7.8484,7.8484,7.8484,7.8484,7.8484,7.8484,7.8484,3.6916,3.7003,3.7322,3.6742,3.916,4.1424,4.2092,4.3845,4.5518,4.6772,4.9175,5.0826,5.0884,5.1958,5.2714,5.2743,5.2743,5.3498,5.5287,5.3746,5.3833,5.6186,5.3371,5.202,5.2597,5.0672,4.8774,4.6876,4.6214,4.5267,4.4106,4.4658,4.4919,4.5035,4.698,4.9606,5.2685,5.3965,5.6332,5.9364,6.07,6.0903,6.0642,6.3078,6.3703,6.3196,6.2486,6.2238,6.2325,6.2979,6.3183,6.3183,6.3138,6.2732,6.2354,6.2979,6.2296,6.1454,6.2035,6.0845,5.9742,6.0932,5.9858,5.8639,5.9248,5.8871,5.7855,5.5939,5.5026,5.459,5.4561,5.3023,5.1949,5.2539,5.1552,5.0477,4.9896,4.9751,4.9722,4.978,5.1991,5.5171,5.947,6.2377,6.4963,6.731,6.8847,6.9096,6.7737,6.8938,7.0044,7.0785,7.2053,7.2449,7.1817,7.2319,7.2242,7.1639,7.2909,7.4218,7.5526,7.6234,7.7266,7.8484,7.8484,7.8484,7.8484,7.8484,7.8484,7.8484,7.8484,7.8484,7.8484,7.8484,7.8484,7.8484,3.8783,3.9363,4.0379,4.1134,4.1957,4.2741,4.3409,4.5913,4.8031,4.8868,5.0797,5.2468,5.3413,5.382,5.4197,5.4633,5.4691,5.4894,5.5374,5.5416,5.53,5.4996,5.4213,5.3384,5.2626,5.0672,4.9209,4.8223,4.665,4.5732,4.5413,4.5064,4.5151,4.5732,4.7625,5.0017,5.2685,5.3965,5.607,5.8755,6.0961,6.231,6.3107,6.3745,6.4806,6.5796,6.4664,6.4257,6.4286,6.446,6.4518,6.4431,6.3935,6.3993,6.4199,6.3877,6.3542,6.3326,6.3455,6.2455,6.1454,6.1789,6.1483,6.1048,6.0787,6.0206,5.9306,5.7855,5.668,5.5751,5.5258,5.4387,5.3661,5.3326,5.183,5.0797,5.1079,5.0291,5.0058,5.1004,5.253,5.4397,5.6666,6.0385,6.3517,6.5734,6.8249,6.9317,6.845,6.9222,7.0044,7.0785,7.161,7.1975,7.1817,7.1942,7.1871,7.1625,7.298,7.4309,7.5526,7.6758,7.776,7.8484,7.8484,7.8484,7.8484,7.8484,7.8484,7.8484,7.8484,7.8484,7.8484,7.8484,7.8484,7.8484,4.0379,4.1057,4.2411,4.399,4.518,4.5877,4.5674,4.7898,5.0104,5.1585,5.2991,5.4081,5.4822,5.488,5.4909,5.4996,5.5242,5.5649,5.6186,5.6055,5.6012,5.6171,5.5345,5.4691,5.4269,5.2907,5.1456,4.9963,4.8665,4.7416,4.6272,4.5645,4.5859,4.6777,4.8118,5.0469,5.3601,5.5997,5.7681,5.8958,6.1513,6.279,0.0,6.4109,6.4922,6.5577,6.5141,6.5012,6.5012,6.5012,6.5012,6.4909,6.4561,6.4706,6.4925,6.4545,6.4429,6.4429,6.4429,6.3703,6.2877,6.2587,6.2544,6.2354,6.1745,6.1309,6.0816,6.0119,5.8958,5.8116,5.829,5.7158,5.5751,5.4532,5.2759,5.1639,5.1991,5.1162,0.0,0.0,5.2484,5.3535,5.4671,5.9737,6.3714,6.5634,6.7937,6.9096,6.8717,6.9064,6.9728,7.0771,7.2053,7.2544,7.2228,7.2544,7.2541,7.2118,7.2945,7.4104,7.5606,7.6715,7.7692,7.8484,7.8484,7.8484,7.8484,7.8484,7.8484,7.8484,7.8484,7.8484,7.8484,7.8484,7.8484,7.8484,4.2644,4.305,4.4327,4.6197,4.8444,4.9652,4.881,5.0129,5.1975,5.4097,5.4909,5.5374,5.5606,5.5577,5.5403,5.5142,5.5606,5.6361,5.7507,5.6549,5.6636,5.8232,5.668,5.6012,5.6506,5.5867,5.4387,5.2082,5.1336,4.9739,4.7398,4.6708,4.705,4.8212,4.8989,5.1443,5.5229,5.89,6.009,5.9771,6.2238,6.2877,6.2529,6.4299,6.4648,6.421,6.4793,6.5012,6.5012,6.5012,6.5012,6.5012,6.5012,6.5041,6.5112,6.5112,6.5112,6.5112,6.5112,6.4574,6.3861,6.3341,6.3167,6.295,6.2354,6.2151,6.2122,6.2209,6.1222,6.07,6.1876,6.009,5.7913,5.6273,5.4385,5.3178,5.344,0.0,0.0,0.0,0.0,0.0,5.372,5.9542,6.4053,6.5837,6.7567,6.8562,6.8703,6.8875,6.9444,7.0487,7.2622,7.3412,7.2685,7.338,7.3443,7.2811,7.2811,7.382,7.571,7.6376,7.7375,7.8484,7.8484,7.8484,7.8484,7.8484,7.8484,7.8484,7.8484,7.8484,7.8484,7.8484,7.8484,7.8484,4.8165,4.7944,4.8147,4.9606,5.0627,5.1717,5.3123,5.3617,5.3807,5.3691,5.4242,5.5258,5.681,5.6506,5.6839,5.8348,5.8552,5.8726,5.8929,5.8755,5.8523,5.8319,5.7971,5.7594,5.7158,5.6549,5.5736,5.4735,5.3078,5.1742,5.0718,4.9586,4.9465,5.0274,5.1933,5.4503,5.7826,6.0584,6.1425,6.1048,6.3036,6.3774,6.3745,6.4648,6.4925,6.4822,6.4954,6.5012,6.5012,6.5012,6.5012,6.5012,6.5012,6.5344,6.5735,6.5735,6.5735,6.5735,6.5735,6.4877,6.3978,6.3861,6.3471,6.3067,6.2935,6.2499,6.2254,6.279,6.1919,6.1251,6.1963,6.0467,5.919,5.9335,5.7332,5.6287,5.7884,5.6636,0.0,0.0,0.0,5.6723,0.0,5.7871,0.0,6.3473,6.6118,6.794,6.8676,6.9791,7.0013,6.9096,7.161,7.2685,7.1975,7.2639,7.2938,7.2811,7.2811,7.382,7.571,7.6394,7.7347,7.8484,7.8484,7.8484,7.8484,7.8484,7.8484,7.8484,7.8484,7.8484,7.8484,7.8484,7.8484,7.8484,4.9505,5.0237,5.0929,5.1581,5.3007,5.43,5.488,5.5519,5.607,5.6461,5.6477,5.6955,5.8203,5.7768,5.7623,5.8203,5.8581,5.8784,5.8784,5.9103,5.9161,5.8842,5.8493,5.8319,5.8348,5.771,5.7071,5.6403,5.5169,5.4081,5.3081,5.2111,5.221,5.321,5.5155,5.6868,5.8464,6.0671,6.1454,6.1367,6.3252,6.4007,6.4123,6.5096,6.5473,6.5519,6.5854,6.5999,6.5883,6.5215,6.5012,6.5012,6.5012,6.5199,6.5415,6.5415,6.5648,6.5893,6.5893,6.5457,6.4906,6.4603,6.4299,6.398,6.3645,6.3326,6.3181,6.35,6.2848,6.218,6.2093,6.1658,6.1048,6.0322,5.9161,5.8581,5.9219,5.8189,5.7623,0.0,0.0,0.0,0.0,0.0,0.0,0.0,6.5447,6.7582,6.9118,6.9855,6.9918,6.9254,7.1926,7.286,7.1817,7.2829,7.338,7.338,7.2969,7.4011,7.6228,7.6556,7.7361,7.8484,7.8484,7.8484,7.8484,7.8484,7.8484,7.8484,7.8484,7.8484,7.8484,7.8484,7.8484,7.8484,5.0476,5.2281,5.3614,5.3614,5.5474,5.6839,5.6302,5.7086,5.7971,5.861,5.8232,5.8203,5.9016,5.861,5.8261,5.8145,5.8726,5.9161,5.9306,5.98,6.0119,6.0119,5.9335,5.9161,5.9684,5.9045,5.8464,5.7913,5.7318,5.6157,5.4503,5.4358,5.4996,5.6302,5.7971,5.8842,5.9219,6.0874,6.1687,6.1948,6.3558,6.4297,6.4529,6.5515,6.598,6.617,6.6709,6.6899,6.6754,6.5738,6.5389,6.5389,6.5389,6.5389,6.5389,6.5389,6.5751,6.6067,6.5922,6.5893,6.5747,6.5141,6.5012,6.4851,6.4342,6.4094,6.4036,6.4181,6.3703,6.3138,6.2616,6.2819,6.2776,6.1774,6.1164,6.0845,6.0903,6.0104,5.9655,0.0,0.0,0.0,5.8058,5.9132,6.0866,6.321,6.5079,6.6993,6.9049,6.9663,6.9918,6.9918,7.2369,7.3222,7.226,7.3191,7.3759,7.3886,7.3159,7.4099,7.6502,7.6502,7.7181,7.8309,7.8309,7.8376,7.8484,7.8484,7.8484,7.8484,7.8484,7.8484,7.8484,7.8484,7.8484,7.8484,5.3812,5.5577,5.6868,5.6868,5.8058,5.9016,5.8958,5.9045,5.8523,5.6883,5.6636,5.7042,5.8261,5.8348,5.8987,6.07,6.1396,6.2006,6.2616,6.2703,6.2732,6.2732,6.1571,6.0961,6.1019,6.038,5.9974,5.9916,5.9335,5.7477,5.4532,5.6186,5.7652,5.8958,5.9684,6.0642,6.1803,6.2602,6.3239,6.3803,6.459,6.5212,6.5747,6.5864,6.6286,6.6812,6.687,6.6899,6.687,6.6754,6.6725,6.6725,6.6725,6.6725,6.6725,6.6725,6.6754,6.6651,6.6083,6.5893,6.5747,6.5141,6.5012,6.4983,6.4909,6.4429,6.4181,6.4764,6.4371,6.3891,6.3832,6.3413,6.3792,6.5941,6.4344,6.3618,6.5883,6.4603,6.3297,6.279,0.0,0.0,6.0119,6.1092,6.2534,6.4234,6.4843,6.5808,6.7339,6.9504,7.0708,7.0708,7.2116,7.3159,7.3696,7.3159,7.3254,7.3886,7.3159,7.3869,7.5876,7.5876,7.6548,7.7692,7.7692,7.7979,7.8484,7.8484,7.8484,7.8484,7.8484,7.8484,7.8484,7.8484,7.8484,7.8484,5.4243,5.5836,5.6966,5.7254,5.8052,5.8654,5.8654,5.8952,5.8894,5.8081,5.8722,5.9609,6.0446,6.0576,6.0874,6.1658,6.1948,6.2209,6.2486,6.2892,6.308,6.308,6.2616,6.2151,6.1745,6.1106,6.0787,6.0787,6.0555,5.9771,5.8552,5.9655,6.0264,6.0467,6.1077,6.16,6.2166,6.321,6.4022,6.4677,6.5299,6.5909,6.6535,6.6941,6.7277,6.7538,6.7899,6.8044,6.8044,6.8044,6.7522,6.6899,6.6899,6.6899,6.6899,6.6899,6.6899,6.6841,6.6564,6.6506,6.6447,6.6202,6.6144,6.6144,6.6144,6.5925,6.5693,6.556,6.5038,6.4487,6.4065,6.4429,6.4864,6.5125,6.4648,6.4605,6.5622,6.4748,6.4065,6.4212,0.0,6.3473,0.0,6.2863,6.3454,6.2581,6.4591,6.6608,6.83,6.9737,7.0774,7.1375,7.2306,7.2938,7.3254,7.338,7.338,7.3254,7.338,7.427,7.5789,7.5789,7.6264,7.7051,7.7051,7.7417,7.7951,7.7951,7.8188,7.8484,7.8484,7.8484,7.8484,7.8484,7.8484,7.8484,5.4002,5.5756,5.6907,5.7078,5.7874,5.8477,5.8477,5.8867,5.9233,5.952,6.0648,6.1323,6.1137,6.1344,6.1552,6.1754,6.1926,6.2127,6.2316,6.2964,6.3334,6.3334,6.3348,6.3123,6.2674,6.1861,6.1542,6.1745,6.1542,6.1077,6.0351,6.0787,6.1251,6.1774,6.2209,6.2499,6.2716,6.3819,6.4661,6.5315,6.5938,6.6593,6.7248,6.7712,6.8003,6.8218,6.8666,6.8794,6.8794,6.8794,6.8201,6.7463,6.7463,6.7463,6.7463,6.7463,6.7463,6.7405,6.7248,6.719,6.7132,6.6957,6.6899,6.6899,6.6899,6.6899,6.6783,6.6286,6.5693,6.5141,6.4645,6.5283,6.5718,6.5241,6.5373,6.568,6.607,6.5386,6.5183,6.6012,6.597,6.5302,6.3938,6.5041,6.4938,6.2761,6.5297,6.7318,6.8186,7.0002,7.1361,7.2088,7.2355,7.2811,7.3412,7.3507,7.3412,7.3127,7.3665,7.4468,7.5527,7.5702,7.6034,7.6431,7.6615,7.6939,7.7347,7.7541,7.7842,7.8255,7.843,7.8484,7.8484,7.8484,7.8484,7.8484,5.3471,5.5793,5.7286,5.6714,5.8043,5.9188,5.9188,5.9188,5.961,6.0739,6.1483,6.1164,5.9233,5.9616,6.0281,6.0959,6.1561,6.2167,6.2851,6.3504,6.3879,6.3879,6.3932,6.4007,6.3978,6.2732,6.2412,6.3096,6.2412,6.0787,5.8348,5.8348,6.0032,6.3096,6.308,6.3413,6.4036,6.4706,6.5344,6.5951,6.6622,6.7277,6.7887,6.7887,6.8276,6.8794,6.8794,6.8794,6.8794,6.8794,6.8794,6.8782,6.8782,6.8782,6.8782,6.8782,6.8782,6.8666,6.8061,6.7887,6.7741,6.7074,6.6899,6.6899,6.6899,6.6899,6.6899,6.6899,6.636,6.5893,6.5864,6.5893,6.6344,6.7654,6.7306,6.7318,6.8579,6.7667,6.7318,6.8591,6.8218,6.7857,6.7828,6.7857,6.7289,6.5967,6.7353,6.7593,6.6012,7.0274,7.2765,7.278,7.2165,7.2797,7.4834,7.3507,7.3159,7.3886,7.3917,7.4233,7.4942,7.5513,7.5803,7.5832,7.6431,7.6686,7.6746,7.7361,7.761,7.7678,7.8269,7.8484,7.8484,7.8484,7.8484,7.8484,5.4219,5.4834,5.5349,5.6352,5.6919,5.7364,5.7773,5.8148,5.8955,6.0571,6.0941,6.1146,6.136,6.2097,6.2853,6.3482,6.4175,6.4628,6.4844,6.5569,6.5963,6.5963,6.5956,6.5577,6.4706,6.427,6.3763,6.308,6.3297,6.2962,6.2179,6.1774,6.2122,6.3154,6.4025,6.4502,6.4764,6.5854,6.6667,6.7289,6.7509,6.7957,6.8492,6.8492,6.8637,6.8794,6.8794,6.8794,6.8794,6.8794,6.8794,6.8794,6.8794,6.8794,6.8794,6.8794,6.8794,6.8753,6.8579,6.8492,6.8463,6.826,6.8201,6.8201,6.8201,6.787,6.7567,6.7567,6.7044,6.6593,6.6593,6.6593,6.6854,6.777,6.7335,6.719,6.809,6.7451,6.7044,6.7463,6.6941,6.6373,6.597,6.6302,6.6373,6.5922,6.9383,7.045,6.8,6.9926,7.186,7.3509,7.2875,7.3254,7.4866,7.4469,7.4107,7.3917,7.436,7.4676,7.4912,7.5119,7.5193,7.5208,7.5381,7.5702,7.6092,7.6292,7.6633,7.6995,7.719,7.7527,7.7883,7.7883,7.8161,7.8484,5.4526,5.4819,5.5093,5.5948,5.6392,5.6771,5.7144,5.7473,5.8252,5.9807,6.0023,6.0394,6.1384,6.1987,6.2723,6.3795,6.4296,6.457,6.457,6.5238,6.5659,6.5659,6.6205,6.6112,6.5333,6.5316,6.5083,6.4547,6.4909,6.5096,6.5067,6.4706,6.4547,6.4576,6.536,6.5709,6.5796,6.6841,6.7509,6.7916,6.8131,6.8463,6.8794,6.8794,6.8794,6.8794,6.8794,6.8794,6.8794,6.8794,6.8794,6.8794,6.8794,6.8794,6.8794,6.8794,6.8794,6.8794,6.8794,6.8794,6.8794,6.8794,6.8794,6.8794,6.8794,6.8492,6.8247,6.8247,6.7725,6.7277,6.7277,6.7277,6.7422,6.7828,6.7741,6.7754,6.8189,6.787,6.7783,6.8276,6.7754,6.7231,6.6841,6.6941,6.6943,6.6853,6.9941,7.1224,6.9869,7.1463,7.278,7.3446,7.3033,7.3475,7.488,7.4644,7.4423,7.4297,7.4707,7.4912,7.4912,7.4912,7.4912,7.4912,7.4912,7.5119,7.5469,7.5702,7.6034,7.6374,7.6615,7.6925,7.7273,7.7527,7.7706,7.7883,5.4568,5.5551,5.6113,5.5525,5.6352,5.7139,5.7139,5.7164,5.7605,5.8743,5.8892,5.9152,5.9783,5.986,6.0524,6.2247,6.2495,6.2584,6.2584,6.3359,6.3812,6.3812,6.5159,6.5919,6.5862,6.5968,6.6315,6.6899,6.6899,6.6899,6.6899,6.6899,6.6899,6.6899,6.6957,6.6957,6.7015,6.7683,6.7974,6.8003,6.8579,6.8794,6.8794,6.8794,6.8794,6.8794,6.8794,6.8794,6.8794,6.8794,6.8794,6.8794,6.8794,6.8794,6.8794,6.8794,6.8794,6.8794,6.8794,6.8794,6.8794,6.8794,6.8794,6.8794,6.8794,6.8794,6.8794,6.8794,6.8363,6.7974,6.7974,6.7974,6.7974,6.7974,6.845,6.8794,6.8794,6.8794,6.9246,7.0436,6.9989,6.96,6.9658,6.9099,6.8689,6.8669,6.9597,7.0587,7.1635,7.4436,7.5024,7.2938,7.2843,7.3475,7.488,7.4297,7.4297,7.4912,7.4912,7.4912,7.4912,7.4912,7.4912,7.4912,7.4912,7.4912,7.4942,7.5498,7.5731,7.5789,7.6346,7.6601,7.67,7.7278,7.7134,7.6855,5.5193,5.5424,5.5587,5.5419,5.5979,5.6444,5.6444,5.6784,5.7477,5.8671,5.8825,5.9241,6.0366,6.048,6.0656,6.1091,6.2485,6.3343,6.3343,6.4957,6.5884,6.5884,6.6769,6.7005,6.6485,6.7081,6.7248,6.6899,6.6899,6.6899,6.6899,6.6899,6.6899,6.6928,6.7422,6.7654,6.7712,6.8334,6.8579,6.8608,6.8753,6.8794,6.8794,6.8794,6.8794,6.8794,6.8794,6.8794,6.8794,6.8794,6.8794,6.8794,6.8794,6.8794,6.8794,6.8794,6.8794,6.8794,6.8794,6.8794,6.8794,6.8794,6.8794,6.8794,6.8794,6.8794,6.8794,6.8794,6.8695,6.8579,6.8579,6.8579,6.8579,6.8579,6.8724,6.8794,6.8794,6.8794,6.891,6.92,6.8276,6.7799,6.8293,6.8015,6.8805,7.1199,7.2167,7.3139,7.4299,7.5426,7.5276,7.3696,7.3096,7.3475,7.488,7.4739,7.4739,7.4912,7.4912,7.4912,7.4912,7.4912,7.4912,7.4912,7.4912,7.4912,7.4912,7.506,7.5119,7.5149,7.5264,7.5615,7.6034,7.6178,7.6449,7.6742,5.6131,5.6131,5.6131,5.6131,5.6376,5.6568,5.6568,5.6808,5.7259,5.7883,5.7981,5.8237,5.894,5.9018,5.9018,5.9018,6.1014,6.2272,6.2272,6.3289,6.3901,6.3901,6.5138,6.5675,6.5306,6.6615,6.7124,6.6763,6.6763,6.6949,6.7269,6.7269,6.7453,6.7783,6.816,6.8305,6.8334,6.8666,6.8794,6.8794,6.8794,6.8794,6.8794,6.8794,6.8794,6.8794,6.8794,6.8794,6.8794,6.8794,6.8794,6.8794,6.8794,6.8794,6.8794,6.8794,6.8794,6.8794,6.8794,6.8794,6.8794,6.8794,6.8794,6.8794,6.8794,6.8794,6.8794,6.8794,6.8794,6.8794,6.8794,6.8794,6.8794,6.8794,6.8794,6.8794,6.8794,6.8794,6.8794,6.8794,6.8172,6.7899,6.8276,6.8196,6.9001,7.1225,7.1799,7.2539,7.3685,7.4081,7.4183,7.3903,7.3823,7.4139,7.488,7.4912,7.4912,7.4912,7.4912,7.4912,7.4912,7.4912,7.4912,7.4912,7.4912,7.4912,7.4912,7.4912,7.4912,7.4912,7.4912,7.5119,7.5411,7.5687,7.5832,7.5977,5.7001,5.7001,5.7001,5.7001,5.7001,5.7001,5.7001,5.7001,5.7001,5.7001,5.7001,5.7001,5.7001,5.7001,5.7001,5.7001,5.894,6.0227,6.0399,6.059,6.0704,6.0704,6.2543,6.361,6.361,6.5692,6.677,6.677,6.6875,6.7258,6.785,6.785,6.8204,6.8794,6.8794,6.8794,6.8794,6.8794,6.8794,6.8794,6.8794,6.8794,6.8794,6.8794,6.8794,6.8794,6.8794,6.8794,6.8794,6.8794,6.8794,6.8794,6.8794,6.8794,6.8794,6.8794,6.8794,6.8794,6.8794,6.8794,6.8794,6.8794,6.8794,6.8794,6.8794,6.8794,6.8794,6.8794,6.8794,6.8794,6.8794,6.8794,6.8898,6.9188,6.8968,6.8881,6.9188,6.8985,6.8794,6.8794,6.8724,6.8695,6.8794,6.883,6.9316,7.0374,7.0498,7.1051,7.2228,7.2398,7.2956,7.4014,7.4486,7.4802,7.4912,7.4912,7.4912,7.4912,7.4912,7.4912,7.4912,7.4912,7.4912,7.4912,7.4912,7.4912,7.4912,7.4912,7.4912,7.4912,7.4912,7.4912,7.4971,7.5469,7.5323,7.506,5.7001,5.7001,5.7001,5.7001,5.7001,5.7001,5.7001,5.7001,5.7001,5.7001,5.7001,5.7001,5.7001,5.7001,5.7001,5.7001,5.7334,5.8001,5.9032,6.0112,6.0704,6.0704,6.2543,6.361,6.361,6.6177,6.7524,6.7524,6.8153,6.854,6.8642,6.8642,6.8692,6.8794,6.8794,6.8794,6.8794,6.8794,6.8794,6.8794,6.8794,6.8794,6.8794,6.8794,6.8794,6.8794,6.8794,6.8794,6.8794,6.8794,6.8794,6.8794,6.8794,6.8794,6.8794,6.8794,6.8794,6.8794,6.8794,6.8794,6.8794,6.8794,6.8794,6.8794,6.8794,6.8794,6.8794,6.8794,6.8794,6.8794,6.8794,6.8794,6.9333,7.0993,6.9873,6.9362,7.1022,6.9844,6.8794,6.8794,6.8363,6.8247,6.8753,6.9121,6.9834,7.113,7.1483,7.2351,7.3941,7.3525,7.3672,7.4709,7.4297,7.4328,7.4897,7.4912,7.4912,7.4912,7.4912,7.4912,7.4912,7.4912,7.4912,7.4912,7.4912,7.4912,7.4912,7.4912,7.4912,7.4912,7.4912,7.4912,7.4912,7.5016,7.4986,7.4942,5.7001,5.7001,5.7001,5.7001,5.7001,5.7001,5.7001,5.7001,5.7001,5.7001,5.7001,5.7001,5.7001,5.7001,5.7001,5.7001,5.7001,5.7259,5.7784,5.8374,5.8706,5.8706,6.0195,6.1629,6.2984,6.4238,6.5415,6.6451,6.6784,6.7403,6.8204,6.8204,6.8409,6.8794,6.8794,6.8794,6.8794,6.8794,6.8794,6.8794,6.8794,6.8794,6.8794,6.8794,6.8794,6.8794,6.8794,6.8794,6.8794,6.8794,6.8794,6.8794,6.8794,6.8794,6.8794,6.8794,6.8794,6.8794,6.8794,6.8794,6.8794,6.8794,6.8794,6.8794,6.8794,6.8794,6.8794,6.8794,6.8794,6.8794,6.8794,6.8794,6.9101,6.9989,6.9391,6.9101,7.0018,6.9362,6.8794,6.8794,6.855,6.8492,6.8782,6.8973,6.9348,6.9952,7.0149,7.0568,7.1327,7.2149,7.2813,7.3262,7.4046,7.4581,7.4912,7.4912,7.4912,7.4912,7.4912,7.4912,7.4912,7.4912,7.4912,7.4912,7.4912,7.4912,7.4912,7.4912,7.4912,7.4912,7.4912,7.4912,7.4912,7.4912,7.4912,7.4912,5.7001,5.7001,5.7001,5.7001,5.7001,5.7001,5.7001,5.7001,5.7001,5.7001,5.7001,5.7001,5.7001,5.7001,5.7001,5.7001,5.7001,5.7001,5.7001,5.7001,5.7001,5.7001,5.8158,5.9953,6.2436,6.2678,6.3627,6.5407,6.5585,6.6275,6.7437,6.761,6.8016,6.8528,6.8726,6.8794,6.8794,6.8794,6.8794,6.8794,6.8794,6.8794,6.8794,6.8794,6.8794,6.8794,6.8794,6.8794,6.8794,6.8794,6.8794,6.8794,6.8794,6.8794,6.8794,6.8794,6.8794,6.8794,6.8794,6.8794,6.8794,6.8794,6.8794,6.8794,6.8794,6.8794,6.8794,6.8794,6.8794,6.8794,6.8794,6.8794,6.8956,6.9391,6.9101,6.8956,6.942,6.9101,6.8794,6.8794,6.8794,6.8794,6.8794,6.8794,6.8794,6.8794,6.8794,6.8912,6.9136,7.0664,7.1759,7.2234,7.3949,7.4912,7.4912,7.4912,7.4912,7.4912,7.4912,7.4912,7.4912,7.4912,7.4912,7.4912,7.4912,7.4912,7.4912,7.4912,7.4912,7.4912,7.4912,7.4912,7.4912,7.4912,7.4912,7.4912,5.7001,5.7001,5.7001,5.7001,5.7001,5.7001,5.7001,5.7001,5.7001,5.7001,5.7001,5.7001,5.7001,5.7001,5.7001,5.7001,5.7001,5.7001,5.7001,5.7001,5.7001,5.7001,5.8158,5.9953,6.2436,6.316,6.4147,6.5407,6.6145,6.6577,6.67,6.7368,6.773,6.7799,6.8494,6.8794,6.8794,6.8794,6.8794,6.8794,6.8794,6.8794,6.8794,6.8794,6.8794,6.8794,6.8794,6.8794,6.8794,6.8794,6.8794,6.8794,6.8794,6.8794,6.8794,6.8794,6.8794,6.8794,6.8794,6.8794,6.8794,6.8794,6.8794,6.8794,6.8794,6.8794,6.8794,6.8794,6.8794,6.8794,6.8794,6.8794,6.9391,7.1197,6.9989,6.942,7.1226,6.9931,6.8794,6.8794,6.8794,6.8794,6.8794,6.8794,6.8794,6.8794,6.8794,6.922,7.014,7.0337,7.1297,7.3231,7.4343,7.4912,7.4912,7.4912,7.4912,7.4912,7.4912,7.4912,7.4912,7.4912,7.4912,7.4912,7.4912,7.4912,7.4912,7.4912,7.4912,7.4912,7.4912,7.4912,7.4912,7.4912,7.4912,7.4912,5.7001,5.7001,5.7001,5.7001,5.7001,5.7001,5.7001,5.7001,5.7001,5.7001,5.7001,5.7001,5.7001,5.7001,5.7001,5.7001,5.7001,5.7001,5.7001,5.7001,5.7001,5.7001,5.7433,5.8491,6.0163,6.0482,6.1835,6.4292,6.4581,6.5362,6.6613,6.6892,6.7032,6.7067,6.7793,6.8119,6.8153,6.8625,6.8794,6.8794,6.8794,6.8794,6.8794,6.8794,6.8794,6.8794,6.8794,6.8794,6.8794,6.8794,6.8794,6.8794,6.8794,6.8794,6.8794,6.8794,6.8794,6.8794,6.8794,6.8794,6.8794,6.8794,6.8794,6.8794,6.8794,6.8794,6.8794,6.8794,6.8794,6.8794,6.8794,6.8794,6.9043,6.9769,6.9275,6.9072,6.9815,6.9275,6.8794,6.8794,6.8794,6.8794,6.8794,6.8794,6.8794,6.8794,6.8794,6.9253,7.0255,7.1521,7.286,7.4283,7.4687,7.4912,7.4912,7.4912,7.4912,7.4912,7.4912,7.4912,7.4912,7.4912,7.4912,7.4912,7.4912,7.4912,7.4912,7.4912,7.4912,7.4912,7.4912,7.4912,7.4912,7.4912,7.4912,7.4912,5.7001,5.7001,5.7001,5.7001,5.7001,5.7001,5.7001,5.7001,5.7001,5.7001,5.7001,5.7001,5.7001,5.7001,5.7001,5.7001,5.7001,5.7001,5.7001,5.7001,5.7001,5.7001,5.7001,5.7572,5.8779,5.8798,6.0081,6.2672,6.2672,6.3582,6.53,6.555,6.5852,6.6251,6.7004,6.7333,6.7385,6.8136,6.8443,6.846,6.8709,6.8794,6.8794,6.8794,6.8794,6.8794,6.8794,6.8794,6.8794,6.8794,6.8794,6.8794,6.8794,6.8794,6.8794,6.8794,6.8794,6.8794,6.8794,6.8794,6.8794,6.8794,6.8794,6.8794,6.8794,6.8794,6.8794,6.8794,6.8794,6.8794,6.8794,6.8794,6.8794,6.8794,6.8794,6.8794,6.8794,6.8794,6.8794,6.8794,6.8794,6.8794,6.8794,6.8794,6.8794,6.8794,6.8794,6.9102,6.9807,7.1792,7.3247,7.395,7.4553,7.4912,7.4912,7.4912,7.4912,7.4912,7.4912,7.4912,7.4912,7.4912,7.4912,7.4912,7.4912,7.4912,7.4912,7.4912,7.4912,7.4912,7.4912,7.4912,7.4912,7.4912,7.4912,7.4912,5.7001,5.7001,5.7001,5.7001,5.7001,5.7001,5.7001,5.7001,5.7001,5.7001,5.7001,5.7001,5.7001,5.7001,5.7001,5.7001,5.7001,5.7001,5.7001,5.7001,5.7001,5.7001,5.7001,5.7572,5.8759,5.8798,5.9419,6.0685,6.0685,6.1311,6.2492,6.3252,6.4238,6.5425,6.6233,6.6595,6.6648,6.7385,6.7696,6.7765,6.8494,6.8794,6.8794,6.8794,6.8794,6.8794,6.8794,6.8794,6.8794,6.8794,6.8794,6.8794,6.8794,6.8794,6.8794,6.8794,6.8794,6.8794,6.8794,6.8794,6.8794,6.8794,6.8794,6.8794,6.8794,6.8794,6.8794,6.8794,6.8794,6.8794,6.8794,6.8794,6.8794,6.8794,6.8794,6.8794,6.8794,6.8794,6.8794,6.8794,6.8794,6.8794,6.8794,6.8794,6.8794,6.8794,6.8811,6.8811,6.8811,7.0762,7.1902,7.1902,7.3859,7.4882,7.4882,7.4897,7.4912,7.4912,7.4912,7.4912,7.4912,7.4912,7.4912,7.4912,7.4912,7.4912,7.4912,7.4912,7.4912,7.4912,7.4912,7.4912,7.4912,7.4912,7.4912,7.4912,5.7001,5.7001,5.7001,5.7001,5.7001,5.7001,5.7001,5.7001,5.7001,5.7001,5.7001,5.7001,5.7001,5.7001,5.7001,5.7001,5.7001,5.7001,5.7001,5.7001,5.7001,5.7001,5.7001,5.718,5.7532,5.7552,5.8138,5.938,5.938,6.0016,6.1254,6.2317,6.3021,6.3453,6.505,6.6074,6.6648,6.7385,6.8016,6.8477,6.8709,6.8794,6.8794,6.8794,6.8794,6.8794,6.8794,6.8794,6.8794,6.8794,6.8794,6.8794,6.8794,6.8794,6.8794,6.8794,6.8794,6.8794,6.8794,6.8794,6.8794,6.8794,6.8794,6.8794,6.8794,6.8794,6.8794,6.8794,6.8794,6.8794,6.8794,6.8794,6.8794,6.8794,6.8794,6.8794,6.8794,6.8794,6.8794,6.8794,6.8794,6.8794,6.8794,6.8794,6.8794,6.8794,6.9441,6.9857,6.9857,7.115,7.1902,7.1902,7.2485,7.2798,7.2798,7.4207,7.4912,7.4912,7.4912,7.4912,7.4912,7.4912,7.4912,7.4912,7.4912,7.4912,7.4912,7.4912,7.4912,7.4912,7.4912,7.4912,7.4912,7.4912,7.4912,7.4912,5.7001,5.7001,5.7001,5.7001,5.7001,5.7001,5.7001,5.7001,5.7001,5.7001,5.7001,5.7001,5.7001,5.7001,5.7001,5.7001,5.7001,5.7001,5.7001,5.7001,5.7001,5.7001,5.7001,5.7001,5.7001,5.7001,5.7354,5.8099,5.8099,5.872,5.9978,6.1217,6.2044,6.2566,6.4219,6.5417,6.618,6.6934,6.7707,6.8392,6.8692,6.8794,6.8794,6.8794,6.8794,6.8794,6.8794,6.8794,6.8794,6.8794,6.8794,6.8794,6.8794,6.8794,6.8794,6.8794,6.8794,6.8794,6.8794,6.8794,6.8794,6.8794,6.8794,6.8794,6.8794,6.8794,6.8794,6.8794,6.8794,6.8794,6.8794,6.8794,6.8794,6.8794,6.8794,6.8794,6.8794,6.8794,6.8794,6.8794,6.8794,6.8794,6.8794,6.8794,6.8794,6.8794,6.937,6.9707,6.9707,7.0697,7.1279,7.1279,7.1679,7.1902,7.1902,7.3108,7.3889,7.4313,7.4719,7.4912,7.4912,7.4912,7.4912,7.4912,7.4912,7.4912,7.4912,7.4912,7.4912,7.4912,7.4912,7.4912,7.4912,7.4912,7.4912,7.4912,5.7001,5.7001,5.7001,5.7001,5.7001,5.7001,5.7001,5.7001,5.7001,5.7001,5.7001,5.7001,5.7001,5.7001,5.7001,5.7001,5.7001,5.7001,5.7001,5.7001,5.7001,5.7001,5.7001,5.7001,5.7001,5.7001,5.7001,5.7001,5.7001,5.7572,5.8662,5.9939,6.1122,6.2231,6.3443,6.441,6.513,6.5915,6.6689,6.7506,6.829,6.8659,6.8709,6.8777,6.8794,6.8794,6.8794,6.8794,6.8794,6.8794,6.8794,6.8794,6.8794,6.8794,6.8794,6.8794,6.8794,6.8794,6.8794,6.8794,6.8794,6.8794,6.8794,6.8794,6.8794,6.8794,6.8794,6.8794,6.8794,6.8794,6.8794,6.8794,6.8794,6.8794,6.8794,6.8794,6.8794,6.8794,6.8794,6.8794,6.8794,6.8794,6.8794,6.8794,6.8794,6.8794,6.8794,6.8794,6.8794,6.9674,7.0173,7.0173,7.1118,7.1615,7.1615,7.1711,7.2265,7.3277,7.4283,7.4778,7.4778,7.4867,7.4912,7.4912,7.4912,7.4912,7.4912,7.4912,7.4912,7.4912,7.4912,7.4912,7.4912,7.4912,7.4912,7.4912,5.7001,5.7001,5.7001,5.7001,5.7001,5.7001,5.7001,5.7001,5.7001,5.7001,5.7001,5.7001,5.7001,5.7001,5.7001,5.7001,5.7001,5.7001,5.7001,5.7001,5.7001,5.7001,5.7001,5.7001,5.7001,5.7001,5.7001,5.7001,5.7001,5.714,5.7414,5.8623,5.9361,5.9645,6.0907,6.188,6.2609,6.3115,6.4102,6.5449,6.6535,6.7374,6.8016,6.8591,6.8794,6.8794,6.8794,6.8794,6.8794,6.8794,6.8794,6.8794,6.8794,6.8794,6.8794,6.8794,6.8794,6.8794,6.8794,6.8794,6.8794,6.8794,6.8794,6.8794,6.8794,6.8794,6.8794,6.8794,6.8794,6.8794,6.8794,6.8794,6.8794,6.8794,6.8794,6.8794,6.8794,6.8794,6.8794,6.8794,6.8794,6.8794,6.8794,6.8794,6.8794,6.8794,6.8794,6.8794,6.8794,6.9001,6.9119,6.9119,6.9353,6.947,6.947,7.0239,7.1198,7.2234,7.3247,7.3722,7.3737,7.4538,7.4912,7.4912,7.4912,7.4912,7.4912,7.4912,7.4912,7.4912,7.4912,7.4912,7.4912,7.4912,7.4912,7.4912,5.7001,5.7001,5.7001,5.7001,5.7001,5.7001,5.7001,5.7001,5.7001,5.7001,5.7001,5.7001,5.7001,5.7001,5.7001,5.7001,5.7001,5.7001,5.7001,5.7001,5.7001,5.7001,5.7001,5.7001,5.7001,5.7001,5.7001,5.7001,5.7001,5.7001,5.7021,5.8256,5.8798,5.8857,6.0131,6.1108,6.1846,6.2627,6.3638,6.4832,6.6413,6.7322,6.7765,6.8511,6.8794,6.8794,6.8794,6.8794,6.8794,6.8794,6.8794,6.8794,6.8794,6.8794,6.8794,6.8794,6.8794,6.8794,6.8794,6.8794,6.8794,6.8794,6.8794,6.8794,6.8794,6.8794,6.8794,6.8794,6.8794,6.8794,6.8794,6.8794,6.8794,6.8794,6.8794,6.8794,6.8794,6.8794,6.8794,6.8794,6.8794,6.8794,6.8794,6.8794,6.8794,6.8794,6.8794,6.8794,6.8794,6.8794,6.8794,6.8794,6.8794,6.8794,6.8794,6.9337,6.9873,7.0449,7.1965,7.2937,7.3416,7.3919,7.4448,7.4912,7.4912,7.4912,7.4912,7.4912,7.4912,7.4912,7.4912,7.4912,7.4912,7.4912,7.4912,7.4912,5.7001,5.7001,5.7001,5.7001,5.7001,5.7001,5.7001,5.7001,5.7001,5.7001,5.7001,5.7001,5.7001,5.7001,5.7001,5.7001,5.7001,5.7001,5.7001,5.7001,5.7001,5.7001,5.7001,5.7001,5.7001,5.7001,5.7001,5.7001,5.7001,5.7001,5.7021,5.8021,5.8486,5.8525,5.9593,6.0412,6.1057,6.2357,6.3336,6.4183,6.6283,6.7166,6.7403,6.8273,6.8625,6.8642,6.876,6.8794,6.8794,6.8794,6.8794,6.8794,6.8794,6.8794,6.8794,6.8794,6.8794,6.8794,6.8794,6.8794,6.8794,6.8794,6.8794,6.8794,6.8794,6.8794,6.8794,6.8794,6.8794,6.8794,6.8794,6.8794,6.8794,6.8794,6.8794,6.8794,6.8794,6.8794,6.8794,6.8794,6.8794,6.8794,6.8794,6.8794,6.8794,6.8794,6.8794,6.8794,6.8794,6.8794,6.8794,6.8794,6.8794,6.8794,6.8794,6.8794,6.8794,6.8828,7.0563,7.1902,7.2891,7.3061,7.3676,7.4627,7.4627,7.4748,7.4912,7.4912,7.4912,7.4912,7.4912,7.4912,7.4912,7.4912,7.4912,7.4912,5.7001,5.7001,5.7001,5.7001,5.7001,5.7001,5.7001,5.7001,5.7001,5.7001,5.7001,5.7001,5.7001,5.7001,5.7001,5.7001,5.7001,5.7001,5.7001,5.7001,5.7001,5.7001,5.7001,5.7001,5.7001,5.7001,5.7001,5.7001,5.7001,5.7001,5.7001,5.718,5.7235,5.7259,5.7414,5.7552,5.7745,5.9361,6.0514,6.1455,6.3747,6.5094,6.5869,6.7316,6.7833,6.7948,6.8591,6.8794,6.8794,6.8794,6.8794,6.8794,6.8794,6.8794,6.8794,6.8794,6.8794,6.8794,6.8794,6.8794,6.8794,6.8794,6.8794,6.8794,6.8794,6.8794,6.8794,6.8794,6.8794,6.8794,6.8794,6.8794,6.8794,6.8794,6.8794,6.8794,6.8794,6.8794,6.8794,6.8794,6.8794,6.8794,6.8794,6.8794,6.8794,6.8794,6.8794,6.8794,6.8794,6.8794,6.8794,6.8794,6.8794,6.8794,6.8794,6.8794,6.8794,6.8794,6.9068,6.9741,7.0732,7.1695,7.2657,7.3599,7.3599,7.4102,7.4912,7.4912,7.4912,7.4912,7.4912,7.4912,7.4912,7.4912,7.4912,7.4912,5.7001,5.7001,5.7001,5.7001,5.7001,5.7001,5.7001,5.7001,5.7001,5.7001,5.7001,5.7001,5.7001,5.7001,5.7001,5.7001,5.7001,5.7001,5.7001,5.7001,5.7001,5.7001,5.7001,5.7001,5.7001,5.7001,5.7001,5.7001,5.7001,5.7001,5.7001,5.7001,5.7001,5.7001,5.7001,5.7001,5.71,5.8511,5.9709,6.0894,6.3013,6.4473,6.5585,6.7125,6.7696,6.7799,6.8528,6.8794,6.8794,6.8794,6.8794,6.8794,6.8794,6.8794,6.8794,6.8794,6.8794,6.8794,6.8794,6.8794,6.8794,6.8794,6.8794,6.8794,6.8794,6.8794,6.8794,6.8794,6.8794,6.8794,6.8794,6.8794,6.8794,6.8794,6.8794,6.8794,6.8794,6.8794,6.8794,6.8794,6.8794,6.8794,6.8794,6.8794,6.8794,6.8794,6.8794,6.8794,6.8794,6.8794,6.8794,6.8794,6.8794,6.8794,6.8794,6.8794,6.8794,6.8794,6.8794,6.9337,7.0321,7.0794,7.1583,7.2563,7.2563,7.3123,7.4072,7.4072,7.4388,7.4912,7.4912,7.4912,7.4912,7.4912,7.4912,7.4912]},{"header":{"parameterUnit":"m.s-1","parameterCategory":1,"la1":30.6,"la2":28.766,"lo1":-90.7593,"lo2":-88.6598,"dx":0.0162,"dy":0.0183,"nx":116,"ny":114,"refTime":"2022-12-15T06:00:00:Z","depth":0,"parameterNumber":3,"parameterNumberName":"V-component_of_WINDS"},"data":[0.0,0.0,0.0,0.0,0.0,0.0,0.0,0.0,0.0,0.0,0.0,0.0,0.0,0.0,0.0,0.0,0.0,0.0,0.0,0.0,0.0,0.0,0.0,0.0,0.0,0.0,0.0,0.0,0.0,0.0,0.0,0.0,0.0,0.0,0.0,0.0,0.0,0.0,0.0,0.0,0.0,0.0,0.0,0.0,0.0,0.0,0.0,0.0,0.0,0.0,0.0,0.0,0.0,0.0,0.0,0.0,0.0,0.0,0.0,0.0,0.0,0.0,0.0,0.0,0.0,0.0,0.0,0.0,0.0,0.0,0.0,0.0,0.0,0.0,0.0,0.0,0.0,0.0,0.0,0.0,0.0,0.0,0.0,0.0,0.0,0.0,0.0,0.0,0.0,0.0,0.0,0.0,0.0,0.0,0.0,0.0,0.0,0.0,0.0,0.0,0.0,0.0,0.0,0.0,0.0,0.0,0.0,0.0,0.0,0.0,0.0,0.0,0.0,0.0,0.0,0.0,0.0,0.0,0.0,0.0,0.0,0.0,0.0,0.0,0.0,0.0,0.0,0.0,0.0,0.0,0.0,0.0,0.0,0.0,0.0,0.0,0.0,0.0,0.0,0.0,0.0,0.0,0.0,0.0,0.0,0.0,0.0,0.0,0.0,0.0,0.0,0.0,0.0,0.0,0.0,0.0,0.0,0.0,0.0,0.0,0.0,0.0,0.0,0.0,0.0,0.0,0.0,0.0,0.0,0.0,0.0,0.0,0.0,0.0,0.0,0.0,0.0,0.0,0.0,0.0,0.0,0.0,0.0,0.0,0.0,0.0,0.0,0.0,0.0,0.0,0.0,0.0,0.0,0.0,0.0,0.0,0.0,0.0,0.0,0.0,0.0,0.0,0.0,0.0,0.0,0.0,0.0,0.0,0.0,0.0,0.0,0.0,0.0,0.0,0.0,0.0,0.0,0.0,0.0,0.0,0.0,0.0,0.0,0.0,0.0,0.0,0.0,0.0,0.0,0.0,0.0,0.0,0.0,0.0,0.0,0.0,0.0,0.0,0.0,0.0,0.0,0.0,0.0,0.0,0.0,0.0,0.0,0.0,0.0,0.0,0.0,0.0,0.0,0.0,0.0,0.0,0.0,0.0,0.0,0.0,0.0,0.0,0.0,0.0,0.0,0.0,0.0,0.0,0.0,0.0,0.0,0.0,0.0,0.0,0.0,0.0,0.0,0.0,0.0,0.0,0.0,0.0,0.0,0.0,0.0,0.0,0.0,0.0,0.0,0.0,0.0,0.0,0.0,0.0,0.0,0.0,0.0,0.0,0.0,0.0,0.0,0.0,0.0,0.0,0.0,0.0,0.0,0.0,0.0,0.0,0.0,0.0,0.0,0.0,0.0,0.0,0.0,0.0,0.0,0.0,0.0,0.0,0.0,0.0,0.0,0.0,0.0,0.0,0.0,0.0,0.0,0.0,0.0,0.0,0.0,0.0,0.0,0.0,0.0,0.0,0.0,0.0,0.0,0.0,0.0,0.0,0.0,0.0,0.0,0.0,0.0,0.0,0.0,0.0,0.0,0.0,0.0,0.0,0.0,0.0,0.0,0.0,0.0,0.0,0.0,0.0,0.0,0.0,0.0,0.0,0.0,0.0,0.0,0.0,0.0,0.0,0.0,0.0,0.0,0.0,0.0,0.0,0.0,0.0,0.0,0.0,0.0,0.0,0.0,0.0,0.0,0.0,0.0,0.0,0.0,0.0,0.0,0.0,0.0,0.0,0.0,0.0,0.0,0.0,0.0,0.0,0.0,0.0,0.0,0.0,0.0,0.0,0.0,0.0,0.0,0.0,0.0,0.0,0.0,0.0,0.0,0.0,0.0,0.0,0.0,0.0,0.0,0.0,0.0,0.0,0.0,0.0,0.0,0.0,0.0,0.0,0.0,0.0,0.0,0.0,0.0,0.0,0.0,0.0,0.0,0.0,0.0,0.0,0.0,0.0,0.0,0.0,0.0,0.0,0.0,0.0,0.0,0.0,0.0,0.0,0.0,0.0,0.0,0.0,0.0,0.0,0.0,0.0,0.0,0.0,0.0,0.0,0.0,0.0,0.0,0.0,0.0,0.0,0.0,0.0,0.0,0.0,0.0,0.0,0.0,0.0,0.0,0.0,0.0,0.0,0.0,0.0,0.0,0.0,0.0,0.0,0.0,0.0,0.0,0.0,0.0,0.0,0.0,0.0,0.0,0.0,0.0,0.0,0.0,0.0,0.0,0.0,0.0,0.0,0.0,0.0,0.0,0.0,0.0,0.0,0.0,0.0,0.0,0.0,0.0,0.0,0.0,0.0,0.0,0.0,0.0,0.0,0.0,0.0,0.0,0.0,0.0,0.0,0.0,0.0,0.0,0.0,0.0,0.0,0.0,0.0,0.0,0.0,0.0,0.0,0.0,0.0,0.0,0.0,0.0,0.0,0.0,0.0,0.0,0.0,0.0,0.0,0.0,0.0,0.0,0.0,0.0,0.0,0.0,0.0,0.0,0.0,0.0,0.0,0.0,0.0,0.0,0.0,0.0,0.0,0.0,0.0,0.0,0.0,0.0,0.0,0.0,0.0,0.0,0.0,0.0,0.0,0.0,0.0,0.0,0.0,0.0,0.0,0.0,0.0,0.0,0.0,0.0,0.0,0.0,0.0,0.0,0.0,0.0,0.0,0.0,0.0,0.0,0.0,0.0,0.0,0.0,0.0,0.0,0.0,0.0,0.0,0.0,0.0,0.0,0.0,0.0,0.0,0.0,0.0,0.0,0.0,0.0,0.0,0.0,0.0,0.0,0.0,0.0,0.0,0.0,0.0,0.0,0.0,0.0,0.0,0.0,0.0,0.0,0.0,0.0,0.0,0.0,0.0,0.0,0.0,0.0,0.0,0.0,0.0,0.0,0.0,0.0,0.0,0.0,0.0,0.0,0.0,0.0,0.0,0.0,0.0,0.0,0.0,0.0,0.0,0.0,0.0,0.0,0.0,0.0,0.0,0.0,0.0,0.0,0.0,0.0,0.0,0.0,0.0,0.0,0.0,0.0,0.0,0.0,0.0,0.0,0.0,0.0,0.0,0.0,0.0,0.0,0.0,0.0,0.0,0.0,0.0,0.0,0.0,0.0,0.0,0.0,0.0,0.0,0.0,0.0,0.0,0.0,0.0,0.0,0.0,0.0,0.0,0.0,0.0,0.0,0.0,0.0,0.0,0.0,0.0,0.0,0.0,0.0,0.0,0.0,0.0,0.0,0.0,0.0,0.0,0.0,0.0,0.0,0.0,0.0,0.0,0.0,0.0,0.0,0.0,0.0,0.0,0.0,0.0,0.0,0.0,0.0,0.0,0.0,0.0,0.0,0.0,0.0,0.0,0.0,0.0,0.0,0.0,0.0,0.0,0.0,0.0,0.0,0.0,0.0,0.0,0.0,0.0,0.0,0.0,0.0,0.0,0.0,0.0,0.0,0.0,0.0,0.0,0.0,0.0,0.0,0.0,0.0,0.0,0.0,0.0,0.0,0.0,0.0,0.0,0.0,0.0,0.0,0.0,0.0,0.0,0.0,0.0,0.0,0.0,0.0,0.0,0.0,0.0,0.0,0.0,0.0,0.0,0.0,0.0,0.0,0.0,0.0,0.0,0.0,0.0,0.0,0.0,0.0,0.0,0.0,0.0,0.0,0.0,0.0,0.0,0.0,0.0,0.0,0.0,0.0,0.0,0.0,0.0,0.0,0.0,0.0,0.0,0.0,0.0,0.0,0.0,0.0,0.0,0.0,0.0,0.0,0.0,0.0,0.0,0.0,0.0,0.0,0.0,0.0,0.0,0.0,0.0,0.0,0.0,0.0,0.0,0.0,0.0,0.0,0.0,0.0,0.0,0.0,0.0,0.0,0.0,0.0,0.0,0.0,0.0,0.0,0.0,0.0,0.0,0.0,0.0,0.0,0.0,0.0,0.0,0.0,0.0,0.0,0.0,0.0,0.0,0.0,0.0,0.0,0.0,0.0,0.0,0.0,0.0,0.0,0.0,0.0,0.0,0.0,0.0,0.0,0.0,0.0,0.0,0.0,0.0,0.0,0.0,0.0,0.0,0.0,0.0,0.0,0.0,0.0,0.0,0.0,0.0,0.0,0.0,0.0,0.0,0.0,0.0,0.0,0.0,0.0,0.0,0.0,0.0,0.0,0.0,0.0,0.0,0.0,0.0,0.0,0.0,0.0,0.0,0.0,0.0,0.0,0.0,0.0,0.0,0.0,0.0,0.0,0.0,0.0,0.0,0.0,0.0,0.0,0.0,0.0,0.0,0.0,0.0,0.0,0.0,0.0,0.0,0.0,0.0,0.0,0.0,0.0,0.0,0.0,0.0,0.0,0.0,0.0,0.0,0.0,0.0,0.0,0.0,0.0,0.0,0.0,0.0,0.0,0.0,0.0,0.0,0.0,0.0,0.0,0.0,0.0,0.0,0.0,0.0,0.0,0.0,0.0,0.0,0.0,0.0,0.0,0.0,0.0,0.0,0.0,0.0,0.0,0.0,0.0,0.0,0.0,0.0,0.0,0.0,0.0,0.0,0.0,0.0,0.0,0.0,0.0,0.0,0.0,0.0,0.0,0.0,0.0,0.0,0.0,0.0,0.0,0.0,0.0,0.0,0.0,0.0,0.0,0.0,0.0,0.0,0.0,0.0,0.0,0.0,0.0,0.0,0.0,0.0,0.0,0.0,0.0,0.0,0.0,0.0,0.0,0.0,0.0,0.0,0.0,0.0,0.0,0.0,0.0,0.0,0.0,0.0,0.0,0.0,0.0,0.0,0.0,0.0,0.0,0.0,0.0,0.0,0.0,0.0,0.0,0.0,0.0,0.0,0.0,0.0,0.0,0.0,0.0,0.0,0.0,0.0,0.0,0.0,0.0,0.0,0.0,0.0,0.0,0.0,0.0,0.0,0.0,0.0,0.0,0.0,0.0,0.0,0.0,0.0,0.0,0.0,0.0,0.0,0.0,0.0,0.0,0.0,0.0,0.0,0.0,0.0,0.0,0.0,0.0,0.0,0.0,0.0,0.0,0.0,0.0,0.0,0.0,0.0,0.0,0.0,0.0,0.0,0.0,0.0,0.0,0.0,0.0,0.0,0.0,0.0,0.0,0.0,0.0,0.0,0.0,0.0,0.0,0.0,0.0,0.0,0.0,0.0,0.0,0.0,0.0,0.0,0.0,0.0,0.0,0.0,0.0,0.0,0.0,0.0,0.0,0.0,0.0,0.0,0.0,0.0,0.0,0.0,0.0,0.0,0.0,0.0,0.0,0.0,0.0,0.0,0.0,0.0,0.0,0.0,0.0,0.0,0.0,0.0,0.0,0.0,0.0,0.0,0.0,0.0,0.0,0.0,0.0,0.0,0.0,0.0,0.0,0.0,0.0,0.0,0.0,0.0,0.0,0.0,0.0,0.0,0.0,0.0,0.0,0.0,0.0,0.0,0.0,0.0,0.0,0.0,0.0,0.0,0.0,0.0,0.0,0.0,0.0,0.0,0.0,0.0,0.0,0.0,0.0,0.0,0.0,0.0,0.0,0.0,0.0,0.0,0.0,0.0,0.0,0.0,0.0,0.0,0.0,0.0,0.0,0.0,0.0,0.0,0.0,0.0,0.0,0.0,0.0,0.0,0.0,0.0,0.0,0.0,0.0,0.0,0.0,0.0,0.0,0.0,0.0,0.0,0.0,0.0,0.0,0.0,0.0,0.0,0.0,0.0,0.0,0.0,0.0,0.0,0.0,0.0,0.0,0.0,0.0,0.0,0.0,0.0,0.0,0.0,0.0,0.0,0.0,0.0,0.0,0.0,0.0,0.0,0.0,0.0,0.0,0.0,0.0,0.0,0.0,0.0,0.0,0.0,0.0,0.0,0.0,0.0,0.0,0.0,0.0,0.0,0.0,0.0,0.0,0.0,0.0,0.0,0.0,0.0,0.0,0.0,0.0,0.0,0.0,0.0,0.0,0.0,0.0,0.0,0.0,0.0,0.0,0.0,0.0,0.0,0.0,0.0,0.0,0.0,0.0,0.0,0.0,0.0,0.0,0.0,0.0,0.0,0.0,0.0,1.7621,1.678,0.0,0.0,0.0,0.0,0.0,0.0,0.0,0.0,0.0,0.0,0.0,0.0,0.0,0.0,0.0,0.0,0.0,0.0,0.0,0.0,0.0,0.0,0.0,1.2691,1.2979,1.324,1.3523,0.0,0.0,0.0,0.0,0.0,0.0,0.0,0.0,0.0,1.3947,1.3924,1.5693,1.7197,1.8426,1.7647,1.745,1.7679,0.0,0.0,0.0,0.0,0.0,0.0,0.0,0.0,0.0,0.0,0.0,0.0,0.0,0.0,0.0,0.0,0.0,0.0,0.0,0.0,0.0,0.0,0.0,0.0,0.0,0.0,0.0,0.0,0.0,0.0,0.0,0.0,0.0,0.0,0.0,0.0,0.0,0.0,0.0,0.0,0.0,0.0,0.0,0.0,0.0,0.0,0.0,0.0,0.0,0.0,0.0,0.0,0.0,0.0,0.0,0.0,0.0,0.0,0.0,0.0,0.0,0.0,0.0,0.0,0.0,0.0,0.0,0.0,0.0,0.0,1.9337,1.8456,0.0,0.0,0.0,0.0,0.0,0.0,0.0,0.0,0.0,0.0,0.0,0.0,0.0,0.0,0.0,0.0,0.0,0.0,0.0,0.0,0.0,1.2531,1.3129,1.3685,1.4202,1.464,1.5048,1.5186,1.4913,1.3967,0.0,0.0,0.0,0.0,1.3273,1.4746,1.5728,1.6158,1.782,1.9639,2.1576,2.1123,2.0771,2.0396,1.824,0.0,0.0,0.0,0.0,0.0,0.0,0.0,0.0,0.0,0.0,0.0,0.0,0.0,0.0,0.0,0.0,0.0,0.0,0.0,0.0,0.0,0.0,0.0,0.0,0.0,0.0,0.0,0.0,0.0,0.0,0.0,0.0,0.0,0.0,0.0,0.0,0.0,0.0,0.0,0.0,0.0,0.0,0.0,0.0,0.0,0.0,0.0,0.0,0.0,0.0,0.0,0.0,0.0,0.0,0.0,0.0,0.0,0.0,0.0,0.0,0.0,0.0,0.0,2.1538,2.1551,2.1551,2.1551,2.17,2.1898,2.0792,2.0073,1.9663,1.9701,0.0,0.0,0.0,0.0,0.0,0.0,0.0,0.0,0.0,0.0,0.0,0.0,0.0,0.0,0.0,0.0,0.0,0.0,0.0,1.3783,1.431,1.4653,1.4879,1.4934,1.4694,1.4524,1.4479,1.4858,0.0,0.0,0.0,1.5573,1.4838,1.6308,1.7125,1.7187,1.9607,2.1591,2.3109,2.304,2.321,2.3497,2.1001,1.9899,1.9777,0.0,0.0,0.0,0.0,0.0,0.0,0.0,0.0,0.0,0.0,0.0,0.0,0.0,0.0,0.0,0.0,0.0,0.0,0.0,0.0,0.0,0.0,0.0,0.0,0.0,0.0,0.0,0.0,0.0,0.0,0.0,0.0,0.0,0.0,0.0,0.0,0.0,0.0,0.0,0.0,0.0,1.7153,1.7187,0.0,0.0,0.0,0.0,0.0,0.0,0.0,0.0,0.0,0.0,0.0,0.0,0.0,2.1896,2.2294,2.2621,2.2809,2.2847,2.3187,2.3361,2.3353,2.3353,2.3387,2.3425,2.3534,0.0,2.1897,2.2068,0.0,0.0,0.0,0.0,0.0,0.0,0.0,0.0,0.0,0.0,0.0,0.0,0.0,0.0,0.0,0.0,0.0,0.0,0.0,0.0,0.0,1.6406,1.6681,1.7671,1.7593,1.7297,1.686,1.7099,0.0,0.0,1.6755,1.6811,1.6406,1.8465,2.0228,2.1614,2.2739,2.3934,2.5142,2.5142,2.5266,2.5436,2.4016,2.2576,2.1176,2.0013,0.0,0.0,0.0,0.0,0.0,0.0,0.0,0.0,0.0,0.0,0.0,0.0,0.0,0.0,0.0,0.0,0.0,0.0,0.0,0.0,0.0,0.0,0.0,0.0,0.0,0.0,0.0,0.0,0.0,0.0,0.0,0.0,0.0,0.0,0.0,0.0,0.0,0.0,0.0,1.7074,1.7736,1.8388,1.8456,1.8532,0.0,0.0,0.0,0.0,0.0,0.0,0.0,0.0,0.0,2.2603,2.2621,2.3014,2.3833,2.3977,2.4254,2.4665,2.4658,2.4744,2.4932,2.4754,2.4772,2.4935,2.5093,2.4833,2.4282,2.3726,2.2974,2.2185,0.0,0.0,0.0,0.0,2.1694,2.1472,0.0,0.0,0.0,0.0,0.0,0.0,0.0,0.0,0.0,0.0,0.0,0.0,1.773,1.7853,1.8299,1.9486,1.9504,1.9197,1.8578,1.876,1.8655,1.8118,1.8369,1.8363,1.8005,2.035,2.2679,2.4903,2.504,2.5725,2.6894,2.6894,2.694,2.7032,2.6529,2.5017,2.282,2.2073,2.1683,2.146,0.0,0.0,0.0,0.0,0.0,0.0,0.0,0.0,0.0,0.0,0.0,0.0,0.0,0.0,0.0,0.0,0.0,0.0,0.0,0.0,0.0,0.0,0.0,0.0,0.0,0.0,0.0,0.0,0.0,0.0,0.0,0.0,0.0,0.0,0.0,0.0,0.0,1.8189,1.8857,1.98,2.0017,2.02,0.0,0.0,0.0,0.0,0.0,0.0,2.2954,2.3006,2.3229,2.3669,2.3772,2.422,2.5075,2.5075,2.54,2.605,2.5803,2.5871,2.6202,2.5957,2.5974,2.6219,2.6219,2.6219,2.6133,2.5075,2.4165,2.3485,2.3629,2.3473,2.3173,2.3289,2.3219,2.3108,0.0,0.0,0.0,0.0,0.0,0.0,0.0,0.0,0.0,0.0,0.0,1.7777,1.7376,1.8511,1.9152,1.8802,1.8396,1.8168,1.8125,1.8963,1.9045,1.8141,2.0339,2.0942,1.9607,2.1576,2.3382,2.4903,2.5408,2.645,2.7918,2.7918,2.816,2.8573,2.8102,2.7011,2.5398,2.3912,2.3829,2.4467,2.2081,0.0,0.0,0.0,0.0,0.0,0.0,0.0,0.0,0.0,0.0,0.0,0.0,0.0,0.0,0.0,0.0,0.0,0.0,0.0,0.0,0.0,0.0,0.0,0.0,0.0,0.0,0.0,0.0,0.0,0.0,0.0,0.0,0.0,0.0,0.0,0.0,0.0,0.0,2.1811,2.2195,0.0,0.0,0.0,0.0,2.2984,2.2714,2.3006,2.4066,2.4118,2.4473,2.5269,2.5586,2.5794,2.5831,2.5831,2.6065,2.6471,2.6454,2.666,2.7052,2.7034,2.7019,2.7052,2.7052,2.7052,2.6968,2.6153,2.5606,2.5261,2.5272,2.5049,2.473,2.5132,2.4899,2.4452,0.0,0.0,0.0,1.32,1.3169,1.3356,1.3914,1.4175,1.4803,1.6106,1.7049,1.8094,1.9396,2.0043,2.0621,2.1213,2.1415,2.139,2.1078,2.2341,2.25,2.1124,2.2266,2.2986,2.3038,2.4085,2.5532,2.7346,2.7886,2.8425,2.8987,2.9619,2.9848,2.9654,2.9504,2.8953,2.8024,2.6185,2.5394,2.5293,2.375,2.2914,0.0,0.0,0.0,0.0,0.0,0.0,0.0,0.0,0.0,0.0,0.0,0.0,0.0,0.0,0.0,0.0,0.0,0.0,0.0,0.0,0.0,0.0,0.0,0.0,0.0,0.0,0.0,0.0,0.0,0.0,0.0,0.0,0.0,0.0,0.0,0.0,0.0,2.2672,2.3074,0.0,2.3473,2.3379,2.3554,2.4148,2.408,2.4401,2.5247,2.5534,2.5806,2.6094,2.6473,2.6782,2.6989,2.6989,2.721,2.7586,2.733,2.7415,2.7808,2.7551,2.7552,2.7808,2.7808,2.7808,2.779,2.7501,2.7021,2.6503,2.6503,2.6417,2.63,2.6437,2.6353,2.6194,0.0,0.0,0.0,1.3787,1.3787,1.397,1.4515,1.4964,1.5766,1.7303,1.8218,1.9326,2.0934,2.1489,2.2146,2.3179,2.3354,2.3297,2.3022,2.4332,2.4375,2.2782,2.355,2.4542,2.5651,2.6013,2.7188,2.9206,2.9562,2.9917,3.0296,3.0962,3.1088,3.0744,3.0744,3.0572,3.0158,2.8469,2.7356,2.6601,2.5256,2.4604,2.4251,0.0,0.0,0.0,0.0,0.0,0.0,0.0,0.0,0.0,0.0,0.0,0.0,0.0,0.0,0.0,0.0,0.0,0.0,0.0,0.0,0.0,0.0,0.0,0.0,0.0,0.0,0.0,0.0,0.0,0.0,0.0,0.0,0.0,0.0,2.2286,2.2903,2.3258,2.3751,2.4124,2.4257,2.4377,2.4693,2.5343,2.5363,2.5637,2.627,2.6662,2.6867,2.6867,2.7259,2.7585,2.7809,2.7929,2.8186,2.8563,2.8443,2.8564,2.8939,2.8682,2.8683,2.8939,2.8939,2.8939,2.8939,2.8939,2.8648,2.8152,2.767,2.7465,2.7482,2.7619,2.7585,2.7482,0.0,0.0,1.3787,1.3787,1.3787,1.3992,1.4568,1.5661,1.6838,1.8009,2.009,2.1527,2.1719,2.2745,2.3701,2.433,2.3848,2.3534,2.3631,2.4613,2.4501,2.2946,2.4232,2.5692,2.7189,2.7267,2.8266,3.025,3.0262,3.0813,3.1859,3.1847,3.1847,3.1859,3.1859,3.1836,3.1755,3.0698,2.9677,2.8609,2.6578,2.6083,2.6319,0.0,0.0,0.0,0.0,0.0,0.0,0.0,0.0,0.0,0.0,0.0,0.0,0.0,0.0,0.0,0.0,0.0,0.0,0.0,0.0,0.0,0.0,0.0,0.0,0.0,0.0,0.0,0.0,0.0,0.0,0.0,0.0,0.0,2.2175,2.2694,2.331,2.3717,2.4388,2.4987,2.5406,2.5723,2.6085,2.6505,2.654,2.6711,2.7105,2.745,2.7655,2.7655,2.8049,2.827,2.827,2.8664,2.9008,2.9334,2.9727,3.0104,3.0395,3.0395,3.0395,3.0395,3.0395,3.0395,3.0395,3.0395,3.0395,3.0258,2.8837,2.827,2.8322,2.8716,2.8613,2.8323,1.3862,1.3787,1.3787,1.3787,1.3787,1.4284,1.5692,1.6189,1.7261,1.9659,2.0226,2.088,2.2133,2.3377,2.4157,2.4247,2.5151,2.5385,2.4602,2.6292,2.7151,2.6703,2.6973,2.7359,2.7779,2.8834,3.0032,3.1364,3.1697,3.2225,3.2904,3.3236,3.3213,3.2881,3.2881,3.2662,3.2283,3.164,3.1204,3.0744,2.8321,2.7458,2.7412,0.0,0.0,0.0,0.0,0.0,0.0,0.0,0.0,0.0,0.0,0.0,0.0,0.0,0.0,0.0,0.0,0.0,0.0,0.0,0.0,0.0,0.0,0.0,0.0,0.0,0.0,0.0,0.0,0.0,0.0,0.0,2.4424,2.3827,2.3622,2.4015,2.4473,2.4878,2.5343,2.5757,2.6163,2.6268,2.661,2.7244,2.7295,2.7467,2.7876,2.8494,2.882,2.882,2.9454,2.9796,2.9796,2.9899,3.0001,3.0104,3.0207,3.0309,3.0395,3.0395,3.0395,3.0395,3.0395,3.0395,3.0395,3.0395,3.0395,3.0361,2.995,2.9796,2.9813,2.9916,2.9899,2.9813,1.3883,1.3787,1.3787,1.3787,1.3996,1.4568,1.5818,1.6629,1.7973,2.0378,2.0878,2.1546,2.3013,2.404,2.4767,2.5172,2.6274,2.6643,2.5998,2.7305,2.8416,2.9099,2.9217,2.9262,2.9262,3.0514,3.1582,3.2421,3.2892,3.3384,3.3935,3.4211,3.4188,3.3925,3.3925,3.3627,3.3098,3.2628,3.2306,3.1939,3.0261,2.9308,2.878,2.7461,2.6693,2.6234,2.545,2.5047,2.4723,2.3684,0.0,0.0,0.0,0.0,0.0,0.0,0.0,0.0,0.0,0.0,0.0,0.0,0.0,0.0,0.0,0.0,0.0,0.0,0.0,0.0,0.0,0.0,0.0,0.0,2.5036,2.471,2.471,2.4915,2.5241,2.58,2.6182,2.6559,2.6919,2.7107,2.7465,2.8065,2.8237,2.8494,2.8888,2.9437,2.9762,2.9762,3.019,3.0395,3.0395,3.0566,3.0652,3.0634,3.0823,3.0909,3.0909,3.0909,3.0909,3.0909,3.0909,3.0909,3.0909,3.0909,3.0909,3.0874,0.0,0.0,0.0,0.0,3.0617,3.0874,1.3974,1.385,1.3829,1.38,1.4254,1.4829,1.5509,1.7016,1.8752,2.0549,2.174,2.2812,2.3911,2.4621,2.5405,2.632,2.7018,2.7436,2.7548,2.7942,2.8853,3.0399,3.0858,3.1122,3.1168,3.2099,3.2869,3.3466,3.3935,3.444,3.4969,3.4969,3.4946,3.4877,3.4877,3.4601,3.4073,3.3649,3.319,3.2708,3.2237,3.1376,3.0273,2.9309,2.8414,2.7578,2.7091,2.6894,2.6577,2.491,0.0,0.0,0.0,0.0,0.0,0.0,0.0,0.0,0.0,0.0,0.0,0.0,0.0,0.0,0.0,0.0,0.0,0.0,0.0,0.0,0.0,0.0,0.0,0.0,2.5496,2.5492,2.5577,2.5594,2.5834,2.6488,2.6951,2.7362,2.7706,2.8083,2.8493,2.8887,2.923,2.9573,2.995,3.0275,0.0,0.0,0.0,3.0532,3.0532,3.0891,3.108,3.1062,3.1423,3.1595,3.1595,3.1595,3.1595,3.1595,3.1595,3.1595,3.1595,3.1595,3.1595,3.1526,3.0823,3.0532,3.0532,3.0532,3.0994,3.156,1.4284,1.4203,1.4121,1.3841,1.4254,1.496,1.6058,1.7277,1.8872,2.1067,2.2014,2.2751,2.3452,2.4878,2.5646,2.5266,2.6546,2.7689,2.8394,2.8937,2.972,3.0824,3.1319,3.1765,3.2202,3.2823,3.3581,3.4509,3.4978,3.5474,3.6006,3.6006,3.5786,3.5369,3.5369,3.5093,3.4647,3.4555,3.444,3.4303,3.3787,3.2718,3.1363,3.0767,3.0423,3.0204,2.9677,2.9251,2.8819,2.8081,2.7103,2.6083,2.552,2.4472,0.0,0.0,0.0,0.0,0.0,0.0,0.0,0.0,0.0,0.0,0.0,0.0,0.0,0.0,0.0,0.0,0.0,0.0,0.0,2.6503,2.6101,2.6031,2.6677,2.6777,2.6829,2.6966,2.7585,2.815,2.8527,2.8871,2.9265,2.9675,3.0001,3.0224,3.0309,3.0669,3.0891,3.0891,3.12,3.1371,3.1371,3.1457,3.1474,3.1474,3.156,0.0,3.1595,3.1595,3.1595,3.1595,3.1595,3.1595,3.1595,3.1595,3.1595,3.1577,3.144,3.1371,3.1371,3.1371,3.1475,3.1595,1.4659,1.4284,1.3994,1.382,1.4485,1.5243,1.587,1.7408,1.9139,2.0871,2.1905,2.2671,2.3272,2.4613,2.5288,2.4924,2.6856,2.8413,2.9145,3.0108,3.0859,3.134,3.2086,3.2741,3.3224,3.3787,3.4418,3.5139,3.5657,3.6038,3.6305,3.6305,3.6167,3.5887,3.5887,3.5611,3.5139,3.5139,3.5001,3.4785,3.4509,3.3946,3.3142,3.2132,3.1582,3.1317,3.1088,3.0847,3.0537,2.9805,2.8732,2.762,2.7191,2.6072,2.4903,0.0,0.0,0.0,0.0,0.0,0.0,0.0,0.0,0.0,0.0,0.0,0.0,0.0,0.0,2.8893,2.7585,0.0,2.7814,2.7375,2.6848,2.6875,2.8006,2.8027,2.7945,2.7945,2.8408,2.8905,2.9315,2.9642,2.9933,3.0138,3.0498,3.0703,3.0703,3.108,3.1303,3.1303,3.1509,3.1595,3.1595,3.1595,3.1595,3.1595,3.1595,3.1595,3.1595,3.1595,3.1595,3.1595,3.1595,3.1595,3.1595,3.1595,3.1697,3.185,3.185,3.1748,3.1595,3.1595,3.1595,3.1595,1.4985,1.4369,1.387,1.38,1.4751,1.5509,1.5509,1.7361,1.9165,2.0366,2.1518,2.2418,2.2934,2.4033,2.4794,2.4899,2.7167,2.883,2.9321,3.0911,3.1747,3.157,3.2715,3.357,3.3981,3.4532,3.5083,3.5657,3.6084,3.6305,3.6305,3.6305,3.6305,3.6305,3.6305,3.6061,3.5657,3.5657,3.5451,3.5083,3.4992,3.4946,3.4785,3.3453,3.2614,3.2143,3.2088,3.2031,3.1822,3.1008,2.9925,2.8897,2.8584,2.7364,2.6043,2.6146,2.6105,0.0,0.0,0.0,0.0,0.0,0.0,0.0,0.0,2.845,2.8524,2.8826,2.9691,2.9988,2.8664,2.8646,2.8665,2.8111,2.7632,2.7813,2.9225,2.9296,2.9163,2.9039,2.9248,2.9573,2.9967,3.0309,3.0532,3.0532,3.0891,3.1114,3.1114,3.1423,3.1595,3.1595,3.1595,3.1595,3.1595,3.1595,3.1595,3.1595,3.1595,3.1629,3.1697,3.1697,3.1731,3.1817,3.1817,3.1817,3.1817,3.1817,3.197,3.2226,3.2226,3.2056,3.1817,3.1817,3.1817,3.1817,1.5266,1.4702,1.415,1.3841,1.4751,1.5509,1.5509,1.7016,1.861,1.976,2.0878,2.1639,2.1785,2.324,2.4376,2.485,2.6809,2.8032,2.8113,3.0526,3.1703,3.11,3.2687,3.3695,3.3994,3.4532,3.5244,3.6213,3.6259,3.6305,3.6305,3.6305,3.6305,3.6305,3.6305,3.6259,3.6213,3.6213,3.619,3.6098,3.5598,3.5414,3.5369,3.4762,3.4211,3.3706,3.3282,3.2835,3.2409,3.228,3.0991,2.9501,2.9843,2.8376,2.6602,2.7028,2.6841,2.651,2.6395,2.7025,2.7788,2.8264,2.8421,2.8781,0.0,3.0401,3.0312,3.0009,3.092,3.0893,2.7999,2.8665,2.9418,2.8658,2.8261,2.8563,2.9973,3.0519,3.0511,2.9843,2.9813,2.9967,3.0309,3.0703,3.0925,3.0925,3.132,3.1525,3.1525,3.1577,3.1595,3.1595,3.1595,3.1595,3.1595,3.1595,3.1595,3.1595,3.1595,3.1765,3.2037,3.2037,3.2244,3.2571,3.2571,3.2571,3.2571,3.2571,3.2605,3.2621,3.2621,3.2605,3.2571,3.2571,3.2571,3.2571,1.5344,1.5077,1.4818,1.4605,1.5069,1.5509,1.5509,1.6969,1.8369,1.9179,2.0289,2.1042,2.1082,2.2576,2.3699,2.401,2.6184,2.729,2.667,2.9332,3.0834,3.056,3.1785,3.2839,3.3581,3.4073,3.4831,3.5841,3.6144,3.6305,3.6305,3.6305,3.6305,3.6305,3.6305,3.6305,3.6305,3.6305,3.6305,3.6259,3.5726,3.5703,3.5877,3.5083,3.467,3.4395,3.3889,3.3397,0.0,3.2973,3.159,3.0095,3.1197,2.9802,2.7926,2.874,2.8613,2.8226,2.8496,2.8649,2.8884,2.9642,2.9829,3.0036,3.0898,3.1118,3.1051,3.0894,3.1689,3.2007,3.0689,3.1011,3.1436,3.129,3.0962,3.1199,3.26,3.266,3.2746,3.3257,3.226,3.1334,3.0806,3.1114,3.1354,3.1354,3.1491,3.1595,3.1595,3.1595,3.1595,3.1595,3.1595,3.1595,3.1595,3.1782,3.1902,3.1902,3.2125,3.2314,3.245,3.245,3.2535,3.2708,3.2708,3.2828,3.305,3.305,3.3152,3.3339,3.3339,3.3494,3.3616,3.2948,3.2708,3.2708,1.5702,1.5626,1.557,1.5525,1.5743,1.5887,1.5764,1.6942,1.8061,1.861,1.9438,2.0169,2.0646,2.1786,2.2681,2.3092,2.5141,2.6178,2.5681,2.8174,2.9772,3.0009,3.1032,3.206,3.3065,3.3558,3.4303,3.53,3.5832,3.6084,3.6084,3.6236,3.6305,3.6305,3.6305,3.6213,3.6084,3.6236,3.6144,3.5891,3.5772,3.5795,3.5809,3.5221,3.4831,3.4509,3.3981,3.3489,3.3075,3.3075,3.1788,3.0478,3.1984,3.0702,2.8844,2.9862,2.9762,2.9435,3.0036,2.9932,2.987,3.0691,3.0898,3.0981,3.1312,3.1581,3.1768,3.1768,3.2478,3.3012,3.2752,3.2788,3.2921,3.3193,3.2905,3.3114,3.4424,3.4446,3.4481,3.4909,3.4235,3.3187,3.1739,3.1878,3.1929,3.1612,3.1876,3.1912,3.1612,3.1876,3.1964,3.1731,3.2032,3.2102,3.1903,3.2465,3.2585,3.2277,3.2898,3.3088,3.2879,3.3085,3.317,3.3187,3.329,3.3427,3.3599,3.3719,3.3905,3.4126,3.4126,3.4316,3.4472,3.3633,3.3342,3.3342,1.6532,1.6456,1.6317,1.6531,1.6775,1.6822,1.6436,1.6859,1.7434,1.8041,1.8171,1.8831,2.0509,2.0751,2.1223,2.2341,2.3445,2.4503,2.5443,2.7301,2.8703,2.9491,3.0681,3.169,3.2525,3.3065,3.381,3.4831,3.53,3.5529,3.5529,3.6061,3.6305,3.6305,3.6305,3.6015,3.5552,3.6084,3.574,3.4923,3.5891,3.5694,3.49,3.5323,3.4864,3.3958,3.3489,3.2983,3.2524,3.2524,3.1498,3.0468,3.1937,3.0699,2.8888,2.9819,2.9715,2.9497,3.0421,3.067,3.0774,3.1263,3.1388,3.1388,3.1408,3.205,3.2657,3.2657,3.3424,3.3793,3.2875,3.2961,3.3217,3.3294,3.3172,3.3427,3.4464,3.5375,3.5145,3.304,3.4925,3.5529,3.3344,3.3137,3.2718,3.1683,3.2561,3.2701,3.1647,3.2596,3.2826,3.2107,3.3162,3.3393,3.2656,3.3837,3.3855,3.2709,3.3873,3.4031,3.3309,3.4027,3.4352,3.437,3.4764,3.4712,3.4404,3.4781,3.4952,3.4952,3.4952,3.4969,3.4969,3.4935,3.4935,3.4935,1.7238,1.7282,1.7302,1.7564,1.7463,1.734,1.7338,1.7248,1.7277,1.7486,1.7852,0.0,0.0,0.0,0.0,0.0,2.2664,2.3642,2.4083,2.6317,2.7925,2.8534,3.0407,3.1531,3.1701,3.2876,3.3826,3.4482,3.4858,3.5037,3.5037,3.5221,3.5303,3.5303,3.5303,3.5198,3.5024,3.4854,3.4591,3.428,3.4293,3.4293,3.4326,3.4854,3.4588,3.3981,0.0,3.3213,3.2501,3.2501,3.1919,3.1461,3.2972,3.2132,3.0537,3.0512,3.0588,3.0753,3.1084,3.136,3.1678,3.2154,3.2513,3.2637,3.2319,3.2727,3.3078,3.276,3.3451,3.4013,3.3679,3.4187,3.4784,3.51,3.5366,3.5776,3.642,3.7057,3.7175,3.6438,3.644,3.6214,3.5463,3.4056,3.3363,3.3763,3.3415,3.3363,3.378,3.3669,3.3851,3.4403,3.4576,3.4921,3.5484,3.6458,3.6331,3.5082,3.4912,3.4686,3.4438,3.4678,3.4798,3.4798,3.4935,3.5055,3.5138,3.5275,3.5326,3.5326,3.5326,3.5326,3.5326,3.5326,3.5498,3.5672,1.7938,1.8057,1.8144,1.8407,1.8109,0.0,0.0,0.0,0.0,0.0,0.0,0.0,0.0,0.0,0.0,0.0,0.0,2.2536,2.2991,2.4966,2.6557,2.7459,2.9482,3.0741,3.1017,3.2195,3.3143,3.3839,3.4152,3.4407,3.4618,3.4741,3.4808,3.4808,3.4808,3.4693,3.4486,3.4142,3.4004,3.3958,3.3489,3.3489,3.3752,3.3706,3.3269,0.0,3.2856,3.2397,3.1743,3.2123,3.203,3.1898,3.2863,3.2283,3.1169,3.0823,3.1022,3.1457,3.1788,3.2188,3.2609,3.3085,3.3424,3.3569,3.3265,3.3569,3.3797,3.3513,3.3921,3.4392,3.4543,3.49,3.5397,3.6002,3.6478,3.697,3.7425,3.7897,3.8037,3.7653,3.7314,3.6941,3.6536,3.5207,3.4521,3.4865,3.4721,3.4781,3.5126,3.5229,3.5493,3.5996,3.6354,3.6787,3.7285,3.8433,3.8367,3.7102,3.5665,3.529,3.5842,3.5391,3.543,3.5839,3.5526,3.5518,3.572,3.5837,3.5994,3.6114,3.6114,3.6114,3.6114,3.6114,3.6268,3.6388,1.8634,1.8758,1.8824,0.0,0.0,0.0,0.0,0.0,0.0,0.0,0.0,0.0,0.0,0.0,0.0,0.0,0.0,0.0,2.229,2.3444,2.4769,2.6264,2.8022,2.9376,3.0269,3.0996,3.1861,3.2888,3.3205,3.3635,3.4193,3.4517,3.4656,3.463,3.4653,3.4377,3.3894,3.3871,3.3871,3.3825,3.3332,3.3123,3.3006,3.2029,3.1053,3.0262,3.0847,3.0709,3.0388,3.141,3.1789,3.1818,3.179,3.1389,3.0915,3.083,3.1126,3.1685,3.2547,3.312,3.3584,3.4019,3.4143,3.4123,3.4102,3.4454,3.4801,3.478,3.4821,3.4972,3.534,3.5122,3.5179,3.6002,3.6519,3.6991,3.7425,3.7897,3.7803,3.6722,3.7532,3.777,3.6728,3.6626,3.6219,3.5234,3.6423,3.6777,3.5842,3.7177,3.7679,3.7028,3.8451,3.8901,3.8271,3.978,3.9958,3.8728,3.6366,3.6031,3.7425,3.6204,3.63,3.7342,3.6519,3.6148,3.6183,3.6488,3.6847,3.7189,3.7189,3.7189,3.7189,3.7189,3.7189,3.7107,0.0,0.0,0.0,0.0,0.0,0.0,0.0,0.0,0.0,0.0,0.0,0.0,0.0,0.0,0.0,0.0,0.0,0.0,2.286,2.3688,2.4455,2.5252,2.7385,2.8261,2.7607,2.9757,3.1009,3.1284,3.2076,3.2512,3.2668,3.2741,3.2541,3.2124,3.2488,3.2582,3.2489,3.2077,3.1948,3.1935,3.1371,3.0878,3.0514,3.1008,3.0767,3.0319,3.1261,3.1249,3.0847,3.1111,3.1684,3.2273,3.2519,3.2734,3.2795,3.2322,3.252,3.301,3.359,3.4081,3.4454,3.4593,3.462,3.4516,3.4185,3.4454,3.4697,3.435,3.506,3.5687,3.5443,3.5894,3.6349,3.6597,3.7011,3.7363,3.7467,3.7897,3.8108,3.7803,3.8021,3.8198,3.8204,3.8211,3.8391,3.8818,3.7817,3.7591,3.8468,3.8684,3.9126,3.9838,4.0378,4.0981,4.1625,4.1483,4.1242,4.0877,3.9386,3.8511,3.8216,3.7875,3.7568,3.7254,3.7029,3.6919,3.6936,3.7001,3.7124,3.7189,3.7189,3.7189,3.7189,3.7189,3.7189,3.7155,0.0,0.0,0.0,0.0,0.0,0.0,0.0,0.0,0.0,0.0,0.0,0.0,0.0,0.0,0.0,0.0,0.0,0.0,0.0,2.289,2.3478,2.3797,2.6023,2.7061,2.6651,2.866,3.0077,3.083,3.1009,3.149,3.2215,3.1907,3.1693,3.1618,3.187,3.2002,3.2011,3.1496,3.1389,0.0,0.0,2.9971,2.9791,2.9711,2.9504,2.932,2.9917,3.0365,3.0697,3.1088,3.1441,3.1822,3.2167,3.2457,3.2602,3.2445,3.3016,3.3812,3.4268,3.4723,3.506,3.506,3.506,3.4957,3.4495,3.4614,3.478,3.4688,3.4962,3.5376,3.5935,3.6106,3.6313,3.6742,3.7198,3.757,3.7794,3.8042,3.827,3.8444,3.8464,3.863,3.9068,3.9278,3.9809,4.0735,3.9572,3.9301,4.0371,4.0478,4.0809,4.1483,4.1802,4.2355,4.3203,4.219,4.1793,4.1991,4.0759,3.998,3.9608,3.9059,3.8513,3.8002,3.7439,3.7296,3.745,3.745,3.7553,3.7686,3.7686,3.7686,3.7686,3.7686,3.7686,3.7686,0.0,0.0,0.0,0.0,0.0,0.0,0.0,0.0,0.0,1.8584,1.8349,1.8401,1.897,1.9499,0.0,0.0,0.0,0.0,0.0,0.0,2.2269,2.2277,2.4256,2.5563,2.6005,2.72,2.8612,3.0208,2.9732,3.0318,3.1853,3.1292,3.1245,3.1602,3.1675,3.17,3.1686,3.1276,3.1277,3.1429,2.9976,2.9537,2.9581,0.0,2.7803,2.7826,2.8033,2.8999,3.0319,3.1199,3.1269,3.1057,3.1438,3.1581,3.165,3.2071,3.3141,3.4288,3.4744,3.5128,3.5402,3.5402,3.5361,3.5231,3.4889,3.4801,3.4889,3.5169,3.4714,3.4744,3.6246,3.5961,3.5754,3.6561,3.7156,3.7653,3.8146,3.8249,3.8423,3.8844,3.8886,3.9092,3.9626,4.004,4.0699,4.1687,4.1397,4.1314,4.1685,4.214,4.241,4.2472,4.2807,4.3223,4.3678,4.2603,4.2263,4.2742,4.1638,4.1214,4.1414,4.0316,3.97,3.9449,3.8163,3.7808,3.8122,3.7932,3.8032,3.8302,3.8302,3.8302,3.8302,3.8302,3.8302,3.8302,0.0,0.0,0.0,0.0,0.0,0.0,0.0,0.0,0.0,0.0,1.9656,1.9002,0.0,0.0,0.0,0.0,0.0,0.0,0.0,0.0,0.0,2.1668,2.2518,2.2813,2.2419,2.4013,2.5231,2.6039,2.7285,2.8317,2.9097,2.9463,2.9416,2.8969,2.9428,2.9657,2.968,2.9566,2.9549,2.9553,2.8348,2.7584,2.7115,2.6857,0.0,0.0,2.8137,2.9274,3.0319,3.1199,3.1496,3.1533,3.1818,3.2182,3.2567,3.3016,3.3874,3.4765,3.519,3.534,3.5402,3.5402,3.5148,3.4889,3.4821,3.4801,3.4718,3.4392,3.4776,3.5169,3.5158,3.5604,3.6023,3.6188,3.6949,3.7653,3.8146,3.8485,3.8861,3.9337,3.9378,3.9727,4.0572,4.0735,4.1296,4.258,4.2603,4.2435,4.2182,4.2559,4.2954,4.3366,4.343,4.3699,4.4174,4.3961,4.4091,4.4543,4.4327,4.3878,4.3233,4.3011,4.2492,4.1661,4.0342,3.9789,3.9776,3.8669,3.825,3.8302,3.8302,3.8302,3.8302,3.8302,3.8302,3.8302,0.0,0.0,0.0,0.0,0.0,0.0,0.0,2.0358,2.0871,2.2622,2.1838,2.1133,2.1159,2.0871,2.0681,0.0,0.0,0.0,0.0,0.0,0.0,2.108,2.1629,2.1936,2.1975,2.3066,2.4222,2.5414,0.0,2.6791,2.7933,2.7932,2.7919,2.7901,2.8467,2.8742,2.8804,2.9086,2.9023,2.867,2.8151,2.7354,2.6505,2.6497,0.0,0.0,2.816,2.9183,3.0011,3.1169,3.1576,3.1594,3.166,3.2319,3.3058,3.3037,3.401,3.5148,3.534,3.5588,3.5712,3.5449,3.5625,3.5599,3.464,3.462,3.4676,3.4185,3.4051,3.4223,3.4962,3.5081,3.5226,3.565,3.6519,3.7301,3.7773,3.8402,3.8968,3.944,3.9709,4.0244,4.1169,4.1498,4.2081,4.3182,4.3265,4.318,4.2992,4.3159,4.3472,4.3967,4.3967,4.4194,4.465,4.465,4.4898,4.5354,4.5354,4.4883,4.4012,4.4012,4.3374,4.2262,4.1635,4.1341,4.1299,4.0647,3.9971,3.9331,3.9331,3.8905,3.8302,3.8302,3.8302,3.8302,0.0,0.0,0.0,0.0,0.0,0.0,0.0,2.1811,2.2491,2.4241,2.3849,2.3275,2.2994,2.221,2.1511,0.0,0.0,0.0,0.0,0.0,0.0,0.0,0.0,0.0,2.2041,0.0,0.0,2.5059,2.4898,0.0,0.0,0.0,0.0,0.0,2.7628,2.7906,2.8071,2.8534,2.8507,0.0,0.0,2.7385,2.6547,0.0,0.0,0.0,0.0,2.8895,2.953,3.0836,3.1423,3.1565,3.1324,3.2162,3.3196,3.2919,3.3995,3.5299,3.5506,3.5754,3.5899,3.5754,3.6039,3.6013,3.4578,3.4469,3.4454,3.3776,3.3223,3.323,3.445,3.4424,3.4454,3.5024,3.608,3.697,3.7425,3.8241,3.901,3.9585,4.0061,4.0717,4.1664,4.2078,4.266,4.3513,4.3596,4.3596,4.3596,4.3698,4.3925,4.4298,4.4401,4.467,4.5166,4.5147,4.5374,4.583,4.583,4.5452,4.474,4.474,4.4145,4.3134,4.2844,4.274,4.2719,4.2428,4.1698,4.0732,4.0732,3.9908,3.873,3.873,3.8559,3.8302,0.0,0.0,0.0,0.0,0.0,0.0,0.0,2.3041,2.3667,2.5417,2.4678,2.4196,2.4704,2.3296,2.2296,0.0,0.0,0.0,0.0,0.0,0.0,0.0,0.0,0.0,0.0,0.0,0.0,2.2715,2.3707,0.0,0.0,0.0,0.0,0.0,0.0,2.6347,2.6868,2.6928,0.0,0.0,0.0,0.0,0.0,0.0,0.0,0.0,0.0,2.8367,2.8924,2.9913,3.0842,3.149,3.0944,3.1681,3.2836,3.3223,3.406,3.5034,3.5832,3.5754,3.5671,3.6473,3.5826,3.4946,3.4765,3.4448,3.3776,3.2485,3.2795,3.3134,3.245,3.3637,3.462,3.4288,3.5682,3.697,3.7425,3.8241,3.9113,4.0019,4.0551,4.119,4.214,4.2265,4.266,4.3513,4.3596,4.3596,4.3596,4.3989,4.4256,4.4298,4.4712,4.5147,4.5643,4.5643,4.585,4.6245,4.6245,4.6205,4.6124,4.6124,4.6064,4.5861,4.4637,4.4104,4.4022,4.2803,4.2241,4.2137,4.2137,4.1299,4.0119,4.0119,3.9352,3.8302,0.0,0.0,0.0,0.0,0.0,0.0,2.3038,2.2622,2.304,2.5487,2.4816,2.445,2.538,2.4249,2.2994,2.1936,0.0,0.0,0.0,0.0,0.0,0.0,0.0,0.0,0.0,0.0,2.1949,2.2878,2.3334,0.0,0.0,0.0,0.0,0.0,0.0,2.6494,2.6711,2.7027,0.0,0.0,0.0,0.0,0.0,0.0,0.0,0.0,0.0,0.0,2.8808,2.9488,3.0389,3.1187,3.1176,3.1515,3.2064,3.2756,3.401,3.5293,3.5919,3.639,3.6618,3.6432,3.6183,3.5723,3.462,3.4226,3.3776,3.2657,3.2491,3.2526,3.245,3.2801,3.3244,3.3625,3.4962,3.6209,3.697,3.832,3.9461,4.0123,4.0862,4.1581,4.2223,4.2515,4.2932,4.3534,4.3863,4.4029,4.4029,4.4194,4.4567,4.5126,4.5312,4.5623,4.6058,4.6058,4.6141,4.6307,4.6307,4.6307,4.6307,4.6307,4.6307,4.6266,4.5739,4.5495,4.5474,4.4924,4.4247,4.3507,4.3507,4.2678,4.1425,4.0605,4.0111,3.9708,0.0,0.0,0.0,0.0,0.0,2.2057,2.3281,2.2778,2.3066,2.5268,2.485,2.4719,2.5704,2.4782,2.3529,2.2125,2.1576,0.0,0.0,0.0,0.0,0.0,0.0,0.0,0.0,0.0,2.2491,2.3484,2.3648,2.4032,0.0,0.0,2.5238,2.5264,0.0,0.0,0.0,0.0,0.0,0.0,0.0,0.0,0.0,0.0,0.0,0.0,0.0,0.0,0.0,0.0,0.0,3.0569,3.111,3.1353,3.1619,3.262,3.3705,3.4746,3.5521,3.6096,3.6468,3.6349,3.594,3.5381,3.4646,3.4066,3.3451,3.2657,3.245,3.2429,3.2477,3.2553,3.2795,3.3335,3.4652,3.5878,3.6701,3.8361,3.973,4.0327,4.1338,4.2101,4.2451,4.287,4.3244,4.3594,4.4029,4.436,4.4505,4.4629,4.5022,4.5684,4.5809,4.6017,4.6307,4.6307,4.6307,4.6307,4.6307,4.6307,4.6307,4.6307,4.6307,4.6307,4.6307,4.6307,4.6307,4.6307,4.5739,4.4883,4.4883,4.4063,4.2782,4.1996,4.1351,4.0733,0.0,0.0,0.0,0.0,0.0,0.0,2.391,2.4084,2.4301,2.494,2.4992,2.5186,2.5748,2.4782,2.3849,2.3249,2.18,0.0,0.0,0.0,0.0,0.0,0.0,0.0,0.0,0.0,2.3484,2.4084,2.4689,2.5264,2.5775,2.5801,2.5801,2.5801,0.0,0.0,0.0,0.0,0.0,0.0,0.0,0.0,0.0,0.0,0.0,0.0,0.0,0.0,0.0,0.0,0.0,0.0,0.0,3.1137,3.1749,3.3016,3.3078,3.3029,3.4433,3.4475,3.4558,3.6349,3.4761,3.3215,3.4988,3.4001,3.2574,3.2119,3.2747,3.3114,3.2181,3.3141,3.3936,3.3466,3.4921,3.625,3.6726,3.8361,3.9851,4.0776,4.2083,4.2892,4.2892,4.3306,4.3575,4.3596,4.4029,4.4505,4.496,4.5435,4.5684,4.5705,4.6099,4.6307,4.6307,4.6307,4.6307,4.6307,4.6307,4.6307,4.6307,4.6307,4.6307,4.6307,4.6307,4.6307,4.6307,4.6307,4.6286,4.6286,4.6286,4.5474,4.4328,4.4784,4.3223,4.0955,0.0,0.0,0.0,0.0,0.0,0.0,0.0,2.2512,2.2107,2.3088,2.3224,2.3569,2.4529,2.3954,2.3405,2.3222,2.2428,0.0,0.0,0.0,0.0,0.0,0.0,0.0,0.0,0.0,2.4118,2.4715,2.5275,2.5626,2.5801,2.6216,2.6407,2.6433,2.6801,2.7062,0.0,0.0,0.0,0.0,0.0,0.0,2.6765,0.0,0.0,0.0,0.0,0.0,0.0,0.0,0.0,0.0,0.0,0.0,0.0,3.2058,3.2795,3.3341,3.4123,3.4205,3.4309,3.5221,3.4294,3.3443,3.4417,3.3638,3.2771,3.305,3.2998,3.2836,3.2533,3.2843,3.3306,3.3812,3.5284,3.6708,3.7632,3.9214,4.0301,4.0418,4.1358,4.2373,4.3285,4.3513,4.3596,4.3596,4.4339,4.4836,4.4981,4.5706,4.612,4.612,4.6224,4.6307,4.6307,4.6307,4.6307,4.6307,4.6307,4.6307,4.6307,4.6307,4.6307,4.6307,4.6307,4.6307,4.6307,4.6307,4.6307,4.6307,4.6307,4.6043,4.5617,4.5157,4.4006,4.2567,0.0,0.0,0.0,0.0,0.0,0.0,0.0,2.1747,2.1518,2.2002,2.2419,2.3066,2.4006,2.3562,2.3133,2.2985,2.2293,0.0,0.0,0.0,0.0,0.0,0.0,0.0,2.2481,2.357,2.4624,2.5646,2.6407,2.6783,2.6783,2.7409,2.7435,2.7035,2.735,2.7498,0.0,0.0,0.0,0.0,0.0,0.0,2.6789,0.0,0.0,0.0,0.0,0.0,0.0,0.0,0.0,0.0,0.0,0.0,0.0,0.0,3.249,3.309,3.3738,3.3745,3.3853,3.4953,3.4031,3.3226,3.4603,3.3619,3.2732,3.3727,3.3275,3.2769,3.2998,3.2994,3.3265,3.4205,3.5484,3.6834,3.8221,3.9602,4.071,4.1415,4.1708,4.2391,4.3739,4.3699,4.3658,4.3863,4.4567,4.5083,4.525,4.5934,4.6307,4.6307,4.6307,4.6307,4.6307,4.6307,4.6307,4.6307,4.6307,4.6307,4.6307,4.6307,4.6307,4.6307,4.6307,4.6307,0.0,4.6307,4.6307,4.6307,4.6307,4.641,4.6515,4.6164,4.5055,4.3647,0.0,0.0,0.0,0.0,0.0,0.0,0.0,2.1623,2.2094,2.1511,2.2387,2.3301,2.3842,2.3377,2.2902,2.2508,0.0,0.0,0.0,0.0,0.0,0.0,0.0,0.0,2.2557,2.368,2.5087,2.6763,2.7906,2.8481,2.8525,2.9135,2.8804,2.7759,2.7646,2.7576,0.0,0.0,0.0,0.0,0.0,0.0,0.0,0.0,0.0,0.0,0.0,0.0,0.0,0.0,0.0,0.0,0.0,0.0,0.0,0.0,0.0,0.0,0.0,3.3113,3.3166,3.523,3.3855,3.2671,3.5215,3.3848,0.0,3.4145,3.3544,3.2884,3.3494,3.3517,3.375,3.4682,3.5676,3.6922,3.8613,3.9626,4.103,4.3244,4.2764,4.2783,4.4112,4.3863,4.3782,4.4256,4.4733,4.5188,4.5684,4.6079,4.6307,4.6307,4.6307,4.6307,4.6307,4.6307,4.6307,4.6307,4.6307,4.6307,4.6307,4.6307,4.6307,4.6307,4.6307,4.6307,4.6307,4.6307,4.6307,4.6286,4.6348,4.6617,4.7051,4.7568,4.6191,4.4171,0.0,0.0,0.0,0.0,0.0,0.0,0.0,0.0,0.0,0.0,2.1466,2.1942,2.2106,2.1701,2.1408,0.0,0.0,0.0,0.0,0.0,0.0,0.0,0.0,0.0,2.3235,2.4324,2.5677,2.7324,2.8499,2.9309,2.9701,3.0329,3.0443,3.0146,2.9257,2.8351,0.0,0.0,0.0,0.0,0.0,0.0,0.0,0.0,0.0,0.0,2.8711,2.9054,0.0,0.0,0.0,0.0,0.0,0.0,0.0,0.0,3.1598,3.2324,3.292,0.0,3.2612,3.3848,3.3057,3.2504,0.0,3.3636,3.2908,3.4246,3.3544,3.2884,3.3494,3.3775,3.4226,3.5107,3.7238,3.891,3.9284,3.9833,4.0802,4.2412,4.212,4.2288,4.3635,4.3658,4.3782,4.4256,4.4733,4.5188,4.5684,4.6079,4.6307,4.6307,4.6307,4.6307,4.6307,4.6307,4.6307,4.6307,4.6307,4.6307,4.6307,4.6307,4.6307,4.6307,4.6307,4.6307,4.6307,4.6307,4.6307,4.6348,4.67,4.6906,4.7093,4.792,4.6472,4.4171,0.0,0.0,0.0,0.0,0.0,0.0,0.0,0.0,0.0,0.0,0.0,2.1433,0.0,0.0,0.0,0.0,0.0,0.0,0.0,0.0,0.0,0.0,0.0,2.2332,2.3483,2.4829,2.6298,2.7907,2.9605,3.0468,3.052,3.1095,3.1095,3.0546,2.9397,2.836,0.0,0.0,0.0,0.0,2.7498,0.0,0.0,0.0,0.0,0.0,2.9442,2.9796,0.0,2.9633,2.9578,2.9839,0.0,0.0,0.0,0.0,3.1638,3.2322,3.2446,3.268,3.3083,3.3829,3.3367,3.3134,3.4578,3.3784,3.319,3.4963,3.4328,3.3732,3.4497,3.5381,3.5997,3.6029,3.8146,3.9868,4.0108,4.0347,4.1027,4.2393,4.2203,4.235,4.3472,4.3782,4.4112,4.4588,4.5043,4.5519,4.5954,4.6183,4.6307,4.6307,4.6307,4.6307,4.6307,4.6307,4.6307,4.6307,4.6307,4.6307,4.6307,4.6307,4.6307,4.6307,4.6307,4.6307,4.6307,4.6307,4.6431,4.6638,4.6906,4.7258,4.7693,4.821,4.7139,4.5375,0.0,0.0,0.0,0.0,0.0,0.0,0.0,0.0,0.0,0.0,0.0,0.0,0.0,0.0,0.0,0.0,0.0,0.0,0.0,0.0,0.0,0.0,0.0,2.2535,2.3737,2.5326,2.7032,2.8917,3.0955,3.1843,3.1663,3.2026,3.1536,3.0309,2.9274,2.842,2.7733,0.0,0.0,2.7629,2.7629,0.0,0.0,0.0,0.0,0.0,0.0,0.0,0.0,3.051,3.0284,3.0432,3.0771,0.0,0.0,0.0,0.0,0.0,3.2043,3.2891,3.3898,3.427,3.4038,3.3968,3.4916,3.4066,3.3699,3.5824,3.5306,3.4847,3.6019,3.7194,3.7756,3.7122,3.8635,4.0231,4.1101,4.104,4.1392,4.2708,4.259,4.2681,4.3409,4.3987,4.4505,4.496,4.5435,4.5871,4.6286,4.6307,4.6307,4.6307,4.6307,4.6307,4.6307,4.6307,4.6307,4.6307,4.6307,4.6307,4.6307,4.6307,4.6307,4.6307,4.6307,4.6307,4.6307,4.6389,4.6638,4.701,4.7175,4.7713,4.8397,4.848,4.7875,4.6751,0.0,0.0,0.0,0.0,0.0,0.0,0.0,0.0,0.0,0.0,0.0,0.0,0.0,0.0,0.0,0.0,0.0,0.0,0.0,0.0,0.0,2.2361,2.2559,2.3369,2.4913,2.6088,2.8198,3.1285,3.214,3.3273,3.4633,3.4214,3.3123,3.151,3.0895,3.0024,2.8943,2.7855,2.7724,2.8272,2.8272,0.0,0.0,0.0,0.0,0.0,0.0,0.0,0.0,3.0757,3.0617,3.1078,3.0869,0.0,0.0,0.0,0.0,0.0,3.1967,3.3208,3.4194,3.3833,3.3998,3.4204,3.3947,3.4417,3.5119,3.59,3.5446,3.5502,3.7406,3.7358,3.7228,3.7889,3.8876,4.0336,4.2461,4.1696,4.1358,4.2581,4.2781,4.2851,4.2996,4.3782,4.4505,4.496,4.5435,4.5871,4.6286,4.6307,4.6307,4.6307,4.6307,4.6307,4.6307,4.6307,4.6307,4.6307,4.6307,4.6307,4.6307,4.6307,4.6307,4.6307,4.6307,4.6307,4.6327,4.672,4.6927,4.7072,4.7879,4.8273,4.8438,4.8853,4.814,4.6621,0.0,0.0,0.0,0.0,0.0,0.0,0.0,0.0,0.0,0.0,0.0,0.0,0.0,0.0,0.0,0.0,0.0,0.0,0.0,0.0,0.0,2.3173,2.3433,2.4181,2.5553,2.6961,2.8866,3.1306,3.2566,3.3911,3.5286,3.4685,3.3326,3.1356,3.1113,3.0364,2.9266,2.8699,2.8438,2.8455,0.0,0.0,0.0,0.0,0.0,0.0,0.0,0.0,0.0,0.0,3.1044,3.1088,3.1207,0.0,0.0,0.0,0.0,0.0,3.2813,3.3768,3.4571,3.4825,3.5176,3.5414,3.5448,3.5603,3.6065,3.7316,3.7287,3.7451,3.8781,3.9683,4.0486,4.1308,4.0886,4.1279,4.3589,4.2728,4.2508,4.4291,4.3552,4.3268,4.4222,4.4528,4.4857,4.5333,4.5788,4.6099,4.6286,4.6307,4.6307,4.6307,4.6307,4.6307,4.6307,4.6307,4.6307,4.6307,4.6307,4.6307,4.6307,4.6307,4.6307,4.6307,4.6307,4.6451,4.67,4.6906,4.7299,4.7796,4.8231,4.8542,4.879,4.9018,4.8201,4.6815,0.0,0.0,0.0,0.0,0.0,0.0,0.0,0.0,0.0,0.0,0.0,0.0,0.0,0.0,0.0,0.0,0.0,0.0,0.0,0.0,2.2228,2.3515,2.3862,2.4877,2.6685,2.7947,2.9685,3.1838,3.3296,3.4382,3.5077,3.4894,3.3587,3.1411,3.1411,3.0826,2.9885,2.9597,2.9231,2.8856,0.0,0.0,0.0,0.0,0.0,0.0,0.0,0.0,0.0,0.0,0.0,0.0,0.0,0.0,0.0,3.1947,3.2319,3.2437,3.3519,3.4267,3.4947,3.5845,3.6353,3.6679,3.6842,3.7041,3.7518,3.8664,3.9025,3.9351,4.0085,4.1515,4.2873,4.3808,4.2484,4.2052,4.4205,4.3536,4.3515,4.553,4.4244,4.3751,4.5197,4.5136,4.5188,4.5663,4.6079,4.6307,4.6307,4.6307,4.6307,4.6307,4.6307,4.6307,4.6307,4.6307,4.6307,4.6307,4.6307,4.6307,4.6307,4.6307,4.6307,4.6307,4.6431,4.6679,4.701,4.7237,4.7755,4.8418,4.8521,4.877,4.9102,4.9102,4.8201,4.701,0.0,0.0,0.0,0.0,0.0,0.0,0.0,0.0,0.0,0.0,0.0,0.0,0.0,0.0,0.0,0.0,0.0,0.0,0.0,0.0,2.1922,2.3449,2.3538,2.5314,2.9066,2.921,3.0985,3.46,3.5003,3.492,3.4476,3.5495,3.4763,3.2578,3.2578,3.2218,3.1536,3.0492,3.0031,2.9979,3.0083,0.0,0.0,0.0,0.0,0.0,0.0,0.0,0.0,0.0,0.0,0.0,0.0,0.0,3.0633,3.201,3.2053,3.1972,3.3413,3.4457,3.5337,3.6084,3.6936,3.7399,3.6709,3.8562,4.0156,3.9116,3.9525,4.0378,4.1294,4.1223,4.1538,4.3032,4.2171,4.199,4.3962,4.3568,4.3569,4.4917,4.4453,4.4244,4.4786,4.4948,4.5188,4.5663,4.6079,4.6307,4.6307,4.6307,4.6307,4.6307,4.6307,4.6307,4.6307,4.6307,4.6307,4.6307,4.6307,4.6307,4.6307,4.6307,4.6307,4.6327,4.6762,4.6968,4.7051,4.7941,4.8335,4.8438,4.8894,4.9081,4.9102,4.9102,4.8201,4.701,0.0,0.0,0.0,0.0,0.0,0.0,0.0,0.0,0.0,0.0,0.0,0.0,0.0,0.0,0.0,0.0,0.0,0.0,0.0,2.1737,2.2671,2.3993,2.3647,2.5282,2.9193,2.8833,3.0548,3.4524,3.5767,3.5887,3.4972,3.5391,3.4763,3.3257,3.3257,3.2908,3.2323,3.1905,3.1503,3.1171,3.1171,3.1218,0.0,0.0,0.0,0.0,0.0,0.0,0.0,0.0,3.2373,3.2733,3.2362,3.2169,3.2417,3.4138,3.4046,3.3834,3.586,3.6432,3.6768,3.8139,3.8966,3.9308,3.8745,3.9328,4.0097,4.0492,4.1098,4.2062,4.368,4.3017,4.2986,4.5145,4.4145,4.3744,4.5617,4.4683,4.4475,4.6396,4.5139,4.4923,4.6978,4.6562,4.6394,4.6838,4.7007,4.6871,4.6327,4.6307,4.6307,4.6307,4.6307,4.6307,4.6307,4.6307,4.6307,4.6307,4.6307,4.6307,4.6307,4.6307,4.6472,4.6741,4.6927,4.7341,4.79,4.8252,4.8563,4.8832,4.9039,4.9102,4.9102,4.9102,4.8759,4.8308,0.0,0.0,0.0,0.0,0.0,0.0,0.0,0.0,0.0,0.0,0.0,0.0,0.0,0.0,0.0,0.0,0.0,0.0,2.1226,2.1792,2.2679,2.381,2.3425,2.4919,2.8612,2.8401,3.0017,3.3647,3.5465,3.5974,3.5286,3.5114,3.4607,3.3859,3.3676,3.3362,3.2986,3.2986,3.2646,3.2068,3.1876,3.173,0.0,0.0,0.0,0.0,0.0,0.0,0.0,0.0,3.2896,3.3384,3.309,3.3199,3.3846,3.5888,3.5868,3.5613,3.7747,3.7947,3.7894,3.9359,3.985,4.0078,4.0686,4.0837,4.1133,4.2031,4.2745,4.3685,4.5238,4.4459,4.4246,4.6313,4.5411,4.4827,4.5893,4.5333,4.5404,4.7048,4.5966,4.6071,4.8621,4.7908,4.7378,4.7591,4.7832,4.7513,4.6367,4.6569,4.6569,4.6307,4.6307,4.6307,4.6307,4.6307,4.6307,4.6307,4.6307,4.6307,4.6307,4.6451,4.67,4.701,4.732,4.7817,4.8418,4.8563,4.8812,4.9102,4.9102,4.9102,4.9102,4.9102,4.9102,4.9102,0.0,0.0,0.0,0.0,0.0,0.0,0.0,0.0,0.0,0.0,0.0,0.0,0.0,0.0,0.0,0.0,0.0,0.0,2.1209,2.1209,2.1646,2.2664,2.2702,2.4219,2.749,2.8072,2.9591,3.2217,3.4026,3.5036,3.5286,3.4685,3.4397,3.4371,3.3833,3.3623,3.3623,3.3623,3.3247,3.2656,3.2042,3.1823,3.1716,0.0,0.0,0.0,0.0,0.0,0.0,0.0,3.2435,3.3945,3.3087,3.3448,3.4655,3.6922,3.7108,3.6942,3.8578,3.8655,3.852,3.9402,3.9165,3.9451,4.2197,4.332,4.3738,4.3647,4.4352,4.5142,4.5715,4.5175,4.4923,4.5958,4.5497,4.4845,4.43,4.5323,4.6215,4.6478,4.6931,4.779,4.9272,4.8692,4.8048,4.7651,4.841,4.8132,4.6408,4.7132,4.7193,4.6327,4.6307,4.6307,4.6307,4.6307,4.6307,4.6307,4.6286,4.6307,4.6327,4.6782,4.701,4.7051,4.8003,4.8397,4.8438,4.8915,4.9102,4.9102,4.9102,4.9102,4.9102,4.9102,4.9102,4.9102,0.0,0.0,0.0,0.0,0.0,0.0,0.0,0.0,0.0,0.0,0.0,0.0,0.0,0.0,0.0,0.0,0.0,0.0,2.1226,2.151,2.1837,2.2111,2.251,2.3665,2.5724,2.8214,3.0843,3.3592,3.5043,3.5362,3.4659,3.492,3.4607,3.3859,3.4068,3.4162,3.4162,3.4162,3.4058,3.3796,3.2829,3.2339,3.2097,0.0,0.0,0.0,0.0,0.0,0.0,0.0,0.0,0.0,3.3226,3.4054,3.5319,3.6767,3.6803,3.6905,3.927,3.9466,3.9285,4.0493,4.1448,4.2326,4.3285,4.275,4.2456,4.3991,4.4524,4.5198,4.6787,4.6132,4.5756,4.6943,4.6376,4.5712,4.5552,4.6195,4.6797,4.7229,4.7813,4.8738,5.0121,4.9814,4.9476,4.9376,4.9592,4.9002,4.7313,4.7473,4.7193,4.6327,4.6307,4.6307,4.6307,4.6307,4.6307,4.6286,4.6638,4.6782,4.6803,4.6927,4.7361,4.7982,4.8273,4.8583,4.8894,4.9039,4.9102,4.9102,4.9102,4.9102,4.9102,4.9102,4.9102,4.9102,0.0,0.0,0.0,0.0,0.0,0.0,0.0,0.0,2.1485,2.185,2.1917,2.2002,0.0,0.0,0.0,2.1533,2.1815,2.1792,2.1249,2.1463,2.1712,2.1888,2.2217,2.3434,2.5662,2.8316,3.0967,3.3609,3.4615,3.4972,3.4763,3.4868,3.4711,3.4277,3.4371,3.4397,3.4397,3.4397,3.4397,3.4319,3.3414,3.2788,3.2303,0.0,0.0,0.0,0.0,0.0,0.0,0.0,0.0,0.0,3.3785,3.4514,3.5508,3.7439,3.7678,3.7859,4.027,4.0664,4.0634,4.1635,4.257,4.3405,4.4086,4.3867,4.3898,4.5248,4.5827,4.6361,4.7166,4.7039,4.69,4.7255,4.6798,4.639,4.6274,4.6783,4.7398,4.8023,4.8846,4.9806,5.0827,5.072,5.0474,5.0121,5.0101,4.9376,4.7672,4.7592,4.7193,4.6327,4.6307,4.6307,4.6307,4.6307,4.6389,4.6576,4.6865,4.7196,4.7568,4.7568,4.7858,4.8418,4.8583,4.8832,4.9102,4.9102,4.9102,4.9102,4.9102,4.9102,4.9102,4.9102,4.9102,4.9102,0.0,0.0,0.0,0.0,0.0,0.0,0.0,2.2047,2.2496,2.257,2.2578,2.2584,0.0,0.0,0.0,2.1838,2.1447,2.1209,2.1209,2.1209,2.1392,2.1819,2.1937,2.3388,2.6413,2.8225,3.0179,3.2316,3.3177,3.411,3.5129,3.4685,3.4711,3.5129,3.4633,3.4397,3.4397,3.4397,3.4397,3.4345,3.3754,3.3084,3.2319,3.1486,0.0,0.0,0.0,0.0,0.0,0.0,0.0,0.0,3.4404,3.4769,3.5422,3.8391,3.9069,3.9297,4.1273,4.1906,4.2138,4.2675,4.2911,4.3321,4.4688,4.6032,4.6977,4.6998,4.7699,4.8079,4.7247,4.7821,4.8074,4.7063,4.6926,4.6879,4.6586,4.7217,4.8036,4.8809,4.9935,5.0861,5.1366,5.1412,5.108,5.0277,5.0218,4.9514,4.7911,4.7812,4.7393,4.6448,4.6428,4.6408,4.6369,4.6369,4.6596,4.7051,4.7113,4.7568,4.8397,4.8397,4.8418,4.848,4.8894,4.9102,4.9102,4.9102,4.9102,4.9102,4.9102,4.9102,4.9102,4.9102,4.9102,4.9102,0.0,0.0,0.0,0.0,0.0,0.0,2.1577,2.236,2.3031,2.3062,2.3145,2.3052,2.2645,2.2187,0.0,2.1376,2.1273,2.1209,2.1209,2.1209,2.1255,2.1354,2.2151,2.3082,2.4101,2.7085,2.8864,2.9321,3.2137,3.3668,3.3979,3.4748,3.4685,3.3989,3.4277,3.4397,3.4397,3.4397,3.4397,3.4319,3.331,3.2684,3.2297,3.1376,3.0794,0.0,0.0,0.0,0.0,0.0,0.0,0.0,3.3421,3.458,3.6028,3.7134,3.7955,3.8893,4.0589,4.1552,4.2218,4.2893,4.3623,4.4514,4.5593,4.6675,4.7491,4.7643,4.7718,4.7946,4.8538,4.8492,4.8074,4.7063,4.7206,4.7296,4.6874,4.7966,4.8992,4.9576,5.0582,5.1255,5.1389,5.1412,5.1335,5.1138,5.1118,5.0649,4.9612,4.9553,4.8864,4.7373,4.7333,4.7181,4.6844,4.6844,4.7092,4.7548,4.792,4.821,4.8397,4.8397,4.8604,4.8957,4.906,4.9102,4.9102,4.9102,4.9102,4.9102,4.9102,4.9102,4.9102,4.9102,4.9102,4.9102,0.0,0.0,0.0,0.0,0.0,0.0,0.0,0.0,2.3138,2.2949,2.2969,2.273,2.2009,2.1698,0.0,0.0,2.1209,2.1209,2.1209,2.1209,2.1209,2.1209,2.2232,2.2991,2.3433,2.5963,2.7768,2.883,3.1122,3.2721,3.3623,3.4476,3.4554,3.4016,3.458,3.4659,3.4397,3.4397,3.4397,3.4335,3.3642,3.3149,3.2747,3.2141,3.1625,3.1237,3.1436,0.0,0.0,0.0,0.0,0.0,0.0,0.0,3.5275,3.6695,3.7287,3.803,4.0258,4.1522,4.2522,4.388,4.495,4.576,4.6041,4.6873,4.7774,4.8349,4.8611,4.8795,4.9048,4.9112,4.8791,4.7775,4.7992,4.8221,4.7987,4.8837,4.9778,5.0517,5.109,5.1412,5.1412,5.1412,5.1412,5.1412,5.1021,5.0572,5.0121,4.9337,4.8508,4.7612,4.7403,4.721,4.6989,4.7217,4.7568,4.8045,4.8273,4.85,4.8728,4.8728,4.8852,4.9102,4.9102,4.9102,4.9102,4.9102,4.9102,4.9102,4.9102,4.9102,4.9102,4.9102,4.9102,4.9102,0.0,0.0,0.0,0.0,0.0,0.0,0.0,0.0,0.0,2.2769,2.2576,2.2187,2.1408,2.1257,2.1209,0.0,0.0,0.0,2.1209,2.1209,2.1209,2.1209,2.213,2.2854,2.3336,2.5127,2.7006,2.9004,3.037,3.1876,3.3467,3.4094,3.4397,3.4424,3.492,3.4868,3.4397,3.4397,3.4397,3.4387,3.4131,3.3742,3.3327,3.2993,3.2602,3.2206,3.2185,3.1991,3.1779,3.2275,0.0,0.0,0.0,0.0,3.4463,3.655,3.7095,3.7564,4.0023,4.1553,4.292,4.4898,4.6093,4.6609,4.6087,4.6942,4.8066,4.8818,4.9461,4.9782,4.9434,4.9713,4.9663,4.8584,4.8882,4.9227,4.9094,4.9622,5.0356,5.1297,5.1412,5.1412,5.1412,5.1412,5.1412,5.1412,5.0727,5.0316,5.0316,4.9002,4.8153,4.794,4.7618,4.738,4.7237,4.7631,4.8065,4.8521,4.8521,4.8707,4.9102,4.9102,4.9102,4.9102,4.9102,4.9102,4.9102,4.9102,4.9102,4.9102,4.9102,4.9102,4.9102,4.9102,4.9102,4.9102,0.0,0.0,0.0,0.0,0.0,0.0,0.0,0.0,0.0,0.0,2.2517,2.1947,2.1815,2.1439,2.1209,2.1209,2.1209,2.1209,2.1209,0.0,0.0,2.1209,2.1737,2.2229,2.2714,2.5335,2.7037,2.7742,3.0392,3.2078,3.2839,3.3901,3.4397,3.4397,3.4476,3.4486,3.4397,3.4397,3.4397,3.4371,3.3844,3.3635,3.3504,3.2952,3.2671,3.2619,3.2629,3.2597,3.2554,3.2633,3.3008,0.0,0.0,0.0,3.529,3.6305,3.76,3.8858,3.9644,4.1396,4.3388,4.499,4.5823,4.6081,4.5593,4.7252,4.8818,4.8538,4.925,4.9989,5.0333,5.0471,5.0035,4.863,4.9181,4.9622,4.9181,4.992,5.0723,5.1343,5.1412,5.1412,5.1412,5.1412,5.1412,5.1412,5.1296,5.1215,5.1215,5.1002,5.0426,4.9379,4.9283,4.8924,4.821,4.8273,4.8542,4.9019,4.9019,4.9039,4.9102,4.9102,4.9102,4.9102,4.9102,4.9102,4.9102,4.9102,4.9102,4.9102,4.9102,4.9102,4.9102,4.9102,4.9102,4.9102,0.0,0.0,0.0,0.0,0.0,0.0,0.0,0.0,0.0,0.0,0.0,2.2534,2.1955,2.1729,2.1494,2.1233,2.1209,2.1209,2.1209,2.1209,2.1209,2.1209,2.1659,2.2125,2.2584,2.473,2.6232,2.7053,2.9587,3.1477,3.2725,3.3885,3.4397,3.4397,3.4397,3.458,3.4894,3.4894,3.526,3.5813,3.5319,3.5521,3.6052,3.5425,3.5318,3.5556,3.5606,3.5316,3.4865,3.434,3.4319,3.4424,3.3796,0.0,0.0,0.0,3.6681,3.7654,3.9914,4.2347,4.4477,4.5529,4.5967,4.6041,4.5829,4.7074,4.829,4.8377,4.9411,5.0448,5.0934,5.1068,5.0654,4.9434,5.0081,5.0448,4.9663,5.0673,5.1477,5.1412,5.1684,5.173,5.1435,5.1412,5.1412,5.1412,5.1412,5.1412,5.1412,5.1214,5.0658,4.9647,4.9643,4.9253,4.8418,4.8645,4.8915,4.9102,4.9102,4.9102,4.9102,4.9102,4.9102,4.9102,4.9102,4.9102,4.9102,4.9102,4.9102,4.9102,4.9102,4.9102,4.9102,4.9102,4.9102,4.9102,0.0,0.0,0.0,0.0,0.0,0.0,0.0,0.0,0.0,0.0,0.0,2.2725,2.1978,0.0,0.0,0.0,2.1209,2.1209,2.1209,2.1209,2.1242,2.1368,2.1698,2.2179,2.2791,2.4458,2.5821,2.6912,2.9204,3.1225,3.2944,3.3937,3.4476,3.4633,3.4633,3.4868,3.5312,3.5454,3.6096,3.6992,3.7014,3.7601,3.8443,3.8161,3.8297,3.8688,3.8574,3.8057,3.7291,3.6303,3.5757,3.5338,3.4345,3.4199,0.0,0.0,0.0,3.7076,4.0543,4.2782,4.4402,4.5577,4.5908,4.5921,4.5921,4.689,4.7877,4.813,4.9369,5.0586,5.1113,5.132,5.1113,5.0218,5.093,5.1251,5.0218,5.1293,5.2002,5.1458,5.1753,5.1844,5.1435,5.1412,5.1412,5.1412,5.1412,5.1458,5.1595,5.1369,5.0833,4.9974,4.9997,4.9574,4.8584,4.8936,4.9102,4.9102,4.9102,4.9102,4.9102,4.9102,4.9102,4.9102,4.9102,4.9102,4.9102,4.9102,4.9102,4.9102,4.9102,4.9102,4.9102,4.8977,4.8915,4.8915,0.0,0.0,0.0,0.0,0.0,0.0,0.0,0.0,0.0,0.0,0.0,2.1955,2.1901,2.1502,2.1233,2.1209,2.1209,2.1209,2.1209,2.1209,2.1392,2.1838,2.1885,0.0,2.3338,2.4987,2.6378,2.7472,2.9797,3.1846,3.3571,3.4136,3.4711,3.526,3.526,3.526,3.5338,3.5835,3.6425,3.7108,3.8423,3.9184,3.9595,4.0327,4.0829,4.1041,4.0477,3.9927,3.9288,3.8161,3.7011,3.5966,3.5391,3.4842,3.4528,0.0,0.0,0.0,4.1485,4.1879,4.2106,4.4617,4.5342,4.5427,4.5427,4.6948,4.8217,4.7745,4.8864,5.0081,5.0563,5.1068,5.1228,5.0654,5.1454,5.1795,5.0723,5.15,5.2002,5.1458,5.1435,5.1435,5.1412,5.1412,5.1412,5.1412,5.1412,5.1618,5.2139,5.2146,5.1769,5.0959,5.0922,5.033,4.9081,4.9102,4.9102,4.9102,4.9102,4.9102,4.9102,4.9102,4.9102,4.9102,4.9102,4.9102,4.9102,4.9102,4.9102,4.9102,4.9102,4.9102,4.906,4.8604,4.8438,4.8376,0.0,0.0,0.0,0.0,0.0,0.0,0.0,0.0,0.0,0.0,0.0,0.0,0.0,2.2402,2.1978,2.169,2.1368,2.1209,2.1209,2.1209,2.1408,2.1877,2.1901,2.2356,2.3368,2.469,2.5924,2.6982,2.8952,3.079,3.247,3.342,3.4199,3.4737,3.5129,3.5495,3.5835,3.6018,3.7078,3.8753,3.9831,4.0939,4.204,4.2756,4.3308,4.3633,4.3282,4.2801,4.2173,4.1049,3.9872,3.8698,3.7758,3.6567,3.5469,3.5338,3.6605,3.847,4.0626,4.1584,4.2616,4.5467,4.5698,4.5544,4.6586,4.6872,4.7143,4.7946,4.8561,4.9181,4.9989,5.0838,5.1343,5.114,5.1435,5.1549,5.1182,5.173,5.2002,5.1458,5.1687,5.1775,5.1435,5.1412,5.1412,5.1412,5.173,5.2002,5.2185,5.2806,5.2488,5.1047,5.1291,5.0693,4.9102,4.9102,4.9102,4.9102,4.9102,4.9102,4.9102,4.9102,4.9102,4.9102,4.9102,4.9102,4.9102,4.9102,4.9102,4.9081,4.877,4.8645,4.8583,4.8128,4.7941,4.7941,0.0,0.0,0.0,2.4111,0.0,2.4111,2.4111,2.4111,2.4163,2.4387,0.0,0.0,0.0,0.0,2.2927,2.2257,2.1603,2.128,2.1415,2.1431,2.1722,2.2388,2.2226,2.2601,2.3606,2.4404,2.5505,2.6982,2.8324,3.0059,3.212,3.3143,3.3885,3.4424,3.5025,3.56,3.6123,3.6541,3.781,3.972,4.1166,4.2342,4.332,4.4434,4.5138,4.5494,4.5349,4.5192,4.484,4.348,4.25,4.1547,3.981,3.8097,3.6671,3.6488,3.7273,3.861,4.0594,4.1467,4.243,4.5121,4.5495,4.5454,4.6525,4.6669,4.6849,4.7732,4.8166,4.8607,4.9273,5.0218,5.0953,5.1113,5.1435,5.1595,5.1435,5.1867,5.2002,5.1458,5.173,5.1798,5.1435,5.1412,5.1412,5.1412,5.189,5.2277,5.2438,5.3222,5.294,5.1308,5.128,5.0569,4.9102,4.9401,4.9401,4.9102,4.9102,4.9102,4.9102,4.9102,4.9102,4.9102,4.9102,4.9102,4.9102,4.8936,4.8874,4.8811,4.8355,4.8169,4.8107,4.7631,4.7465,4.7444,2.4111,2.4111,2.4111,2.4111,2.4111,2.4137,2.4137,2.4137,2.4353,2.494,0.0,0.0,0.0,0.0,0.0,2.2935,2.19,2.1486,2.1917,2.1948,2.2373,2.3353,2.2882,2.307,2.4089,2.4174,2.531,2.7498,2.8133,2.9868,3.2656,3.3284,3.3859,3.4382,3.5009,3.5574,3.6175,3.7377,3.8542,3.9824,4.2385,4.3241,4.3258,4.5304,4.6285,4.6566,4.6592,4.6917,4.7098,4.54,4.4773,4.4225,4.1338,3.9299,3.8083,3.8542,3.8684,3.9169,0.0,0.0,0.0,4.3509,4.4643,4.5214,4.5166,4.6445,4.751,4.7051,4.7719,4.8432,4.8396,4.9181,4.9989,5.0471,5.1454,5.1979,5.1458,5.1844,5.1982,5.1458,5.1412,5.1412,5.1412,5.1412,5.1412,5.1435,5.1913,5.2438,5.2901,5.3409,5.3119,5.1893,5.0907,4.9998,4.9124,4.9955,4.9913,4.906,4.906,4.906,4.906,4.906,4.906,4.906,4.906,4.906,4.9018,4.8583,4.8397,4.8335,4.7858,4.7693,4.761,4.7155,4.6968,4.6906,2.4006,2.4111,2.4111,2.4111,2.4465,2.4749,2.4749,2.5092,2.5391,0.0,0.0,0.0,2.5586,2.5192,2.4644,2.401,2.3693,2.3377,2.3066,2.3049,2.3175,2.3386,2.2882,2.307,2.4089,2.4592,2.5728,2.7498,2.8543,2.9868,3.148,3.2473,3.3022,3.3205,3.4225,3.5182,3.6138,3.6933,3.8161,3.981,4.215,4.3544,4.4486,4.6714,4.7931,4.8422,4.8814,4.8814,4.8538,4.8056,4.6746,4.4852,4.1952,4.0423,3.9508,3.8437,3.8124,3.8527,4.0397,0.0,0.0,0.0,0.0,0.0,4.6584,4.7552,4.8181,4.7953,4.8527,4.8803,4.7975,4.8377,4.886,4.8997,5.0149,5.0999,5.0838,5.1274,5.1572,5.1412,5.1412,5.1412,5.1412,5.1412,5.1549,5.1936,5.2438,5.2924,5.3452,5.3345,5.3088,5.2747,5.1503,5.0412,4.9533,4.9446,4.8943,4.8086,4.8086,4.8086,4.8086,4.8086,4.8086,4.8086,4.8086,4.8086,4.8107,4.8314,4.821,4.7858,4.7361,4.7196,4.7134,4.6658,4.6493,4.6493,2.4032,2.4301,2.4472,2.4472,2.4943,2.5335,2.5335,2.5798,2.6261,0.0,0.0,0.0,2.7236,2.6615,2.6063,2.5812,2.5145,2.4665,2.4495,2.4304,2.4233,2.4384,2.4096,2.4203,2.4801,2.5198,2.6222,2.7881,2.8577,2.9632,3.1009,3.2159,3.2708,3.2761,3.4136,3.5417,3.6541,3.7639,3.8672,3.9848,4.2631,4.399,4.4643,4.7219,4.8422,4.8788,4.9363,4.9677,4.9782,4.952,4.7885,4.5675,4.399,4.2396,4.0958,3.9977,3.9337,3.9285,4.0749,4.1219,4.1834,4.3963,0.0,0.0,4.6485,4.7561,4.8444,4.8663,4.9005,4.9201,4.9067,4.868,4.8559,4.9023,4.9587,5.0126,5.054,5.0884,5.1159,5.1366,5.1412,5.1412,5.1412,5.1412,5.1527,5.1844,5.2346,5.2829,5.3337,5.2804,5.2473,5.2473,5.1673,5.0659,4.9421,4.9495,4.8914,4.7713,4.7713,4.7713,4.7713,4.7713,4.7713,4.7713,4.7713,4.7589,4.7444,4.7713,4.7651,4.7361,4.6886,4.67,4.6679,4.641,4.6307,4.6327,0.0,2.4577,2.4992,2.4992,2.5589,2.607,2.601,2.6669,2.7322,0.0,2.8307,2.89,2.9423,2.8643,2.8078,2.8078,2.6643,2.5912,2.6331,2.5864,2.5692,2.5968,2.5984,2.5931,2.5801,2.5861,2.6731,2.8403,2.8464,2.9371,3.1009,3.2159,3.2708,3.2787,3.4528,3.594,3.7116,3.8777,3.9639,4.0174,4.348,4.4514,4.4409,4.7219,4.837,4.8579,4.9154,5.0043,5.0801,5.0106,4.8605,4.6932,4.667,4.4814,4.2709,4.2447,4.1572,4.0893,4.1924,4.1755,4.156,4.2722,4.3807,0.0,4.5454,4.6899,4.8287,4.8942,4.9138,4.9493,5.0521,4.9378,4.871,4.9895,4.9434,4.9287,5.0214,5.0448,5.0677,5.1071,5.1205,5.1251,5.132,5.132,5.1343,5.1412,5.189,5.2415,5.2855,5.2161,5.174,5.174,5.1695,5.0848,4.9076,4.9768,4.9277,4.7527,4.7527,4.7527,4.7527,4.7527,4.7527,4.7527,4.7527,4.732,4.6927,4.6927,4.6927,4.6886,4.6472,4.6307,4.6307,4.6369,4.6389,4.6451,2.4111,2.4577,2.4992,2.4992,2.6606,2.7732,2.7237,2.8882,3.0032,2.9639,3.0137,3.0547,3.0652,3.049,3.0366,3.0366,2.9614,2.9189,2.9278,2.8768,2.8083,2.7203,2.7185,2.6741,2.5827,2.6269,2.7148,2.8403,2.8882,2.9763,3.1009,3.2159,3.2708,3.2787,3.4528,3.594,3.709,3.8333,3.9965,4.1872,4.3898,4.4943,4.5544,4.7989,4.9494,5.0357,5.0932,5.1272,5.1282,5.0252,4.9938,4.9636,4.7739,4.6773,4.5936,4.4108,4.3049,4.2461,4.2264,4.1755,4.156,4.2722,4.352,0.0,4.4839,4.6265,4.7534,4.7732,4.8473,4.9086,4.8928,4.8238,4.82,4.985,4.8861,4.8117,4.8739,4.9525,4.992,4.9576,4.992,5.0333,5.0723,5.0769,5.0953,5.1366,5.189,5.2415,5.2855,5.2742,5.2662,5.2662,5.2273,5.1258,4.9516,4.9286,4.8291,4.6576,4.6576,4.6576,4.6576,4.6576,4.6576,4.6576,4.6576,4.6513,4.6431,4.6431,4.6431,4.6431,4.6348,4.6307,4.6348,4.672,4.6865,4.6927,2.4499,2.5021,2.5675,2.6554,2.7888,2.8952,2.9187,3.0468,3.1294,3.0988,3.1757,3.2395,3.2656,3.2708,3.2708,3.2708,3.2427,3.213,3.1852,3.1601,3.08,2.9318,2.9239,2.8717,2.7575,2.754,2.8115,2.9239,2.9283,3.0015,3.1434,3.228,3.3623,3.5312,3.5887,3.7429,3.9637,4.0488,4.169,4.3206,4.4918,4.6133,4.7153,4.9453,5.0697,5.123,5.1492,5.1596,5.1518,5.0943,5.0394,4.986,4.9244,4.8068,4.6734,4.5846,4.48,4.3702,4.2853,4.2173,4.1951,4.2801,4.3023,0.0,0.0,4.5663,4.6564,4.6886,4.787,4.8761,4.9087,4.8235,4.8019,4.9767,4.883,4.8013,4.8366,4.9047,4.9502,4.9502,4.9755,4.9989,5.0218,5.0241,5.0448,5.0976,5.1251,5.1615,5.2143,5.1913,5.189,5.2123,5.1936,5.1171,4.9848,4.9234,4.8231,4.6931,4.6509,4.6307,4.6307,4.6307,4.6307,4.6307,4.6307,4.6307,4.6327,4.6555,4.6658,4.6658,4.6658,4.6658,4.67,4.7175,4.7341,4.7424,2.4932,2.5526,2.6443,2.795,2.8926,2.9806,3.0826,3.1738,3.2381,3.259,3.3577,3.4424,3.4842,3.4999,3.5129,3.5208,3.5129,3.492,3.4607,3.4486,3.3754,3.2212,3.195,3.1244,2.9972,2.9362,2.9457,3.0266,2.9954,3.052,3.199,3.2698,3.4528,3.7246,3.7534,3.9114,4.1611,4.2801,4.3676,4.4369,4.6135,4.7585,4.8919,5.088,5.1805,5.2093,5.1988,5.1936,5.1936,5.1936,5.1063,5.0069,5.088,4.9599,4.7794,4.7687,4.6682,4.5284,4.3755,4.2957,4.2604,4.2905,4.2657,4.2762,0.0,0.0,0.0,4.6014,4.6794,4.773,4.8871,4.7963,4.7542,4.9075,4.851,4.791,4.8026,4.8443,4.8982,4.954,4.9683,4.9755,4.9755,5.0122,5.0398,5.0471,5.0815,5.1159,5.1389,5.0999,5.0953,5.1389,5.1412,5.0983,5.0101,4.93,4.845,4.7572,4.671,4.6307,4.6307,4.6307,4.6307,4.6307,4.6307,4.6348,4.6472,4.6844,4.7051,4.7134,4.7134,4.7134,4.7196,4.7651,4.7838,4.79,2.507,2.5848,2.6808,2.748,2.8934,3.0214,3.0904,3.2761,3.4476,3.5484,3.6201,3.6645,3.6698,3.7194,3.7691,3.8176,3.7795,3.7691,3.8097,3.7691,3.709,3.6358,3.5338,3.4042,3.2342,3.1712,3.1242,3.0904,3.132,3.1895,3.262,3.3692,3.4424,3.4946,3.8463,3.9665,3.9337,4.2984,4.4852,4.5571,4.731,4.8997,5.0577,5.1309,5.2563,5.3844,5.3373,5.3191,5.3191,5.3191,5.306,5.2825,5.2433,5.2433,5.2135,4.9625,4.8762,4.803,4.5324,4.4147,4.3598,4.3114,4.2958,4.3114,4.3831,0.0,4.3597,4.4676,0.0,4.4743,4.5882,0.0,0.0,4.6784,4.6785,4.6692,4.6703,4.722,4.7854,4.8497,4.8933,4.9204,4.9204,5.0876,5.1385,5.0081,5.1638,5.2281,5.1458,5.1343,5.1343,5.1412,5.1412,5.0983,5.0101,4.93,4.845,4.7572,4.671,4.6307,4.6307,4.6307,4.6307,4.6307,4.6307,4.6534,4.6927,4.6968,4.7237,4.761,4.761,4.761,4.7693,4.8148,4.8314,4.8376,2.6083,2.6616,2.7541,2.8795,3.0153,3.152,3.2777,3.4345,3.5678,3.6504,3.7142,3.7639,3.7941,3.8516,3.909,3.9639,3.9796,3.9822,3.9691,3.9796,3.9012,3.709,3.6541,3.5469,3.3718,3.3133,3.2725,3.2499,3.2385,3.2793,3.3702,3.4173,3.5835,3.8463,3.9796,4.1442,4.3376,4.5348,4.7307,4.9165,4.9871,5.1596,5.3635,5.2537,5.2798,5.3713,5.3478,5.34,5.3452,5.3766,5.3426,5.3008,5.3766,5.3478,5.2694,5.1831,5.1115,5.0017,4.7455,4.6606,4.6095,4.4825,4.4512,4.4486,4.4382,4.3938,4.348,4.3297,0.0,0.0,0.0,0.0,0.0,0.0,4.5485,4.5693,4.6402,4.6947,4.7556,4.827,4.8793,4.9125,4.916,5.0452,5.0765,4.9548,5.1064,5.171,5.0976,5.0953,5.109,5.1389,5.1412,5.1215,5.0866,4.9536,4.8708,4.8331,4.6952,4.6307,4.6307,4.6307,4.6451,4.67,4.67,4.6968,4.7424,4.7693,4.7941,4.8128,4.8397,4.8355,4.8169,4.8625,4.8812,4.8832,2.754,2.7602,2.8186,2.9622,3.0815,3.2261,3.4319,3.5615,3.6619,3.7377,3.8254,3.8986,3.9378,4.0226,4.0998,4.1547,4.1991,4.2134,4.1847,4.2095,4.1364,3.943,3.8594,3.7586,3.6332,3.5443,3.4763,3.4303,3.4016,3.4225,3.4868,3.5208,3.7168,4.0397,4.105,4.2918,4.5651,4.7321,4.9139,5.0984,5.1612,5.3191,5.5046,5.353,5.3034,5.3191,5.3504,5.353,5.3504,5.421,5.3792,5.3217,5.4654,5.4131,5.3008,5.3321,5.2668,5.1429,4.9442,4.8683,4.8187,4.706,4.6419,4.6001,4.5727,4.5128,4.4252,4.2931,4.318,0.0,0.0,0.0,4.369,4.382,0.0,4.4905,4.5448,4.6254,4.7127,4.8146,4.8756,4.9021,4.8772,5.039,5.0746,4.9039,5.0838,5.1618,5.0654,5.0746,5.0999,5.1389,5.1549,5.1549,5.1412,4.9754,4.8907,4.8888,4.7133,4.6369,4.6493,4.6493,4.6741,4.7196,4.7196,4.7465,4.7921,4.8252,4.848,4.8646,4.8977,4.8873,4.8625,4.8956,4.9102,4.9102,2.9432,2.8769,2.856,2.9214,3.0286,3.1976,3.4852,3.6253,3.7366,3.8501,4.0136,4.1207,4.1207,4.2748,4.3977,4.4512,4.4643,4.4892,4.54,4.4904,4.4799,4.5296,4.2657,4.1155,4.1076,3.9404,3.7705,3.6018,3.6593,3.6593,3.607,3.7246,3.7874,3.8187,4.2069,4.3533,4.3428,4.7911,4.9572,4.9363,5.157,5.2877,5.353,5.3975,5.3478,5.2668,5.3792,5.3844,5.3556,5.4707,5.4654,5.4262,5.4916,5.4654,5.4053,5.3556,5.2955,5.2197,5.1037,4.9912,4.918,4.9651,4.8497,4.7385,4.7977,4.7219,4.5926,4.42,4.3415,4.2696,4.1573,4.2278,4.2657,4.1599,4.3258,0.0,0.0,4.4588,4.63,4.8017,4.8711,4.873,4.7756,5.1245,5.2164,4.868,5.1638,5.274,5.0723,5.1071,5.137,5.1412,5.189,5.1913,5.1412,4.9754,4.8907,4.8888,4.7133,4.6534,4.6968,4.6968,4.7237,4.7693,4.7693,4.7941,4.8376,4.8397,4.8666,4.9081,4.908,4.908,4.9081,4.908,4.9102,4.9102,2.9597,2.9737,3.0181,3.0391,3.1689,3.3571,3.6044,3.7392,3.8516,3.9665,4.1036,4.2173,4.2931,4.3859,4.4656,4.5243,4.5309,4.5414,4.5583,4.578,4.5467,4.4526,4.3167,4.2069,4.1311,3.9979,3.8803,3.781,3.7653,3.7653,3.781,3.7874,3.8489,3.9665,4.2174,4.4042,4.548,4.8213,5.0801,5.3164,5.4314,5.4654,5.455,5.4733,5.455,5.4367,5.5517,5.5787,5.5726,5.6092,5.6092,5.5883,5.57,5.5491,5.5229,5.468,5.4393,5.3975,5.2825,5.2485,5.2223,5.1256,5.1178,5.11,5.0148,4.9049,4.7716,4.5978,4.4526,4.3376,4.2566,4.2736,4.2866,4.2474,4.3075,4.3585,0.0,4.4761,4.5823,4.6415,4.7694,4.8405,4.8097,5.0246,5.0746,4.856,5.0765,5.1572,5.0195,5.0608,5.1205,5.189,5.1753,5.1753,5.1913,5.0437,4.9438,4.8888,4.8033,4.7395,4.701,4.732,4.7713,4.8169,4.8169,4.8418,4.8852,4.8852,4.8957,4.9102,4.9102,4.9102,4.9102,4.9102,4.9102,4.9102,3.0878,3.128,3.1846,3.1636,3.3388,3.5391,3.7063,3.8437,3.9718,4.088,4.2422,4.369,4.4408,4.5179,4.5792,4.6184,4.621,4.6471,4.7086,4.6917,4.667,4.637,4.4983,4.3977,4.3441,4.2134,4.0958,3.9939,3.9378,3.9064,3.9012,3.8855,3.9378,4.0475,4.2213,4.4421,4.6891,4.8448,5.1193,5.455,5.5308,5.5282,5.4863,5.5717,5.5883,5.5778,5.6284,5.6484,5.6493,5.6745,5.6798,5.6745,5.6336,5.6075,5.5866,5.5752,5.5412,5.4994,5.4445,5.4105,5.3739,5.3034,5.2955,5.2825,5.1936,5.0984,4.9808,4.8056,4.6644,4.5624,4.5245,4.4656,4.4316,4.4486,4.4198,4.3977,0.0,4.4813,4.5269,4.5269,4.7025,4.8209,4.8257,4.9852,5.0269,4.8762,5.0172,5.0677,4.9686,5.0241,5.0999,5.189,5.1936,5.2028,5.2208,5.1001,5.0025,4.932,4.8946,4.84,4.7732,4.8191,4.8505,4.8645,4.8645,4.8811,4.9102,4.9102,4.9102,4.9102,4.9102,4.9102,4.9102,4.9102,4.9102,4.9102,3.3257,3.3336,3.3623,3.3101,3.526,3.7299,3.79,3.9456,4.0984,4.216,4.4278,4.5714,4.5766,4.6732,4.7411,4.7438,4.7438,4.8117,4.9808,4.8367,4.8445,5.0618,4.8082,4.6839,4.7307,4.5651,4.3964,4.2277,4.1611,4.0737,3.9691,4.0188,4.0423,4.0528,4.2278,4.4616,4.7385,4.859,5.0749,5.3452,5.4654,5.4837,5.4602,5.6858,5.739,5.6902,5.6232,5.604,5.6118,5.6676,5.6859,5.6859,5.685,5.6484,5.6144,5.6676,5.6092,5.5334,5.5857,5.4785,5.3792,5.4863,5.3896,5.2798,5.3347,5.3008,5.2093,5.0368,4.9572,4.918,4.9154,4.7768,4.6801,4.7255,4.6367,4.54,4.4878,4.4747,4.4721,4.4773,4.6813,4.8172,4.8158,5.0091,5.0726,4.9241,5.0049,5.0172,4.9185,5.0058,5.0861,5.137,5.235,5.2668,5.2208,5.1377,5.0673,5.0104,4.9846,4.9444,4.9018,4.9507,4.9491,4.9102,4.9102,4.9102,4.9102,4.9102,4.9102,4.9102,4.9102,4.9102,4.9102,4.9102,4.9102,4.9102,3.492,3.5443,3.6358,3.7037,3.7758,3.8463,3.9064,4.1363,4.3271,4.3977,4.5687,4.7217,4.8094,4.846,4.8799,4.9191,4.9244,4.9427,4.9886,4.9897,4.9793,4.9546,4.884,4.8068,4.7333,4.5651,4.4357,4.3467,4.2004,4.1155,4.0867,4.0554,4.0632,4.1155,4.2905,4.5036,4.7385,4.859,5.0514,5.2903,5.4889,5.6135,5.6884,5.746,5.8383,5.921,5.8191,5.7826,5.7852,5.8008,5.8061,5.7982,5.7599,5.7651,5.7773,5.7547,5.7277,5.705,5.7198,5.6266,5.5334,5.5605,5.536,5.4968,5.4733,5.421,5.34,5.2093,5.1063,5.0226,4.9782,4.8997,4.8344,4.8015,4.6642,4.5687,4.6017,4.5257,4.5048,4.5924,4.7324,4.8047,4.7628,4.9199,5.0101,4.9788,5.0272,5.0333,4.9732,5.0264,5.0861,5.137,5.2028,5.2323,5.2208,5.197,5.1265,5.0123,5.0776,5.0358,4.9018,4.9847,4.9807,4.9102,4.9102,4.9102,4.9102,4.9102,4.9102,4.9102,4.9102,4.9102,4.9102,4.9102,4.9102,4.9102,3.6358,3.6948,3.8187,3.9587,4.0658,4.1285,4.1102,4.3127,4.5114,4.6447,4.7687,4.8695,4.9389,4.9442,4.9468,4.9546,4.974,5.0106,5.0618,5.0472,5.0461,5.0577,4.986,4.9244,4.8837,4.7664,4.6356,4.5037,4.3794,4.267,4.1664,4.1076,4.1247,4.2095,4.335,4.5467,4.8236,5.042,5.1936,5.3086,5.5386,5.6536,0.0,5.7756,5.8488,5.9045,5.8653,5.8505,5.8505,5.8505,5.8505,5.8444,5.8131,5.8261,5.8427,5.8148,5.8044,5.8044,5.8044,5.739,5.6615,5.6353,5.6284,5.6144,5.5595,5.5203,5.4759,5.4131,5.3086,5.2328,5.2485,5.1465,5.0226,4.9128,4.7478,4.6445,4.6813,4.6041,0.0,0.0,4.7257,4.7782,4.7735,4.9435,5.0482,5.0306,5.03,5.0172,4.9897,5.0149,5.0631,5.1389,5.235,5.2737,5.2507,5.2737,5.2342,5.1323,5.1911,5.1348,4.9895,5.0626,5.0273,4.9102,4.9102,4.9102,4.9102,4.9102,4.9102,4.9102,4.9102,4.9102,4.9102,4.9102,4.9102,4.9102,3.8397,3.8762,3.9913,4.1573,4.3572,4.4682,4.3924,4.5087,4.6773,4.8736,4.9468,4.9886,5.0095,5.0069,4.9912,4.9677,5.0095,5.0775,5.1779,5.0917,5.0995,5.2433,5.1063,5.0461,5.0906,5.0331,4.8997,4.6946,4.6198,4.4761,4.2748,4.2056,4.2318,4.3363,4.4134,4.637,4.9755,5.3034,5.4105,5.3818,5.604,5.6615,5.6301,5.7895,5.8209,5.7878,5.834,5.8505,5.8505,5.8505,5.8505,5.8505,5.8505,5.8531,5.8627,5.8627,5.8627,5.8627,5.8627,5.8174,5.7564,5.7033,5.6876,5.665,5.6144,5.5961,5.5935,5.6013,5.5125,5.4654,5.5683,5.4105,5.2145,5.0697,4.8941,4.7829,4.8065,0.0,0.0,0.0,0.0,0.0,4.8396,5.0156,5.1122,5.0747,5.034,5.0042,4.9916,5.0012,5.0425,5.1182,5.2763,5.3337,5.2809,5.3314,5.336,5.2901,5.2901,5.2231,5.1007,5.1486,5.076,4.9102,4.9102,4.9102,4.9102,4.9102,4.9102,4.9102,4.9102,4.9102,4.9102,4.9102,4.9102,4.9102,4.3415,4.3193,4.3376,4.4616,4.5584,4.6592,4.7832,4.8277,4.8474,4.837,4.8866,4.9782,5.1152,5.0906,5.1178,5.2537,5.272,5.2877,5.306,5.2903,5.2694,5.2511,5.2197,5.1858,5.1465,5.0917,5.0185,4.9311,4.7766,4.6564,4.5717,4.4697,4.4539,4.5217,4.6761,4.9102,5.2067,5.455,5.5308,5.4968,5.6789,5.7486,5.746,5.8209,5.8427,5.8366,5.8453,5.8505,5.8505,5.8505,5.8505,5.8505,5.8505,5.8836,5.922,5.922,5.922,5.922,5.922,5.848,5.7669,5.7564,5.7181,5.6754,5.6667,5.6275,5.6023,5.6536,5.5752,5.5151,5.5761,5.4445,5.3295,5.3426,5.1622,5.0681,5.2119,5.0995,0.0,0.0,0.0,5.1073,0.0,4.9948,0.0,5.0659,5.1021,5.082,4.9953,5.0677,5.0838,5.0172,5.2028,5.2809,5.2323,5.2806,5.2992,5.2901,5.2901,5.2231,5.1007,5.1529,5.0802,4.9102,4.9102,4.9102,4.9102,4.9102,4.9102,4.9102,4.9102,4.9102,4.9102,4.9102,4.9102,4.9102,4.4844,4.5258,4.5832,4.6393,4.7728,4.8919,4.9442,5.0017,5.0514,5.0838,5.088,5.1282,5.2406,5.2014,5.1884,5.2406,5.2746,5.2929,5.2929,5.3217,5.3269,5.2981,5.2668,5.2511,5.2537,5.1962,5.1387,5.0786,4.9647,4.8695,4.7821,4.6972,4.7036,4.7911,4.9662,5.1204,5.2642,5.4628,5.5334,5.5255,5.7015,5.7695,5.78,5.8645,5.8985,5.8993,5.9263,5.9393,5.9289,5.8688,5.8505,5.8505,5.8505,5.8706,5.8933,5.8933,5.9142,5.9395,5.9395,5.9003,5.8506,5.82,5.7895,5.7608,5.7338,5.705,5.6919,5.7207,5.6588,5.5987,5.5909,5.5517,5.4968,5.4314,5.3269,5.2746,5.3321,5.2422,5.1884,0.0,0.0,0.0,0.0,0.0,0.0,0.0,5.0932,5.084,5.0275,5.0723,5.0769,5.0287,5.2258,5.2966,5.2208,5.2943,5.3314,5.3314,5.3015,5.2367,5.1356,5.1638,5.0781,4.9102,4.9102,4.9102,4.9102,4.9102,4.9102,4.9102,4.9102,4.9102,4.9102,4.9102,4.9102,4.9102,4.5925,4.7074,4.8221,4.8221,4.9949,5.1178,5.0723,5.1429,5.2197,5.2772,5.2433,5.2406,5.3138,5.2772,5.2459,5.2354,5.2877,5.3269,5.34,5.3844,5.4131,5.4131,5.3426,5.3269,5.3739,5.3164,5.2642,5.2145,5.1638,5.0592,4.9102,4.8971,4.9546,5.0723,5.2197,5.2981,5.3321,5.4811,5.5543,5.5778,5.7259,5.7957,5.8166,5.9055,5.9473,5.9612,6.0065,6.0203,6.0073,5.9158,5.8845,5.8845,5.8845,5.8845,5.8845,5.8845,5.9202,5.9552,5.9421,5.9395,5.9264,5.8653,5.8505,5.8392,5.7965,5.7773,5.7721,5.7852,5.739,5.685,5.6379,5.6562,5.6493,5.5621,5.5072,5.4785,5.4837,5.4148,5.3713,0.0,0.0,0.0,5.2276,5.3243,5.329,5.1731,5.1275,5.0972,5.0832,5.0787,5.0769,5.0769,5.2579,5.3199,5.253,5.3176,5.3589,5.3681,5.3153,5.258,5.1997,5.1997,5.1055,4.938,4.938,4.9273,4.9102,4.9102,4.9102,4.9102,4.9102,4.9102,4.9102,4.9102,4.9102,4.9102,4.8933,5.0069,5.1204,5.1204,5.2276,5.3138,5.3086,5.3164,5.2694,5.1246,5.0995,5.1361,5.2459,5.2537,5.3112,5.4654,5.5282,5.583,5.6379,5.6458,5.6484,5.6484,5.5438,5.4889,5.4942,5.4367,5.4001,5.3949,5.3426,5.1753,4.9128,5.0618,5.191,5.3086,5.3739,5.4602,5.5647,5.6336,5.6972,5.7512,5.8157,5.875,5.9264,5.9369,5.9717,6.0125,6.0177,6.0203,6.0177,6.0073,6.0047,6.0047,6.0047,6.0047,6.0047,6.0047,6.0073,6.0013,5.9534,5.9395,5.9264,5.8653,5.8505,5.8479,5.8444,5.8044,5.7852,5.8314,5.7991,5.759,5.7538,5.7129,5.7407,5.9341,5.7904,5.7251,5.9289,5.82,5.7024,5.6536,0.0,0.0,5.4131,5.4977,5.5356,5.4649,5.3127,5.2053,5.1613,5.1401,5.1343,5.1343,5.2395,5.3153,5.3543,5.3153,5.3222,5.3681,5.3153,5.2903,5.2975,5.2975,5.1998,5.0273,5.0273,4.9827,4.9102,4.9102,4.9102,4.9102,4.9102,4.9102,4.9102,4.9102,4.9102,4.9102,5.2583,5.3802,5.4712,5.3041,5.4075,5.5146,5.5146,5.5457,5.5462,5.4787,5.3926,5.3997,5.5571,5.5024,5.4811,5.5517,5.5778,5.6013,5.6232,5.6597,5.6798,5.6798,5.6379,5.5961,5.5595,5.502,5.4733,5.4733,5.4524,5.3818,5.272,5.3713,5.4262,5.4445,5.4994,5.5465,5.5944,5.6945,5.7678,5.8235,5.8828,5.9377,5.9908,6.0274,6.0543,6.0778,6.1136,6.1267,6.1267,6.1267,6.0797,6.0203,6.0203,6.0203,6.0203,6.0203,6.0203,6.0151,5.9934,5.9882,5.983,5.9576,5.9524,5.9524,5.9524,5.9359,5.915,5.9063,5.8593,5.8096,5.7747,5.8044,5.8436,5.8671,5.8209,5.8139,5.9054,5.8331,5.7747,5.7817,0.0,5.712,0.0,5.6571,5.679,5.5185,5.5013,5.43,5.2734,5.2849,5.2639,5.1887,5.2533,5.2992,5.3222,5.3314,5.3314,5.3222,5.3314,5.3282,5.3099,5.3099,5.2415,5.118,5.118,5.0696,4.987,4.987,4.9572,4.9102,4.9102,4.9102,4.9102,4.9102,4.9102,4.9102,5.586,5.6769,5.7499,5.5999,5.6749,5.7528,5.7528,5.7912,5.8208,5.8362,5.7302,5.681,5.7638,5.7017,5.6619,5.6804,5.6963,5.7148,5.729,5.7507,5.7623,5.7623,5.7258,5.6867,5.6432,5.57,5.5412,5.5595,5.5412,5.4994,5.4341,5.4733,5.5151,5.5621,5.6013,5.6275,5.6501,5.7495,5.8253,5.881,5.9403,5.996,6.0517,6.0935,6.1196,6.1424,6.1861,6.201,6.201,6.201,6.1443,6.0744,6.0744,6.0744,6.0744,6.0744,6.0744,6.0692,6.0517,6.0465,6.0412,6.0256,6.0203,6.0203,6.0203,6.0203,6.0099,5.9717,5.915,5.8653,5.827,5.8846,5.9238,5.8776,5.8862,5.9106,5.949,5.8906,5.8723,5.9437,5.9367,5.8766,5.7538,5.8531,5.847,5.651,5.6887,5.6081,5.3453,5.3533,5.3288,5.2435,5.2599,5.2901,5.3337,5.3406,5.3337,5.313,5.352,5.3609,5.347,5.3223,5.2747,5.2101,5.183,5.1348,5.0802,5.0506,5.004,4.9465,4.9187,4.9102,4.9102,4.9102,4.9102,4.9102,5.845,5.8473,5.9096,6.0719,6.0699,6.0461,6.0461,6.0461,6.0594,6.0905,6.0321,5.9194,5.7482,5.776,5.8308,5.89,5.9514,6.0067,6.0595,5.9968,5.9568,5.9568,5.8359,5.7695,5.7669,5.6484,5.6196,5.678,5.6196,5.4733,5.2537,5.2537,5.4053,5.678,5.6798,5.7129,5.7721,5.8261,5.8836,5.9447,5.9986,6.0543,6.1092,6.1092,6.1476,6.201,6.201,6.201,6.201,6.201,6.201,6.1965,6.1965,6.1965,6.1965,6.1965,6.1965,6.1861,6.1249,6.1092,6.0961,6.036,6.0203,6.0203,6.0203,6.0203,6.0203,6.0203,5.9751,5.9395,5.9369,5.9395,5.9769,6.0883,6.0569,6.0614,6.1782,6.0927,6.0614,6.1827,6.1424,6.1066,6.104,6.1066,6.0588,5.9429,5.8808,5.6969,5.3486,5.3045,5.2897,5.2878,5.2461,5.292,5.437,5.3406,5.3153,5.3681,5.3704,5.3934,5.4355,5.3491,5.3078,5.3037,5.2101,5.1725,5.1705,5.0781,5.04,5.0294,4.9444,4.9102,4.9102,4.9102,4.9102,4.9102,6.2751,6.2941,6.3113,6.2482,6.3076,6.3779,6.4199,6.465,6.4869,6.4706,6.4465,6.3839,6.2543,6.1256,6.0762,6.1404,6.1133,6.0996,6.1166,6.0446,6.0015,6.0015,5.9616,5.9045,5.8261,5.7869,5.7381,5.6798,5.7024,5.6753,5.6047,5.5621,5.5935,5.6833,5.7617,5.8078,5.8314,5.9263,5.9994,6.0588,6.0752,6.1189,6.1704,6.1704,6.1835,6.201,6.201,6.201,6.201,6.201,6.201,6.201,6.201,6.201,6.201,6.201,6.201,6.1939,6.1782,6.1704,6.1678,6.1495,6.1443,6.1443,6.1443,6.111,6.0804,6.0804,6.0334,5.996,5.996,5.996,6.0195,6.0987,6.0595,6.0465,6.1275,6.07,6.0334,6.0744,6.0274,5.9795,5.9367,5.9699,5.9795,5.9421,5.8965,5.7624,5.5127,5.4143,5.36,5.3469,5.2946,5.3222,5.4393,5.4074,5.3842,5.3704,5.4026,5.4255,5.4396,5.4109,5.4007,5.3986,5.3676,5.3223,5.2664,5.2373,5.1873,5.1264,5.097,5.0527,4.9976,4.9976,4.9614,4.9102,6.6626,6.6537,6.6463,6.6052,6.6392,6.6839,6.724,6.7627,6.768,6.7045,6.6956,6.678,6.6404,6.5142,6.4106,6.3483,6.2977,6.2695,6.2695,6.1943,6.1496,6.1496,6.0966,6.0316,5.9605,5.9101,5.8601,5.8087,5.8444,5.8645,5.8619,5.8261,5.8087,5.8113,5.8818,5.9132,5.921,6.0151,6.0752,6.1118,6.1346,6.1678,6.201,6.201,6.201,6.201,6.201,6.201,6.201,6.201,6.201,6.201,6.201,6.201,6.201,6.201,6.201,6.201,6.201,6.201,6.201,6.201,6.201,6.201,6.201,6.1704,6.145,6.145,6.098,6.0543,6.0543,6.0543,6.0674,6.104,6.0961,6.1006,6.1398,6.111,6.1032,6.1476,6.1006,6.0535,6.0151,6.0274,5.9979,5.9082,5.8363,5.7228,5.5483,5.4773,5.4131,5.3423,5.3061,5.3383,5.4373,5.4232,5.4072,5.398,5.4278,5.4396,5.4396,5.4396,5.4396,5.4396,5.4396,5.4109,5.3553,5.3223,5.2747,5.2184,5.183,5.1369,5.0844,5.0527,5.0252,4.9976,6.9843,6.9215,6.9062,7.0631,7.0174,6.9585,6.9585,6.9616,6.9301,6.8288,6.816,6.8348,6.8887,6.8975,6.7923,6.538,6.5035,6.4949,6.4949,6.4194,6.3743,6.3743,6.2309,6.1504,6.1451,6.0184,5.9743,6.0203,6.0203,6.0203,6.0203,6.0203,6.0203,6.0203,6.0256,6.0256,6.0308,6.0909,6.117,6.1196,6.1782,6.201,6.201,6.201,6.201,6.201,6.201,6.201,6.201,6.201,6.201,6.201,6.201,6.201,6.201,6.201,6.201,6.201,6.201,6.201,6.201,6.201,6.201,6.201,6.201,6.201,6.201,6.201,6.1555,6.117,6.117,6.117,6.117,6.117,6.1633,6.201,6.201,6.201,6.2384,6.3456,6.3018,6.2633,6.2686,6.208,6.0838,5.8779,5.7371,5.6085,5.4998,5.5111,5.4508,5.2992,5.2924,5.3383,5.4373,5.398,5.398,5.4396,5.4396,5.4396,5.4396,5.4396,5.4396,5.4396,5.4396,5.4396,5.4355,5.3511,5.3181,5.3099,5.2226,5.1851,5.1704,5.0907,5.1054,5.1474,7.0644,7.0463,7.0433,7.0814,7.1169,7.1399,7.1399,7.1828,7.1775,7.0701,7.0573,7.0327,6.9673,6.9575,6.9318,6.8673,6.7301,6.6494,6.6494,6.5028,6.4146,6.4146,6.3223,6.2517,6.21,6.1166,6.0517,6.0203,6.0203,6.0203,6.0203,6.0203,6.0203,6.023,6.0674,6.0883,6.0935,6.1529,6.1782,6.1809,6.1939,6.201,6.201,6.201,6.201,6.201,6.201,6.201,6.201,6.201,6.201,6.201,6.201,6.201,6.201,6.201,6.201,6.201,6.201,6.201,6.201,6.201,6.201,6.201,6.201,6.201,6.201,6.201,6.1887,6.1782,6.1782,6.1782,6.1782,6.1782,6.1913,6.201,6.201,6.201,6.2115,6.2377,6.1476,6.1013,6.1458,5.9713,5.9221,6.081,5.805,5.6566,5.7173,5.594,5.4691,5.3543,5.3107,5.3383,5.4373,5.4301,5.4301,5.4396,5.4396,5.4396,5.4396,5.4396,5.4396,5.4396,5.4396,5.4396,5.4396,5.4191,5.4109,5.4068,5.384,5.3347,5.2747,5.2539,5.2144,5.1642,7.1844,7.1844,7.1844,7.1844,7.2198,7.2445,7.2445,7.2752,7.2796,7.2201,7.2122,7.1916,7.1341,7.1277,7.1277,7.1277,6.942,6.8293,6.8293,6.7352,6.6825,6.6825,6.5565,6.475,6.4456,6.3216,6.2389,6.2088,6.2088,6.1887,6.154,6.154,6.1338,6.1032,6.1372,6.1502,6.1529,6.1861,6.201,6.201,6.201,6.201,6.201,6.201,6.201,6.201,6.201,6.201,6.201,6.201,6.201,6.201,6.201,6.201,6.201,6.201,6.201,6.201,6.201,6.201,6.201,6.201,6.201,6.201,6.201,6.201,6.201,6.201,6.201,6.201,6.201,6.201,6.201,6.201,6.201,6.201,6.201,6.201,6.201,6.201,6.1416,6.1136,6.1476,6.0335,5.9949,6.0899,5.9121,5.8024,5.8088,5.6364,5.4861,5.3724,5.3635,5.3865,5.4373,5.4396,5.4396,5.4396,5.4396,5.4396,5.4396,5.4396,5.4396,5.4396,5.4396,5.4396,5.4396,5.4396,5.4396,5.4396,5.4396,5.4109,5.3635,5.3243,5.3037,5.283,7.2999,7.2999,7.2999,7.2999,7.2999,7.2999,7.2999,7.2999,7.2999,7.2999,7.2999,7.2999,7.2999,7.2999,7.2999,7.2999,7.1341,7.0206,7.0058,6.9893,6.9794,6.9794,6.7992,6.6995,6.6995,6.5121,6.4128,6.4128,6.4019,6.3616,6.2927,6.2927,6.2601,6.201,6.201,6.201,6.201,6.201,6.201,6.201,6.201,6.201,6.201,6.201,6.201,6.201,6.201,6.201,6.201,6.201,6.201,6.201,6.201,6.201,6.201,6.201,6.201,6.201,6.201,6.201,6.201,6.201,6.201,6.201,6.201,6.201,6.201,6.201,6.201,6.201,6.201,6.201,6.207,6.2332,6.2167,6.2089,6.2332,6.2148,6.201,6.201,6.1913,6.1887,6.201,6.1737,6.1191,6.0271,5.9946,5.9289,5.8099,5.6564,5.5133,5.3836,5.4117,5.4347,5.4396,5.4396,5.4396,5.4396,5.4396,5.4396,5.4396,5.4396,5.4396,5.4396,5.4396,5.4396,5.4396,5.4396,5.4396,5.4396,5.4396,5.4396,5.4314,5.3553,5.3758,5.4191,7.2999,7.2999,7.2999,7.2999,7.2999,7.2999,7.2999,7.2999,7.2999,7.2999,7.2999,7.2999,7.2999,7.2999,7.2999,7.2999,7.2687,7.2106,7.1214,7.0305,6.9794,6.9794,6.7992,6.6995,6.6995,6.4572,6.3277,6.3277,6.2656,6.2291,6.2179,6.2179,6.2123,6.201,6.201,6.201,6.201,6.201,6.201,6.201,6.201,6.201,6.201,6.201,6.201,6.201,6.201,6.201,6.201,6.201,6.201,6.201,6.201,6.201,6.201,6.201,6.201,6.201,6.201,6.201,6.201,6.201,6.201,6.201,6.201,6.201,6.201,6.201,6.201,6.201,6.201,6.201,6.2462,6.3888,6.2914,6.2488,6.3914,6.2888,6.201,6.201,6.1555,6.145,6.1939,6.0584,5.9941,6.065,5.932,5.8133,5.7316,5.6577,5.5611,5.4342,5.398,5.4003,5.4416,5.4396,5.4396,5.4396,5.4396,5.4396,5.4396,5.4396,5.4396,5.4396,5.4396,5.4396,5.4396,5.4396,5.4396,5.4396,5.4396,5.4396,5.4396,5.4252,5.4293,5.4355,7.2999,7.2999,7.2999,7.2999,7.2999,7.2999,7.2999,7.2999,7.2999,7.2999,7.2999,7.2999,7.2999,7.2999,7.2999,7.2999,7.2999,7.2796,7.228,7.1805,7.1533,7.1533,7.013,6.8822,6.769,6.6448,6.5344,6.4346,6.4001,6.3406,6.2601,6.2601,6.2377,6.201,6.201,6.201,6.201,6.201,6.201,6.201,6.201,6.201,6.201,6.201,6.201,6.201,6.201,6.201,6.201,6.201,6.201,6.201,6.201,6.201,6.201,6.201,6.201,6.201,6.201,6.201,6.201,6.201,6.201,6.201,6.201,6.201,6.201,6.201,6.201,6.201,6.201,6.201,6.2253,6.3018,6.2515,6.2253,6.3045,6.2488,6.201,6.201,6.1756,6.1704,6.1965,6.1224,6.0917,6.1414,6.0712,6.0104,5.9751,5.8197,5.7048,5.647,5.4916,5.4186,5.4396,5.4396,5.4396,5.4396,5.4396,5.4396,5.4396,5.4396,5.4396,5.4396,5.4396,5.4396,5.4396,5.4396,5.4396,5.4396,5.4396,5.4396,5.4396,5.4396,5.4396,5.4396,7.2999,7.2999,7.2999,7.2999,7.2999,7.2999,7.2999,7.2999,7.2999,7.2999,7.2999,7.2999,7.2999,7.2999,7.2999,7.2999,7.2999,7.2999,7.2999,7.2999,7.2999,7.2999,7.198,7.0389,6.8249,6.8027,6.7086,6.5407,6.5229,6.4527,6.3369,6.3185,6.2805,6.2246,6.2085,6.201,6.201,6.201,6.201,6.201,6.201,6.201,6.201,6.201,6.201,6.201,6.201,6.201,6.201,6.201,6.201,6.201,6.201,6.201,6.201,6.201,6.201,6.201,6.201,6.201,6.201,6.201,6.201,6.201,6.201,6.201,6.201,6.201,6.201,6.201,6.201,6.201,6.2122,6.2515,6.2253,6.2122,6.2541,6.2253,6.201,6.201,6.201,6.201,6.201,6.201,6.201,6.201,6.201,6.1879,6.1571,5.9689,5.8369,5.778,5.5567,5.4396,5.4396,5.4396,5.4396,5.4396,5.4396,5.4396,5.4396,5.4396,5.4396,5.4396,5.4396,5.4396,5.4396,5.4396,5.4396,5.4396,5.4396,5.4396,5.4396,5.4396,5.4396,5.4396,7.2999,7.2999,7.2999,7.2999,7.2999,7.2999,7.2999,7.2999,7.2999,7.2999,7.2999,7.2999,7.2999,7.2999,7.2999,7.2999,7.2999,7.2999,7.2999,7.2999,7.2999,7.2999,7.198,7.0389,6.8249,6.7472,6.6535,6.5407,6.4717,6.4328,6.4201,6.3443,6.3056,6.2982,6.2284,6.201,6.201,6.201,6.201,6.201,6.201,6.201,6.201,6.201,6.201,6.201,6.201,6.201,6.201,6.201,6.201,6.201,6.201,6.201,6.201,6.201,6.201,6.201,6.201,6.201,6.201,6.201,6.201,6.201,6.201,6.201,6.201,6.201,6.201,6.201,6.201,6.201,6.2515,6.4071,6.3018,6.2541,6.4097,6.2966,6.201,6.201,6.201,6.201,6.201,6.201,6.201,6.201,6.201,6.1476,6.0304,6.0074,5.8871,5.651,5.5105,5.4396,5.4396,5.4396,5.4396,5.4396,5.4396,5.4396,5.4396,5.4396,5.4396,5.4396,5.4396,5.4396,5.4396,5.4396,5.4396,5.4396,5.4396,5.4396,5.4396,5.4396,5.4396,5.4396,7.2999,7.2999,7.2999,7.2999,7.2999,7.2999,7.2999,7.2999,7.2999,7.2999,7.2999,7.2999,7.2999,7.2999,7.2999,7.2999,7.2999,7.2999,7.2999,7.2999,7.2999,7.2999,7.2609,7.1709,7.0209,6.9884,6.8637,6.6395,6.6114,6.5397,6.4292,6.4001,6.3855,6.3818,6.3046,6.2693,6.2656,6.2198,6.201,6.201,6.201,6.201,6.201,6.201,6.201,6.201,6.201,6.201,6.201,6.201,6.201,6.201,6.201,6.201,6.201,6.201,6.201,6.201,6.201,6.201,6.201,6.201,6.201,6.201,6.201,6.201,6.201,6.201,6.201,6.201,6.201,6.201,6.2201,6.2854,6.241,6.2227,6.2862,6.241,6.201,6.201,6.201,6.201,6.201,6.201,6.201,6.201,6.201,6.1438,6.017,5.8598,5.6925,5.5186,5.4638,5.4396,5.4396,5.4396,5.4396,5.4396,5.4396,5.4396,5.4396,5.4396,5.4396,5.4396,5.4396,5.4396,5.4396,5.4396,5.4396,5.4396,5.4396,5.4396,5.4396,5.4396,5.4396,5.4396,7.2999,7.2999,7.2999,7.2999,7.2999,7.2999,7.2999,7.2999,7.2999,7.2999,7.2999,7.2999,7.2999,7.2999,7.2999,7.2999,7.2999,7.2999,7.2999,7.2999,7.2999,7.2999,7.2999,7.2499,7.1423,7.1407,7.0229,6.7873,6.7873,6.7075,6.5514,6.5264,6.496,6.4609,6.3828,6.348,6.3424,6.2675,6.234,6.2321,6.2104,6.201,6.201,6.201,6.201,6.201,6.201,6.201,6.201,6.201,6.201,6.201,6.201,6.201,6.201,6.201,6.201,6.201,6.201,6.201,6.201,6.201,6.201,6.201,6.201,6.201,6.201,6.201,6.201,6.201,6.201,6.201,6.201,6.201,6.201,6.201,6.201,6.201,6.201,6.201,6.201,6.201,6.201,6.201,6.201,6.201,6.201,6.1608,6.0749,5.8266,5.649,5.5631,5.4821,5.4396,5.4396,5.4396,5.4396,5.4396,5.4396,5.4396,5.4396,5.4396,5.4396,5.4396,5.4396,5.4396,5.4396,5.4396,5.4396,5.4396,5.4396,5.4396,5.4396,5.4396,5.4396,5.4396,7.2999,7.2999,7.2999,7.2999,7.2999,7.2999,7.2999,7.2999,7.2999,7.2999,7.2999,7.2999,7.2999,7.2999,7.2999,7.2999,7.2999,7.2999,7.2999,7.2999,7.2999,7.2999,7.2999,7.2499,7.1439,7.1407,7.0891,6.981,6.981,6.9262,6.8198,6.7386,6.6448,6.5389,6.4627,6.431,6.4256,6.3424,6.3093,6.3019,6.2284,6.201,6.201,6.201,6.201,6.201,6.201,6.201,6.201,6.201,6.201,6.201,6.201,6.201,6.201,6.201,6.201,6.201,6.201,6.201,6.201,6.201,6.201,6.201,6.201,6.201,6.201,6.201,6.201,6.201,6.201,6.201,6.201,6.201,6.201,6.201,6.201,6.201,6.201,6.201,6.201,6.201,6.201,6.201,6.201,6.201,6.1992,6.1992,6.1992,5.9574,5.8192,5.8192,5.5752,5.4436,5.4436,5.4416,5.4396,5.4396,5.4396,5.4396,5.4396,5.4396,5.4396,5.4396,5.4396,5.4396,5.4396,5.4396,5.4396,5.4396,5.4396,5.4396,5.4396,5.4396,5.4396,5.4396,7.2999,7.2999,7.2999,7.2999,7.2999,7.2999,7.2999,7.2999,7.2999,7.2999,7.2999,7.2999,7.2999,7.2999,7.2999,7.2999,7.2999,7.2999,7.2999,7.2999,7.2999,7.2999,7.2999,7.2859,7.2531,7.2515,7.1996,7.0924,7.0924,7.0387,6.9312,6.8305,6.7656,6.7305,6.5763,6.4789,6.4256,6.3424,6.2805,6.2302,6.2104,6.201,6.201,6.201,6.201,6.201,6.201,6.201,6.201,6.201,6.201,6.201,6.201,6.201,6.201,6.201,6.201,6.201,6.201,6.201,6.201,6.201,6.201,6.201,6.201,6.201,6.201,6.201,6.201,6.201,6.201,6.201,6.201,6.201,6.201,6.201,6.201,6.201,6.201,6.201,6.201,6.201,6.201,6.201,6.201,6.201,6.1167,6.0692,6.0692,5.9109,5.8192,5.8192,5.7464,5.7068,5.7068,5.5287,5.4396,5.4396,5.4396,5.4396,5.4396,5.4396,5.4396,5.4396,5.4396,5.4396,5.4396,5.4396,5.4396,5.4396,5.4396,5.4396,5.4396,5.4396,5.4396,5.4396,7.2999,7.2999,7.2999,7.2999,7.2999,7.2999,7.2999,7.2999,7.2999,7.2999,7.2999,7.2999,7.2999,7.2999,7.2999,7.2999,7.2999,7.2999,7.2999,7.2999,7.2999,7.2999,7.2999,7.2999,7.2999,7.2999,7.2672,7.2027,7.2027,7.1471,7.0419,6.9345,6.8606,6.813,6.6574,6.5453,6.4681,6.3901,6.3138,6.2396,6.2123,6.201,6.201,6.201,6.201,6.201,6.201,6.201,6.201,6.201,6.201,6.201,6.201,6.201,6.201,6.201,6.201,6.201,6.201,6.201,6.201,6.201,6.201,6.201,6.201,6.201,6.201,6.201,6.201,6.201,6.201,6.201,6.201,6.201,6.201,6.201,6.201,6.201,6.201,6.201,6.201,6.201,6.201,6.201,6.201,6.201,6.1306,6.0863,6.0863,5.9651,5.8954,5.8954,5.8466,5.8192,5.8192,5.667,5.5648,5.5146,5.4661,5.4396,5.4396,5.4396,5.4396,5.4396,5.4396,5.4396,5.4396,5.4396,5.4396,5.4396,5.4396,5.4396,5.4396,5.4396,5.4396,5.4396,7.2999,7.2999,7.2999,7.2999,7.2999,7.2999,7.2999,7.2999,7.2999,7.2999,7.2999,7.2999,7.2999,7.2999,7.2999,7.2999,7.2999,7.2999,7.2999,7.2999,7.2999,7.2999,7.2999,7.2999,7.2999,7.2999,7.2999,7.2999,7.2999,7.2499,7.1519,7.0452,6.9428,6.8436,6.7368,6.6444,6.5629,6.4951,6.4156,6.3296,6.2507,6.216,6.2104,6.2029,6.201,6.201,6.201,6.201,6.201,6.201,6.201,6.201,6.201,6.201,6.201,6.201,6.201,6.201,6.201,6.201,6.201,6.201,6.201,6.201,6.201,6.201,6.201,6.201,6.201,6.201,6.201,6.201,6.201,6.201,6.201,6.201,6.201,6.201,6.201,6.201,6.201,6.201,6.201,6.201,6.201,6.201,6.201,6.201,6.201,6.0901,6.0265,6.0265,5.9148,5.8545,5.8545,5.8427,5.774,5.645,5.5186,5.4579,5.4579,5.4457,5.4396,5.4396,5.4396,5.4396,5.4396,5.4396,5.4396,5.4396,5.4396,5.4396,5.4396,5.4396,5.4396,5.4396,7.2999,7.2999,7.2999,7.2999,7.2999,7.2999,7.2999,7.2999,7.2999,7.2999,7.2999,7.2999,7.2999,7.2999,7.2999,7.2999,7.2999,7.2999,7.2999,7.2999,7.2999,7.2999,7.2999,7.2999,7.2999,7.2999,7.2999,7.2999,7.2999,7.289,7.2625,7.1551,7.094,7.065,6.9566,6.8649,6.7878,6.7461,6.6524,6.52,6.4147,6.3379,6.2805,6.2235,6.201,6.201,6.201,6.201,6.201,6.201,6.201,6.201,6.201,6.201,6.201,6.201,6.201,6.201,6.201,6.201,6.201,6.201,6.201,6.201,6.201,6.201,6.201,6.201,6.201,6.201,6.201,6.201,6.201,6.201,6.201,6.201,6.201,6.201,6.201,6.201,6.201,6.201,6.201,6.201,6.201,6.201,6.201,6.201,6.201,6.1721,6.1589,6.1589,6.1325,6.1193,6.1193,6.0189,5.9051,5.778,5.649,5.5869,5.5849,5.4841,5.4396,5.4396,5.4396,5.4396,5.4396,5.4396,5.4396,5.4396,5.4396,5.4396,5.4396,5.4396,5.4396,5.4396,7.2999,7.2999,7.2999,7.2999,7.2999,7.2999,7.2999,7.2999,7.2999,7.2999,7.2999,7.2999,7.2999,7.2999,7.2999,7.2999,7.2999,7.2999,7.2999,7.2999,7.2999,7.2999,7.2999,7.2999,7.2999,7.2999,7.2999,7.2999,7.2999,7.2999,7.2983,7.19,7.1407,7.1359,7.0288,6.9337,6.8574,6.7861,6.6914,6.5758,6.4274,6.3434,6.3019,6.2265,6.201,6.201,6.201,6.201,6.201,6.201,6.201,6.201,6.201,6.201,6.201,6.201,6.201,6.201,6.201,6.201,6.201,6.201,6.201,6.201,6.201,6.201,6.201,6.201,6.201,6.201,6.201,6.201,6.201,6.201,6.201,6.201,6.201,6.201,6.201,6.201,6.201,6.201,6.201,6.201,6.201,6.201,6.201,6.201,6.201,6.201,6.201,6.201,6.201,6.201,6.201,6.1344,6.0673,6.0003,5.8114,5.6889,5.627,5.5607,5.4963,5.4396,5.4396,5.4396,5.4396,5.4396,5.4396,5.4396,5.4396,5.4396,5.4396,5.4396,5.4396,5.4396,7.2999,7.2999,7.2999,7.2999,7.2999,7.2999,7.2999,7.2999,7.2999,7.2999,7.2999,7.2999,7.2999,7.2999,7.2999,7.2999,7.2999,7.2999,7.2999,7.2999,7.2999,7.2999,7.2999,7.2999,7.2999,7.2999,7.2999,7.2999,7.2999,7.2999,7.2983,7.2091,7.1663,7.1631,7.0745,6.9996,6.9278,6.8163,6.7254,6.6391,6.4464,6.3599,6.3406,6.2526,6.2198,6.2179,6.2048,6.201,6.201,6.201,6.201,6.201,6.201,6.201,6.201,6.201,6.201,6.201,6.201,6.201,6.201,6.201,6.201,6.201,6.201,6.201,6.201,6.201,6.201,6.201,6.201,6.201,6.201,6.201,6.201,6.201,6.201,6.201,6.201,6.201,6.201,6.201,6.201,6.201,6.201,6.201,6.201,6.201,6.201,6.201,6.201,6.201,6.201,6.201,6.201,6.201,6.201,6.1973,5.9869,5.8192,5.6949,5.673,5.5929,5.4719,5.4719,5.462,5.4396,5.4396,5.4396,5.4396,5.4396,5.4396,5.4396,5.4396,5.4396,5.4396,7.2999,7.2999,7.2999,7.2999,7.2999,7.2999,7.2999,7.2999,7.2999,7.2999,7.2999,7.2999,7.2999,7.2999,7.2999,7.2999,7.2999,7.2999,7.2999,7.2999,7.2999,7.2999,7.2999,7.2999,7.2999,7.2999,7.2999,7.2999,7.2999,7.2999,7.2999,7.2859,7.2765,7.2796,7.2625,7.2515,7.2312,7.094,6.9959,6.9082,6.6919,6.5664,6.4942,6.3498,6.2945,6.2879,6.2235,6.201,6.201,6.201,6.201,6.201,6.201,6.201,6.201,6.201,6.201,6.201,6.201,6.201,6.201,6.201,6.201,6.201,6.201,6.201,6.201,6.201,6.201,6.201,6.201,6.201,6.201,6.201,6.201,6.201,6.201,6.201,6.201,6.201,6.201,6.201,6.201,6.201,6.201,6.201,6.201,6.201,6.201,6.201,6.201,6.201,6.201,6.201,6.201,6.201,6.201,6.201,6.1646,6.0825,5.9548,5.8447,5.7246,5.603,5.603,5.5429,5.4396,5.4396,5.4396,5.4396,5.4396,5.4396,5.4396,5.4396,5.4396,5.4396,7.2999,7.2999,7.2999,7.2999,7.2999,7.2999,7.2999,7.2999,7.2999,7.2999,7.2999,7.2999,7.2999,7.2999,7.2999,7.2999,7.2999,7.2999,7.2999,7.2999,7.2999,7.2999,7.2999,7.2999,7.2999,7.2999,7.2999,7.2999,7.2999,7.2999,7.2999,7.2999,7.2999,7.2999,7.2999,7.2999,7.2921,7.1693,7.0648,6.9628,6.761,6.6219,6.5229,6.37,6.3093,6.2982,6.2246,6.201,6.201,6.201,6.201,6.201,6.201,6.201,6.201,6.201,6.201,6.201,6.201,6.201,6.201,6.201,6.201,6.201,6.201,6.201,6.201,6.201,6.201,6.201,6.201,6.201,6.201,6.201,6.201,6.201,6.201,6.201,6.201,6.201,6.201,6.201,6.201,6.201,6.201,6.201,6.201,6.201,6.201,6.201,6.201,6.201,6.201,6.201,6.201,6.201,6.201,6.201,6.201,6.1344,6.0093,5.9535,5.8584,5.7365,5.7365,5.665,5.5469,5.5469,5.5044,5.4396,5.4396,5.4396,5.4396,5.4396,5.4396,5.4396]}]]